[[{"header":{"parameterUnit":"m.s-1","parameterCategory":1,"la1":30.6,"la2":28.766,"lo1":-90.7593,"lo2":-88.6598,"dy":0.0162,"dx":0.0183,"nx":116,"ny":114,"refTime":"2023-06-04T06:00:00:Z","depth":0,"parameterNumber":2,"parameterNumberName":"U-component_of_WINDS"},"data":[0.0,0.0,0.0,0.0,0.0,0.0,0.0,0.0,0.0,0.0,0.0,0.0,0.0,0.0,0.0,0.0,0.0,0.0,0.0,0.0,0.0,0.0,0.0,0.0,0.0,0.0,0.0,0.0,0.0,0.0,0.0,0.0,0.0,0.0,0.0,0.0,0.0,0.0,0.0,0.0,0.0,0.0,0.0,0.0,0.0,0.0,0.0,0.0,0.0,0.0,0.0,0.0,0.0,0.0,0.0,0.0,0.0,0.0,0.0,0.0,0.0,0.0,0.0,0.0,0.0,0.0,0.0,0.0,0.0,0.0,0.0,0.0,0.0,0.0,0.0,0.0,0.0,0.0,0.0,0.0,0.0,0.0,0.0,0.0,0.0,0.0,0.0,0.0,0.0,0.0,0.0,0.0,0.0,0.0,0.0,0.0,0.0,0.0,0.0,0.0,0.0,0.0,0.0,0.0,0.0,0.0,0.0,0.0,0.0,0.0,0.0,0.0,0.0,0.0,0.0,0.0,0.0,0.0,0.0,0.0,0.0,0.0,0.0,0.0,0.0,0.0,0.0,0.0,0.0,0.0,0.0,0.0,0.0,0.0,0.0,0.0,0.0,0.0,0.0,0.0,0.0,0.0,0.0,0.0,0.0,0.0,0.0,0.0,0.0,0.0,0.0,0.0,0.0,0.0,0.0,0.0,0.0,0.0,0.0,0.0,0.0,0.0,0.0,0.0,0.0,0.0,0.0,0.0,0.0,0.0,0.0,0.0,0.0,0.0,0.0,0.0,0.0,0.0,0.0,0.0,0.0,0.0,0.0,0.0,0.0,0.0,0.0,0.0,0.0,0.0,0.0,0.0,0.0,0.0,0.0,0.0,0.0,0.0,0.0,0.0,0.0,0.0,0.0,0.0,0.0,0.0,0.0,0.0,0.0,0.0,0.0,0.0,0.0,0.0,0.0,0.0,0.0,0.0,0.0,0.0,0.0,0.0,0.0,0.0,0.0,0.0,0.0,0.0,0.0,0.0,0.0,0.0,0.0,0.0,0.0,0.0,0.0,0.0,0.0,0.0,0.0,0.0,0.0,0.0,0.0,0.0,0.0,0.0,0.0,0.0,0.0,0.0,0.0,0.0,0.0,0.0,0.0,0.0,0.0,0.0,0.0,0.0,0.0,0.0,0.0,0.0,0.0,0.0,0.0,0.0,0.0,0.0,0.0,0.0,0.0,0.0,0.0,0.0,0.0,0.0,0.0,0.0,0.0,0.0,0.0,0.0,0.0,0.0,0.0,0.0,0.0,0.0,0.0,0.0,0.0,0.0,0.0,0.0,0.0,0.0,0.0,0.0,0.0,0.0,0.0,0.0,0.0,0.0,0.0,0.0,0.0,0.0,0.0,0.0,0.0,0.0,0.0,0.0,0.0,0.0,0.0,0.0,0.0,0.0,0.0,0.0,0.0,0.0,0.0,0.0,0.0,0.0,0.0,0.0,0.0,0.0,0.0,0.0,0.0,0.0,0.0,0.0,0.0,0.0,0.0,0.0,0.0,0.0,0.0,0.0,0.0,0.0,0.0,0.0,0.0,0.0,0.0,0.0,0.0,0.0,0.0,0.0,0.0,0.0,0.0,0.0,0.0,0.0,0.0,0.0,0.0,0.0,0.0,0.0,0.0,0.0,0.0,0.0,0.0,0.0,0.0,0.0,0.0,0.0,0.0,0.0,0.0,0.0,0.0,0.0,0.0,0.0,0.0,0.0,0.0,0.0,0.0,0.0,0.0,0.0,0.0,0.0,0.0,0.0,0.0,0.0,0.0,0.0,0.0,0.0,0.0,0.0,0.0,0.0,0.0,0.0,0.0,0.0,0.0,0.0,0.0,0.0,0.0,0.0,0.0,0.0,0.0,0.0,0.0,0.0,0.0,0.0,0.0,0.0,0.0,0.0,0.0,0.0,0.0,0.0,0.0,0.0,0.0,0.0,0.0,0.0,0.0,0.0,0.0,0.0,0.0,0.0,0.0,0.0,0.0,0.0,0.0,0.0,0.0,0.0,0.0,0.0,0.0,0.0,0.0,0.0,0.0,0.0,0.0,0.0,0.0,0.0,0.0,0.0,0.0,0.0,0.0,0.0,0.0,0.0,0.0,0.0,0.0,0.0,0.0,0.0,0.0,0.0,0.0,0.0,0.0,0.0,0.0,0.0,0.0,0.0,0.0,0.0,0.0,0.0,0.0,0.0,0.0,0.0,0.0,0.0,0.0,0.0,0.0,0.0,0.0,0.0,0.0,0.0,0.0,0.0,0.0,0.0,0.0,0.0,0.0,0.0,0.0,0.0,0.0,0.0,0.0,0.0,0.0,0.0,0.0,0.0,0.0,0.0,0.0,0.0,0.0,0.0,0.0,0.0,0.0,0.0,0.0,0.0,0.0,0.0,0.0,0.0,0.0,0.0,0.0,0.0,0.0,0.0,0.0,0.0,0.0,0.0,0.0,0.0,0.0,0.0,0.0,0.0,0.0,0.0,0.0,0.0,0.0,0.0,0.0,0.0,0.0,0.0,0.0,0.0,0.0,0.0,0.0,0.0,0.0,0.0,0.0,0.0,0.0,0.0,0.0,0.0,0.0,0.0,0.0,0.0,0.0,0.0,0.0,0.0,0.0,0.0,0.0,0.0,0.0,0.0,0.0,0.0,0.0,0.0,0.0,0.0,0.0,0.0,0.0,0.0,0.0,0.0,0.0,0.0,0.0,0.0,0.0,0.0,0.0,0.0,0.0,0.0,0.0,0.0,0.0,0.0,0.0,0.0,0.0,0.0,0.0,0.0,0.0,0.0,0.0,0.0,0.0,0.0,0.0,0.0,0.0,0.0,0.0,0.0,0.0,0.0,0.0,0.0,0.0,0.0,0.0,0.0,0.0,0.0,0.0,0.0,0.0,0.0,0.0,0.0,0.0,0.0,0.0,0.0,0.0,0.0,0.0,0.0,0.0,0.0,0.0,0.0,0.0,0.0,0.0,0.0,0.0,0.0,0.0,0.0,0.0,0.0,0.0,0.0,0.0,0.0,0.0,0.0,0.0,0.0,0.0,0.0,0.0,0.0,0.0,0.0,0.0,0.0,0.0,0.0,0.0,0.0,0.0,0.0,0.0,0.0,0.0,0.0,0.0,0.0,0.0,0.0,0.0,0.0,0.0,0.0,0.0,0.0,0.0,0.0,0.0,0.0,0.0,0.0,0.0,0.0,0.0,0.0,0.0,0.0,0.0,0.0,0.0,0.0,0.0,0.0,0.0,0.0,0.0,0.0,0.0,0.0,0.0,0.0,0.0,0.0,0.0,0.0,0.0,0.0,0.0,0.0,0.0,0.0,0.0,0.0,0.0,0.0,0.0,0.0,0.0,0.0,0.0,0.0,0.0,0.0,0.0,0.0,0.0,0.0,0.0,0.0,0.0,0.0,0.0,0.0,0.0,0.0,0.0,0.0,0.0,0.0,0.0,0.0,0.0,0.0,0.0,0.0,0.0,0.0,0.0,0.0,0.0,0.0,0.0,0.0,0.0,0.0,0.0,0.0,0.0,0.0,0.0,0.0,0.0,0.0,0.0,0.0,0.0,0.0,0.0,0.0,0.0,0.0,0.0,0.0,0.0,0.0,0.0,0.0,0.0,0.0,0.0,0.0,0.0,0.0,0.0,0.0,0.0,0.0,0.0,0.0,0.0,0.0,0.0,0.0,0.0,0.0,0.0,0.0,0.0,0.0,0.0,0.0,0.0,0.0,0.0,0.0,0.0,0.0,0.0,0.0,0.0,0.0,0.0,0.0,0.0,0.0,0.0,0.0,0.0,0.0,0.0,0.0,0.0,0.0,0.0,0.0,0.0,0.0,0.0,0.0,0.0,0.0,0.0,0.0,0.0,0.0,0.0,0.0,0.0,0.0,0.0,0.0,0.0,0.0,0.0,0.0,0.0,0.0,0.0,0.0,0.0,0.0,0.0,0.0,0.0,0.0,0.0,0.0,0.0,0.0,0.0,0.0,0.0,0.0,0.0,0.0,0.0,0.0,0.0,0.0,0.0,0.0,0.0,0.0,0.0,0.0,0.0,0.0,0.0,0.0,0.0,0.0,0.0,0.0,0.0,0.0,0.0,0.0,0.0,0.0,0.0,0.0,0.0,0.0,0.0,0.0,0.0,0.0,0.0,0.0,0.0,0.0,0.0,0.0,0.0,0.0,0.0,0.0,0.0,0.0,0.0,0.0,0.0,0.0,0.0,0.0,0.0,0.0,0.0,0.0,0.0,0.0,0.0,0.0,0.0,0.0,0.0,0.0,0.0,0.0,0.0,0.0,0.0,0.0,0.0,0.0,0.0,0.0,0.0,0.0,0.0,0.0,0.0,0.0,0.0,0.0,0.0,0.0,0.0,0.0,0.0,0.0,0.0,0.0,0.0,0.0,0.0,0.0,0.0,0.0,0.0,0.0,0.0,0.0,0.0,0.0,0.0,0.0,0.0,0.0,0.0,0.0,0.0,0.0,0.0,0.0,0.0,0.0,0.0,0.0,0.0,0.0,0.0,0.0,0.0,0.0,0.0,0.0,0.0,0.0,0.0,0.0,0.0,0.0,0.0,0.0,0.0,0.0,0.0,0.0,0.0,0.0,0.0,0.0,0.0,0.0,0.0,0.0,0.0,0.0,0.0,0.0,0.0,0.0,0.0,0.0,0.0,0.0,0.0,0.0,0.0,0.0,0.0,0.0,0.0,0.0,0.0,0.0,0.0,0.0,0.0,0.0,0.0,0.0,0.0,0.0,0.0,0.0,0.0,0.0,0.0,0.0,0.0,0.0,0.0,0.0,0.0,0.0,0.0,0.0,0.0,0.0,0.0,0.0,0.0,0.0,0.0,0.0,0.0,0.0,0.0,0.0,0.0,0.0,0.0,0.0,0.0,0.0,0.0,0.0,0.0,0.0,0.0,0.0,0.0,0.0,0.0,0.0,0.0,0.0,0.0,0.0,0.0,0.0,0.0,0.0,0.0,0.0,0.0,0.0,0.0,0.0,0.0,0.0,0.0,0.0,0.0,0.0,0.0,0.0,0.0,0.0,0.0,0.0,0.0,0.0,0.0,0.0,0.0,0.0,0.0,0.0,0.0,0.0,0.0,0.0,0.0,0.0,0.0,0.0,0.0,0.0,0.0,0.0,0.0,0.0,0.0,0.0,0.0,0.0,0.0,0.0,0.0,0.0,0.0,0.0,0.0,0.0,0.0,0.0,0.0,0.0,0.0,0.0,0.0,0.0,0.0,0.0,0.0,0.0,0.0,0.0,0.0,0.0,0.0,0.0,0.0,0.0,0.0,0.0,0.0,0.0,0.0,0.0,0.0,0.0,0.0,0.0,0.0,0.0,0.0,0.0,0.0,0.0,0.0,0.0,0.0,0.0,0.0,0.0,0.0,0.0,0.0,0.0,0.0,0.0,0.0,0.0,0.0,0.0,0.0,0.0,0.0,0.0,0.0,0.0,0.0,0.0,0.0,0.0,0.0,0.0,0.0,0.0,0.0,0.0,0.0,0.0,0.0,0.0,0.0,0.0,0.0,0.0,0.0,0.0,0.0,0.0,0.0,0.0,0.0,0.0,0.0,0.0,0.0,0.0,0.0,0.0,0.0,0.0,0.0,0.0,0.0,0.0,0.0,0.0,0.0,0.0,0.0,0.0,0.0,0.0,0.0,0.0,0.0,0.0,0.0,0.0,0.0,0.0,0.0,0.0,0.0,0.0,0.0,0.0,0.0,0.0,0.0,0.0,0.0,0.0,0.0,0.0,0.0,0.0,0.0,0.0,0.0,0.0,0.0,0.0,0.0,0.0,0.0,0.0,0.0,0.0,0.0,0.0,0.0,0.0,0.0,0.0,0.0,0.0,0.0,0.0,0.0,0.0,0.0,0.0,0.0,0.0,0.0,0.0,0.0,0.0,0.0,0.0,0.0,0.0,0.0,0.0,0.0,0.0,0.0,0.0,0.0,0.0,0.0,0.0,0.0,0.0,0.0,0.0,0.0,0.0,0.0,0.0,0.0,0.0,0.0,0.0,0.0,0.0,0.0,0.0,0.0,0.0,0.0,0.0,0.0,0.0,0.0,0.0,-0.0777,0.0,0.0,0.0,0.0,0.0,0.0,0.0,0.0,0.0,0.0,0.0,0.0,0.0,0.0,0.0,0.0,0.0,0.0,0.0,0.0,0.0,0.0,0.0,0.0,0.0,0.0,0.0,0.0,0.0,0.0,0.0,0.0,0.0,0.0,0.0,0.0,0.0,0.0,-1.8461,-1.9935,-2.0683,-2.0748,-2.3016,-2.3391,-2.21,0.0,0.0,0.0,0.0,0.0,0.0,0.0,0.0,0.0,0.0,0.0,0.0,0.0,0.0,0.0,0.0,0.0,0.0,0.0,0.0,0.0,0.0,0.0,0.0,0.0,0.0,0.0,0.0,0.0,0.0,0.0,0.0,0.0,0.0,0.0,0.0,0.0,0.0,0.0,0.0,0.0,0.0,0.0,0.0,0.0,0.0,0.0,0.0,0.0,0.0,0.0,0.0,0.0,0.0,0.0,0.0,0.0,0.0,0.0,0.0,0.0,0.0,0.0,0.0,0.0,0.0,0.0,0.0,0.0,0.0,0.0,-0.3245,0.0,0.0,0.0,0.0,0.0,0.0,0.0,0.0,0.0,0.0,0.0,0.0,0.0,0.0,0.0,0.0,0.0,0.0,0.0,0.0,0.0,0.0,0.0,2.1013,2.078,2.1138,2.1407,2.1559,0.0,0.0,0.0,0.0,0.0,0.0,0.3455,-1.3244,-2.0901,-1.915,-1.9335,-2.0305,-2.1999,-2.3086,-2.3636,-2.364,-2.284,0.0,0.0,0.0,0.0,0.0,0.0,0.0,0.0,0.0,0.0,0.0,0.0,0.0,0.0,0.0,0.0,0.0,0.0,0.0,0.0,0.0,0.0,0.0,0.0,0.0,0.0,0.0,0.0,0.0,0.0,0.0,0.0,0.0,0.0,0.0,0.0,0.0,0.0,0.0,0.0,0.0,0.0,0.0,0.0,0.0,0.0,0.0,0.0,0.0,0.0,0.0,0.0,0.0,0.0,0.0,0.0,0.0,0.0,0.0,0.0,0.0,0.0,0.0,-0.7086,-0.8861,-0.9956,-1.1289,-1.289,-1.4365,-0.9571,-0.7906,-0.8388,0.0,0.0,0.0,0.0,0.0,0.0,0.0,0.0,0.0,0.0,0.0,0.0,0.0,0.0,0.0,0.0,0.0,0.0,0.0,0.0,0.0,0.0,2.2128,2.2459,2.2679,2.2605,2.2519,2.2513,0.0,0.0,0.0,0.0,0.0,0.3532,-1.1915,-1.9216,-1.8091,-1.9143,-2.0823,-2.301,-2.3416,-2.3335,-2.285,-2.3017,-2.2805,-2.241,0.0,0.0,0.0,0.0,0.0,0.0,0.0,0.0,0.0,0.0,0.0,0.0,0.0,0.0,0.0,0.0,0.0,0.0,0.0,0.0,0.0,0.0,0.0,0.0,0.0,0.0,0.0,0.0,0.0,0.0,0.0,0.0,0.0,0.0,0.0,0.0,0.0,0.0,0.0,0.0,0.0,1.0678,1.0623,0.0,0.0,0.0,0.0,0.0,0.0,0.0,0.0,0.0,0.0,0.0,0.0,0.0,0.0024,-0.3843,-0.6259,-0.8911,-1.1844,-1.4796,-1.7086,-1.8737,-1.8896,-1.9018,-1.9057,-1.7624,0.0,-1.3724,-1.0459,0.0,0.0,0.0,0.0,0.0,0.0,0.0,0.0,0.0,0.0,0.0,0.0,0.0,0.0,0.0,0.0,0.0,0.0,0.0,0.0,0.0,2.2007,2.2047,2.1982,2.2422,2.2588,2.2384,2.2934,0.0,0.0,0.0,2.017,0.9677,0.0628,-0.7128,-1.3565,-1.9122,-2.188,-2.199,-2.3005,-2.3293,-2.2994,-2.4292,-2.3952,-2.2392,-2.2837,0.0,0.0,0.0,0.0,0.0,0.0,0.0,0.0,0.0,0.0,0.0,0.0,0.0,0.0,0.0,0.0,0.0,0.0,0.0,0.0,0.0,0.0,0.0,0.0,0.0,0.0,0.0,0.0,0.0,0.0,0.0,0.0,0.0,0.0,0.0,0.0,0.0,0.0,0.0,1.3205,1.4978,1.3286,1.5704,1.7574,0.0,0.0,0.0,0.0,0.0,0.0,0.0,0.0,0.0,-0.3651,-0.5154,-0.7382,-1.0518,-1.3209,-1.5618,-1.7725,-1.9655,-2.0931,-2.1622,-2.1577,-2.1314,-2.0891,-1.9677,-1.8352,-1.6805,-1.3362,-1.0654,-0.8376,0.0,0.0,0.0,0.0,0.2298,0.236,0.0,0.0,0.0,0.0,0.0,0.0,0.0,0.0,0.0,0.0,0.0,0.0,2.1947,2.2083,2.1979,2.161,2.2407,2.276,2.2278,2.2562,2.2964,2.3457,2.3504,2.0334,1.3508,0.862,0.1158,-0.9019,-1.6682,-2.0355,-2.0281,-2.2392,-2.344,-2.3623,-2.4951,-2.4486,-2.2758,-2.3454,-2.347,-2.3084,0.0,0.0,0.0,0.0,0.0,0.0,0.0,0.0,0.0,0.0,0.0,0.0,0.0,0.0,0.0,0.0,0.0,0.0,0.0,0.0,0.0,0.0,0.0,0.0,0.0,0.0,0.0,0.0,0.0,0.0,0.0,0.0,0.0,0.0,0.0,0.0,0.0,1.7402,1.7876,1.5718,1.7796,1.8446,0.0,0.0,0.0,0.0,0.0,0.0,-0.2499,-0.4282,-0.737,-1.217,-1.2956,-1.4471,-1.69,-1.8908,-2.0591,-2.1893,-2.2694,-2.3147,-2.3246,-2.313,-2.2688,-2.1951,-2.0785,-1.9614,-1.8306,-1.5262,-1.2495,-0.997,-0.7623,-0.5238,-0.2976,-0.2039,-0.1412,-0.1056,0.0,0.0,0.0,0.0,0.0,0.0,0.0,0.0,0.0,0.0,0.0,2.2168,2.2031,2.295,2.3333,2.2676,2.3236,2.3369,2.2728,2.2294,2.1989,2.1829,2.1037,1.7517,1.0933,0.4469,-0.1141,-0.5828,-1.003,-1.4166,-1.8241,-2.1691,-2.3854,-2.4777,-2.4118,-2.3947,-2.4177,-2.5468,-2.4935,-2.3287,-2.4447,0.0,0.0,0.0,0.0,0.0,0.0,0.0,0.0,0.0,0.0,0.0,0.0,0.0,0.0,0.0,0.0,0.0,0.0,0.0,0.0,0.0,0.0,0.0,0.0,0.0,0.0,0.0,0.0,0.0,0.0,0.0,0.0,0.0,0.0,0.0,0.0,0.0,0.0,1.7354,1.875,0.0,0.0,0.0,0.0,-0.1101,-0.3508,-0.5409,-0.718,-1.0883,-1.6192,-2.3265,-2.0743,-2.0369,-2.2657,-2.2324,-2.2681,-2.3763,-2.3827,-2.4245,-2.4957,-2.4759,-2.4008,-2.283,-2.2702,-2.0932,-1.7968,-1.5962,-1.4591,-1.3476,-1.0937,-0.9139,-0.78,-0.6684,-0.5883,-0.5409,0.0,0.0,0.0,0.0,0.0,0.0,0.0,0.0,2.2418,2.3739,2.3506,2.3382,2.3833,2.3588,2.3298,2.3101,2.2883,2.2485,2.1889,2.2152,2.2068,2.154,2.1995,2.101,1.8311,1.7235,1.2262,0.3144,-0.2885,-0.8428,-1.348,-1.8068,-2.1035,-2.2491,-2.3412,-2.4454,-2.5552,-2.5461,-2.493,-2.4148,-2.4016,-2.4005,0.0,0.0,0.0,0.0,0.0,0.0,0.0,0.0,0.0,0.0,0.0,0.0,0.0,0.0,0.0,0.0,0.0,0.0,0.0,0.0,0.0,0.0,0.0,0.0,0.0,0.0,0.0,0.0,0.0,0.0,0.0,0.0,0.0,0.0,0.0,0.0,0.0,1.2007,1.0793,0.0,0.0,0.0347,-0.2137,-0.6995,-1.0085,-1.3253,-1.6747,-1.8774,-2.141,-2.4959,-2.3802,-2.3497,-2.4301,-2.4293,-2.4477,-2.4796,-2.4848,-2.4767,-2.4573,-2.4501,-2.3584,-2.2016,-2.1313,-2.02,-1.8776,-1.6828,-1.5076,-1.3546,-1.2787,-1.1796,-1.0699,-1.0299,-0.9781,-0.9251,0.0,0.0,0.0,0.0,0.0,0.0,0.0,0.0,2.2585,2.334,2.3562,2.3749,2.4058,2.4057,2.3988,2.385,2.3252,2.2671,2.2217,2.2018,2.1714,2.1184,2.1401,2.1682,2.1933,2.2859,1.925,1.0912,0.3624,-0.2712,-0.8179,-1.3757,-1.7812,-2.0483,-2.1921,-2.3879,-2.601,-2.5893,-2.5651,-2.5279,-2.4911,-2.5096,-2.5412,0.0,0.0,0.0,0.0,0.0,0.0,0.0,0.0,0.0,0.0,0.0,0.0,0.0,0.0,0.0,0.0,0.0,0.0,0.0,0.0,0.0,0.0,0.0,0.0,0.0,0.0,0.0,0.0,0.0,0.0,0.0,0.0,0.0,0.0,0.0,1.2598,0.8179,0.4496,-0.0184,-0.6523,-0.7986,-1.0457,-1.5129,-1.7767,-2.0436,-2.3328,-2.4362,-2.506,-2.5459,-2.5534,-2.5437,-2.5168,-2.5333,-2.5371,-2.5223,-2.5231,-2.4879,-2.4206,-2.4118,-2.31,-2.1361,-2.0729,-1.9794,-1.867,-1.7436,-1.5914,-1.4328,-1.4544,-1.4119,-1.3316,-1.3253,-1.2906,-1.2295,0.0,0.0,0.0,0.0,0.0,0.0,0.0,2.1966,2.208,2.0952,2.2388,2.3266,2.2602,2.4394,2.5449,2.4953,2.4408,2.3983,2.3699,2.1846,2.0719,2.0686,1.9038,1.8965,2.0782,1.9773,1.8385,1.6683,0.9346,0.2948,-0.2597,-0.9021,-1.4468,-1.8805,-1.9582,-2.1974,-2.5512,-2.6846,-2.71,-2.6669,-2.7277,-2.7589,-2.7433,0.0,0.0,0.0,0.0,0.0,0.0,0.0,0.0,0.0,0.0,0.0,0.0,0.0,0.0,0.0,0.0,0.0,0.0,0.0,0.0,0.0,0.0,0.0,0.0,0.0,0.0,0.0,0.0,0.0,0.0,0.0,0.0,0.0,1.8661,0.9744,0.3304,0.5946,0.0114,-0.7058,-1.4526,-1.5249,-1.8259,-2.5485,-2.6536,-2.6677,-2.6298,-2.7382,-2.7233,-2.5547,-2.6271,-2.6307,-2.5508,-2.5493,-2.5362,-2.5099,-2.4957,-2.4562,-2.3988,-2.3744,-2.2664,-2.0955,-2.1151,-1.9812,-1.7507,-1.7667,-1.7098,-1.6136,-1.6267,-1.6087,-1.5728,-1.5607,-1.5203,-1.4549,0.0,0.0,0.0,0.0,0.0,0.0,0.0,2.1777,2.1812,2.0916,2.2667,2.372,2.2936,2.3914,2.48,2.5223,2.3088,2.2153,2.3143,2.0947,1.9874,2.0377,1.9432,1.9722,2.1486,2.1775,2.0768,1.8352,1.3515,0.8543,0.3339,-0.4895,-1.0329,-1.3385,-1.5681,-1.9182,-2.3519,-2.517,-2.7137,-2.9069,-2.8737,-2.8479,-2.8135,0.0,0.0,0.0,0.0,0.0,0.0,0.0,0.0,0.0,0.0,0.0,0.0,0.0,0.0,0.0,0.0,0.0,0.0,0.0,0.0,0.0,0.0,0.0,0.0,0.0,0.0,0.0,0.0,0.0,0.0,0.0,0.0,-0.383,0.2769,-0.193,-0.7076,-0.9795,-1.61,-2.0965,-2.2846,-2.3118,-2.4072,-2.6282,-2.738,-2.8003,-2.808,-2.8404,-2.8175,-2.731,-2.6905,-2.6307,-2.5513,-2.5503,-2.5369,-2.5095,-2.4869,-2.4365,-2.3617,-2.3041,-2.1755,-2.0043,-1.9531,-1.8669,-1.7491,-1.6487,-1.6163,-1.6342,-1.6734,-1.6797,-1.6746,-1.7092,-1.6598,-1.5541,0.0,0.0,0.0,0.0,0.0,0.0,0.0,2.1386,2.1316,1.9413,2.217,2.3718,2.2129,2.3421,2.4413,2.4389,2.281,2.1857,2.2001,2.0657,1.9772,1.9511,1.9722,2.0408,2.1645,2.2192,2.151,1.9535,1.618,1.1971,0.6917,-0.1393,-0.6946,-0.995,-1.2602,-1.5845,-1.9377,-2.1882,-2.4869,-2.8121,-2.9073,-3.0199,-3.1052,-2.8854,-2.7958,-2.7651,-2.5756,-2.4236,-2.2931,-2.1501,0.0,0.0,0.0,0.0,0.0,0.0,0.0,0.0,0.0,0.0,0.0,0.0,0.0,0.0,0.0,0.0,0.0,0.0,0.0,0.0,0.0,0.0,0.0,0.0,-0.7053,-1.2135,-1.4875,-1.7183,-1.9496,-2.1953,-2.5301,-2.7522,-2.7885,-2.7604,-2.755,-2.783,-2.8579,-2.8914,-2.8647,-2.9121,-2.8962,-2.8026,-2.7835,-2.7207,-2.6054,-2.6014,-2.5655,-2.4973,-2.4706,-2.415,-2.3334,-2.2384,-2.1201,0.0,-1.8538,-1.7632,-1.6968,-1.5657,-1.5168,0.0,0.0,0.0,0.0,0.0,-1.6347,-1.5545,0.0,0.0,0.0,0.0,0.0,0.0,0.0,2.0958,2.0763,1.7348,2.1171,2.3149,2.0388,2.2498,2.3745,2.2828,2.2767,2.215,2.0657,2.0626,2.0083,1.8781,2.0076,2.1031,2.1507,2.1701,2.1272,2.0208,1.7501,1.383,0.9113,0.1454,-0.3953,-0.7269,-0.9592,-1.172,-1.3721,-1.6693,-2.0439,-2.4535,-2.7164,-3.0879,-3.4504,-3.1812,-3.0913,-3.0778,-2.8246,-2.543,-2.2902,-2.2985,0.0,0.0,0.0,0.0,0.0,0.0,0.0,0.0,0.0,0.0,0.0,0.0,0.0,0.0,0.0,0.0,0.0,0.0,0.0,0.0,0.0,0.0,0.0,0.0,-1.014,-1.7503,-3.0083,-3.1489,-3.092,-3.0164,-2.9082,-2.8845,-2.9929,-2.9377,-2.9071,-2.9347,-2.9678,-2.9447,-2.8534,0.0,0.0,0.0,0.0,-2.8489,-2.6967,-2.6775,-2.6088,-2.4898,-2.4497,-2.386,-2.3028,-2.177,-2.0735,-1.9836,-1.7857,-1.6699,-1.612,-1.4949,-1.4007,-1.3381,-1.4609,-1.5112,-1.5211,-1.4974,-1.4892,-1.478,0.0,0.0,0.0,0.0,0.0,0.0,0.0,2.0945,2.0647,1.733,2.0071,2.1136,1.7935,1.9335,2.0703,2.1183,2.062,2.0239,2.027,2.0108,2.021,2.0717,2.1243,2.1565,2.1666,2.2221,2.1513,1.9438,1.666,1.4506,1.2687,0.3693,-0.0892,-0.1669,-0.3791,-0.5747,-0.7464,-0.7907,-1.2285,-1.887,-1.7332,-2.349,-3.3399,-3.147,-2.9843,-2.8232,-2.5513,-2.2248,-1.898,-1.7891,-1.5828,-1.3276,-1.1059,-0.8013,0.0,0.0,0.0,0.0,0.0,0.0,0.0,0.0,0.0,0.0,0.0,0.0,0.0,0.0,0.0,0.0,0.0,0.0,0.0,-1.0591,-1.9695,-2.6273,-2.6677,-2.9002,-3.0456,-2.9851,-2.8655,-2.7869,-2.7837,-2.833,-2.8475,-2.7946,-2.9,-2.9454,-2.9005,-2.9489,0.0,-2.9065,-2.9199,-2.8841,-2.7947,-2.7001,-2.6178,-2.5433,0.0,0.0,-2.2272,-2.0988,-1.9622,-1.82,-1.7018,-1.5966,-1.4903,-1.3679,-1.2085,-1.0614,-1.184,-1.2833,-1.3347,-1.2236,-1.2557,-1.3458,0.0,0.0,0.0,0.0,0.0,0.0,0.0,2.0649,2.0566,1.8513,2.0675,2.1653,1.9674,2.0596,2.1373,2.1403,2.0442,2.007,2.0611,2.0582,2.0644,2.0794,2.1371,2.1711,2.1715,2.1974,2.0951,1.8497,1.6097,1.3639,1.1075,0.4242,0.1214,0.1458,-0.0077,-0.0754,-0.0805,-0.3471,-0.6198,-0.8601,-0.7967,-1.4417,-2.4563,-2.6057,-2.8275,-3.0128,-2.7185,-2.3084,-1.8571,-1.5259,-1.5118,-1.5254,-0.8939,-0.7411,-0.8057,0.0,0.0,0.0,0.0,0.0,0.0,0.0,0.0,0.0,0.0,0.0,0.0,0.0,0.0,-0.5512,0.0,0.0,-0.6924,-1.3059,-2.3381,-3.0119,-2.861,-2.8941,-2.9413,-2.9672,-2.8701,-2.824,-2.8758,-2.8614,-2.8351,-2.807,-2.8878,-2.9304,-2.9109,-2.9507,-2.9781,-2.9849,-2.9878,-2.9503,-2.8669,-2.7589,-2.6544,-2.5517,-2.415,-2.3153,-2.2423,-2.0637,-1.8943,-1.7431,-1.6126,-1.5039,-1.4133,-1.2483,-1.1172,-1.016,-0.9402,-0.9839,-1.0775,-0.9864,-1.0542,-1.1833,0.0,0.0,0.0,0.0,0.0,0.0,0.0,2.0408,2.0481,1.9503,2.1087,2.1996,2.1113,2.1615,2.1916,2.1674,2.0727,2.054,2.1461,2.1537,2.1315,2.0758,2.1579,2.1873,2.1532,2.1399,2.018,1.7734,1.5586,1.2636,0.8747,0.4997,0.3534,0.4085,0.3146,0.3795,0.5384,0.0738,0.0436,0.2986,0.2075,-0.2373,-0.919,-1.5542,-2.3772,-3.1492,-2.8458,-2.3936,-1.8534,-1.2856,-1.4252,-1.6839,-0.8253,-0.7805,-1.0455,-1.0545,-1.0295,0.0,0.0,0.0,0.0,0.0,0.0,0.0,0.0,0.0,-0.9171,-0.7581,-0.8689,-0.9466,-0.806,-0.6821,-0.8389,-1.5376,-2.4429,-3.0565,-3.0452,-2.866,-2.7727,-2.8937,-2.8442,-2.8412,-2.9477,-2.8592,-2.7906,-2.7948,-2.8511,-2.8851,-2.8762,-2.9357,-2.9874,-3.0267,-3.0398,-3.0099,-2.9318,-2.8155,-2.6968,-2.5788,-2.4321,-2.3333,-2.2726,-2.0653,-1.8738,-1.694,-1.5239,-1.3994,-1.31,-1.1566,-1.0629,-0.9992,-0.7835,-0.7645,-0.8495,-0.7959,-0.8718,-1.0004,0.0,0.0,0.0,0.0,0.0,0.0,0.0,0.0,2.0383,1.874,1.9378,1.9346,1.7642,1.7657,1.849,2.0252,2.0102,2.08,2.2823,2.263,2.2394,2.2264,2.2915,2.2552,2.0935,2.0591,1.9471,1.7511,1.5242,1.2738,0.9961,0.7974,0.7267,0.7702,0.7186,0.8129,0.9972,0.9047,1.0484,1.3336,1.4405,1.5576,1.5217,0.3235,-1.223,-2.7139,-2.4406,-2.0802,-1.6116,-0.867,-0.9295,-1.2313,-0.7588,-0.7592,-0.9838,-1.2547,-1.3821,-1.436,-1.4724,-1.2707,-1.0455,-1.0113,-0.888,-0.8036,0.0,0.0,-1.006,-0.9509,-1.0634,-1.1939,-1.2208,-1.4657,-1.757,-2.0297,-2.4437,-2.7175,-2.6752,-2.5468,-2.5135,-2.6652,-2.6623,-2.6483,-2.6652,-2.6601,-2.6312,-2.5712,-2.6901,-2.7653,-2.7601,-2.8716,-2.9506,-2.9861,-3.0156,-3.0245,-3.0087,-2.8312,-2.7257,-2.689,-2.4968,-2.3478,-2.2401,-2.1311,-1.9228,-1.6382,-1.4486,-1.2669,-1.1139,-1.136,-1.0076,-0.8057,-0.8396,-0.8221,-0.7639,-0.6763,-0.7086,-0.8039,0.0,0.0,0.0,0.0,0.0,0.0,0.0,0.0,0.0,2.007,2.0295,2.0356,2.0073,1.9876,2.0156,2.1173,2.0649,2.1027,2.2783,2.2107,2.189,2.2473,2.2144,2.137,2.0194,2.02,1.8603,1.5169,1.4765,1.2992,0.9898,0.9018,0.9408,1.0836,1.0501,1.1992,1.4849,1.4725,1.6158,1.8506,1.7825,1.819,1.7943,0.7606,-0.1834,-1.0218,-1.4916,-1.3584,0.0,0.0,-0.0688,-0.4728,-0.2335,-0.4942,-0.9375,-1.2264,-1.5049,-1.6695,-1.4644,-1.2689,-1.0912,0.0,-0.9329,-0.9674,-0.9597,-1.0942,-1.2207,-1.216,-1.4918,-1.7492,-1.7814,-1.9981,-2.1893,0.0,-2.378,-2.4261,-2.3028,-2.12,-2.0709,-2.2898,-2.2823,-2.3704,-2.6584,-2.6222,-2.5122,-2.3571,-2.5061,-2.5991,-2.5907,-2.7783,-2.9053,-2.9383,-2.9985,-3.0004,-2.9387,-2.7989,-2.7008,-2.6439,-2.4785,-2.36,-2.2856,-2.2112,-1.995,-1.6718,-1.4914,-1.342,-1.2128,-1.1592,-1.0517,-0.9144,-0.8639,-0.8374,-0.8211,-0.781,-0.8174,-0.8871,0.0,0.0,0.0,0.0,0.0,0.0,0.0,0.0,0.0,0.0,2.0793,2.0909,2.1344,2.0972,2.0822,2.109,2.0726,2.083,2.1673,2.1449,2.1311,2.1468,2.0863,2.0086,1.9218,1.9369,1.7733,1.4281,1.4858,1.3675,1.0801,1.0848,1.1813,1.3305,1.331,1.5171,1.8245,1.8035,1.9039,2.061,1.8931,1.7888,1.6523,0.979,0.5668,0.239,-0.6506,-0.7492,-0.32,0.5285,0.2068,-0.468,-0.0173,-0.4507,-1.1716,-1.3952,-1.67,-1.817,-1.4335,-1.2794,-1.1687,-0.9502,-1.0327,-1.1517,-1.1017,-1.3101,-1.5271,-1.5468,-1.8943,-2.2059,-2.2566,-2.3676,-2.4633,-2.4925,-2.5192,-2.4693,-2.2811,-1.9823,-1.8358,-1.9818,-1.8992,-1.961,-2.2886,-2.3207,-2.2792,-2.1518,-2.2299,-2.3018,-2.3446,-2.5727,-2.7326,-2.802,-2.9394,-2.9697,-2.8846,-2.7787,-2.69,-2.6155,-2.4755,-2.3951,-2.3631,-2.2073,-1.9875,-1.7209,-1.5497,-1.4054,-1.2842,-1.1884,-1.0942,-1.0053,-0.9036,-0.893,-0.9422,-0.9553,-0.9649,-0.9724,0.0,0.0,0.0,0.0,0.0,0.0,0.0,0.0,0.0,0.0,0.0,0.0,0.0,1.8566,1.8383,1.8856,1.982,2.0084,1.9351,2.1097,2.1197,1.9014,1.942,1.9173,1.7981,1.769,1.7132,1.6311,1.601,1.5034,1.3497,1.4554,1.4931,1.487,1.5852,1.7378,1.9165,1.8606,1.8884,1.9683,1.9104,1.7535,1.5232,1.2728,0.9256,0.4869,-0.1498,-0.4092,-0.3366,0.3981,-0.4943,-1.6866,-0.4013,-0.8263,-1.8228,-1.9266,-1.9684,-1.8842,-1.4715,-1.3548,-1.2996,-1.1186,-1.1805,-1.3027,-1.3609,-1.6582,-1.9264,-1.9602,-2.1846,-2.4163,-2.5448,-2.577,-2.6512,-2.8509,-3.0029,-3.0103,-2.7693,-2.3152,-1.9607,-1.8267,-1.5748,-1.375,0.0,-1.5895,-1.8471,-1.9659,-1.8237,-1.8152,-1.9944,-2.1983,-2.3786,-2.5375,-2.8153,-2.9396,-2.8897,-2.79,-2.7126,-2.6578,-2.5214,-2.4666,-2.472,-2.0786,-1.8609,-1.7791,-1.5965,-1.408,-1.2199,-1.196,-1.101,-0.9714,-0.9648,-1.028,-1.1278,-1.1642,-1.0908,-0.98,0.0,0.0,0.0,0.0,0.0,0.0,0.0,0.0,0.0,0.0,0.0,0.0,0.0,0.0,0.0,0.0,1.6851,1.7198,1.8398,1.7556,1.7273,1.7851,1.7661,1.6967,1.5643,1.6099,1.5385,1.3434,1.4524,1.4495,1.3458,1.5028,1.6159,1.6901,1.7061,1.8176,1.9829,1.9687,2.0241,2.1058,1.9008,1.7101,1.5012,1.1021,0.677,0.2235,0.0,-0.42,-0.2577,-0.0054,0.1332,0.2397,0.4999,-0.4584,-1.7131,-1.9009,-1.9153,-1.8516,-1.7456,-1.6404,-1.5674,-1.5993,-1.7273,-1.8529,-1.8731,-2.0898,-2.285,-2.3258,-2.3977,-2.5043,-2.6442,-2.6598,-2.7409,-3.0225,-3.1531,-3.127,-2.8601,-2.6456,-2.4173,-2.1464,-1.8931,0.0,0.0,0.0,0.0,-1.2705,-1.2519,-1.2775,-1.3647,-1.562,-1.7998,-2.0779,-2.3127,-2.5633,-2.8276,-2.7347,-2.6393,-2.546,-2.4889,-2.4548,-2.434,-2.197,-2.0286,-1.9111,-1.6866,-1.4832,-1.2954,-1.1495,-1.054,-0.9919,-0.9317,-0.9818,-1.0931,-1.1052,-1.1056,-1.1176,0.0,0.0,0.0,0.0,0.0,0.0,0.0,0.0,0.0,0.0,0.0,0.0,0.0,0.0,0.0,0.0,0.0,1.4637,1.5802,1.5008,1.4934,1.5957,1.5671,1.5019,1.4148,1.4399,1.3955,1.2563,1.3781,1.4419,1.4425,1.5999,1.718,1.7954,1.8267,1.9123,2.0312,1.9728,1.9863,2.0368,1.8758,1.6365,1.3439,1.0289,0.6513,0.0,-0.2055,-0.4192,-0.4477,-0.14,0.3485,0.777,0.4892,-0.5972,-1.7972,-1.9641,-1.9772,-1.9454,-1.977,-1.957,-1.9575,-2.0635,-2.2253,-2.3541,-2.3453,-2.4874,-2.6168,-2.6094,-2.5979,-2.6123,-2.704,-2.7032,-2.7458,-2.9406,-3.0649,-3.069,-2.875,-2.8044,-2.6925,-2.4765,-2.2108,0.0,0.0,0.0,0.0,-0.8284,-0.848,-0.8775,-0.8961,-1.1073,-1.2816,-1.4127,-1.9021,-2.359,-2.7706,-2.6701,-2.5661,-2.4652,-2.4587,-2.4348,-2.3905,-2.2521,-2.116,-1.9762,-1.7076,-1.4971,-1.3171,-1.0967,-0.9867,-0.9544,-0.8873,-0.9407,-1.0609,-1.0761,-1.136,-1.2233,0.0,0.0,0.0,0.0,0.0,0.0,0.0,0.0,0.0,0.0,0.0,0.0,0.0,0.0,0.0,0.0,0.0,0.0,1.1759,1.3272,1.3934,1.3297,1.3335,1.3314,1.3182,1.2591,1.2769,1.3763,1.3869,1.4753,1.6433,1.7517,1.8142,1.8363,1.9592,2.0273,2.0512,1.899,1.8041,1.7663,1.8261,1.5326,1.0621,1.0696,0.8521,0.512,0.2112,-0.3624,-0.853,-0.0614,0.0672,-0.1484,-0.4245,-1.2399,-2.0947,-2.1213,-2.1539,-2.1793,-2.1885,-2.3052,-2.4423,-2.5179,-2.6596,-2.7723,-2.7466,-2.8367,-2.9,-2.8046,-2.7557,-2.7277,-2.7183,0.0,-2.6679,-2.658,-2.794,-2.8941,-2.8694,-2.8269,-2.7956,0.0,0.0,0.0,0.0,0.0,0.0,-0.7076,0.0,-0.6441,-0.63,-0.8408,-0.8521,-0.61,-1.5929,-2.3112,-2.7,-2.5913,-2.4964,-2.4208,-2.4393,-2.4137,-2.3505,-2.2393,-2.1177,-1.9777,-1.6689,-1.4503,-1.2947,-1.0442,-0.9175,-0.8739,-0.828,-0.899,-1.0236,-1.0786,-1.1664,-1.2561,0.0,0.0,0.0,0.0,0.0,0.0,0.0,0.0,0.0,0.0,0.0,0.0,0.0,0.0,0.0,0.0,0.0,0.0,0.9198,0.8949,0.9224,1.0199,0.999,1.0119,1.065,1.0425,1.1184,1.307,1.3418,1.5137,1.8036,1.9277,2.0418,2.1445,2.1436,2.1267,2.098,2.0175,1.8083,1.5367,1.5788,1.3811,1.0599,1.065,0.9211,0.6976,0.5855,-0.0039,-0.6962,-0.4835,-0.8825,-1.4214,-1.1627,-1.7406,-2.4419,-2.0818,-2.2091,-2.5213,-2.7736,-2.8107,-2.8327,-3.0608,-3.1032,-3.0593,-2.9445,-2.8753,-2.8168,-2.7262,-2.5745,-2.4679,-2.5,0.0,0.0,-2.7127,-2.8348,0.0,-3.091,-3.1511,0.0,-2.9616,0.0,-2.5553,-2.2977,-2.0394,0.0,0.0,-0.9674,-0.7363,-0.7271,-0.7471,-0.638,-0.367,-1.2614,-1.9461,-2.3521,-2.4088,-2.4395,-2.4504,-2.4247,-2.4077,-2.3967,-2.2337,-2.133,-2.0686,-1.7435,-1.5164,-1.3472,-1.0424,-0.9101,-0.8863,-0.765,-0.7897,-0.8893,-0.9003,-0.9243,-0.9498,0.0,0.0,0.0,0.0,0.0,0.0,0.0,0.0,0.0,0.0,0.0,0.0,0.0,0.0,0.0,0.0,0.0,0.0,0.0,0.702,0.7208,0.8,0.8092,0.8023,0.782,0.7797,0.8383,0.9528,1.0377,1.3415,1.8534,1.9824,2.102,2.2097,2.1635,2.1327,2.1109,2.0217,1.844,0.0,0.0,1.4719,1.228,1.3509,1.2433,1.0182,0.9602,0.6194,0.2788,0.809,0.613,0.0521,-0.4825,-1.1727,-1.8158,-1.9632,0.0,-2.8616,-3.1432,-3.2166,-3.2485,-3.4065,-3.3509,-3.2077,-3.0076,-2.8606,-2.7275,-2.5815,-2.4414,-2.3493,-2.3769,-2.3714,0.0,0.0,0.0,0.0,-3.0501,-3.121,-3.1542,0.0,-3.0284,0.0,-2.6066,-2.4034,-2.1681,0.0,-1.4018,-1.0665,-0.9597,-0.9843,-0.9835,-0.9265,-1.4367,-1.8838,-2.2427,-2.3329,-2.3881,-2.4127,-2.4103,-2.3689,-2.2944,-2.2136,-2.1181,-1.9997,0.0,-1.4722,-1.2675,-0.9805,-0.8291,-0.7659,-0.6226,-0.6406,-0.7233,-0.6407,-0.6304,-0.6457,0.0,0.0,0.0,0.0,0.0,0.0,0.0,0.0,0.0,0.0,0.0,0.0,0.0,0.0,0.0,0.0,0.0,0.0,0.0,0.0,0.6531,0.6393,0.67,0.6416,0.544,0.5492,0.5886,0.6623,0.7636,1.1777,1.8856,1.9808,2.0745,2.1611,2.1246,2.1153,2.1161,1.9959,1.9004,1.8341,1.8247,1.6663,1.4672,0.0,1.6778,1.445,1.3916,1.3929,1.585,2.6687,2.9949,2.6393,0.863,-0.1532,-0.8796,-1.8167,-2.6078,-3.2177,-3.4164,-3.5375,-3.6021,-3.5853,-3.4425,-3.2352,-2.9652,-2.7848,-2.6168,-2.4099,0.0,-2.3011,-2.3052,-2.3611,-2.4121,-2.4277,0.0,-2.8503,-2.886,-2.9395,-3.0549,-3.2691,-3.2272,-3.1065,-2.9179,-2.7666,-2.5791,-2.3342,-1.9593,-1.6139,-1.3292,-1.4188,-1.5867,-1.8125,-1.8719,-2.0222,-2.2773,-2.3159,-2.3379,-2.3419,-2.3759,-2.3063,-2.1474,-2.1672,-2.0681,-1.8668,0.0,0.0,-1.1697,-0.9321,-0.7531,-0.6109,-0.4719,-0.4646,-0.5142,-0.3461,-0.3167,-0.3438,0.0,0.0,0.0,0.0,0.0,0.0,0.0,0.0,0.0,0.0,1.2052,1.1857,0.0,0.0,0.0,0.0,0.0,0.0,0.0,0.0,0.0,0.4792,0.4117,0.4319,0.5614,0.5784,0.8154,1.2906,1.2516,1.5384,2.1185,2.0366,2.08,2.234,2.2527,2.2388,2.198,2.1468,2.0011,1.8034,1.7748,1.6956,1.615,1.837,0.0,0.0,2.0801,2.1527,2.2749,2.6924,3.1143,3.1834,1.5375,0.149,-1.0148,-1.7416,-2.7361,-3.6374,-3.8089,-3.7821,-3.6786,-3.5666,-3.3273,-3.0481,-2.7774,-2.5765,0.0,0.0,-2.2131,-2.1965,-2.2252,-2.2873,-2.3682,-2.4639,0.0,0.0,0.0,0.0,-3.122,0.0,0.0,0.0,0.0,0.0,0.0,0.0,0.0,-2.4619,-1.9227,-1.8825,-1.9491,-2.1168,-2.187,-2.2529,-2.3277,-2.2773,-2.2683,-2.2997,-2.2634,-2.2238,-2.1765,-2.0589,-1.9512,-1.8521,-1.6939,0.0,-1.3283,-1.0709,-0.837,-0.6225,-0.4782,-0.3317,-0.2067,-0.1755,-0.1195,-0.0316,0.0,0.0,0.0,0.0,0.0,0.0,0.0,1.0353,1.0982,1.0392,1.1094,1.0805,0.846,0.745,0.0,0.0,0.0,0.0,0.0,0.0,0.0,0.0,0.2973,0.3268,0.405,0.518,0.7452,1.0955,0.0,1.5913,1.9068,1.9887,2.0782,2.1794,2.1896,2.1753,2.1381,2.1496,2.0688,1.9287,1.9136,1.8591,1.8031,1.9421,0.0,0.0,2.3371,2.3694,2.4264,2.6097,2.8955,2.9074,1.3814,0.2561,-0.7582,-2.0763,-3.0844,-3.8098,-3.9814,-3.9071,-3.7452,-3.5941,-3.2952,-2.9594,-2.6615,0.0,0.0,0.0,-2.1036,-2.1101,-2.1661,-2.2495,0.0,0.0,0.0,0.0,0.0,0.0,0.0,0.0,0.0,0.0,0.0,0.0,0.0,0.0,0.0,-2.8084,-2.3251,-2.1779,-2.1495,-2.2501,-2.2375,-2.2619,-2.3393,-2.2664,-2.2476,-2.2784,-2.1928,-2.1379,-2.102,-1.9699,-1.8819,-1.8252,-1.6842,0.0,-1.2742,-1.074,-0.8307,-0.5693,-0.4084,-0.2257,-0.0475,0.0554,0.166,0.2753,0.0,0.0,0.0,0.0,0.0,0.0,0.0,0.9361,1.0643,1.0247,1.0403,0.9723,0.7607,0.6959,0.6293,0.0,0.0,0.0,0.0,0.0,0.0,0.0,0.0,0.0,0.0,0.0,0.0,0.931,1.3329,0.0,0.0,0.0,0.0,0.0,2.0511,2.0418,2.0261,2.0844,2.0775,0.0,0.0,1.988,0.0,0.0,0.0,0.0,0.0,2.3927,2.4034,2.5046,2.6312,2.4861,0.9867,0.2176,-0.4909,-2.3155,-3.3031,-3.8371,-3.9779,-3.9115,-3.7533,-3.5596,-3.2451,-2.8947,-2.5579,-2.3302,0.0,-2.0404,-2.0246,-2.0485,-2.1116,-2.1888,-2.2514,0.0,-2.3226,-2.4071,0.0,0.0,0.0,0.0,0.0,0.0,0.0,0.0,0.0,0.0,0.0,0.0,-2.597,-2.4097,-2.3327,-2.3748,-2.254,-2.2582,-2.3998,-2.3175,-2.2654,-2.2406,-2.146,-2.0634,-1.9921,-1.9038,-1.8474,-1.8045,-1.6856,0.0,0.0,-1.0955,-0.8417,-0.5405,-0.365,-0.1493,0.0935,0.2589,0.4012,0.5176,0.0,0.0,0.0,0.0,0.0,0.0,0.0,0.7957,0.9365,1.0114,1.049,0.9811,0.7482,0.6098,0.5385,0.0,0.0,0.0,0.0,0.0,0.0,0.0,0.0,0.0,0.0,0.0,0.0,1.4513,1.5516,0.0,0.0,0.0,0.0,0.0,0.0,1.9079,1.9094,1.9815,0.0,0.0,0.0,0.0,0.0,0.0,0.0,0.0,0.0,2.3811,2.3783,2.4272,2.5285,2.3431,0.6756,-0.0116,-0.5038,-2.045,0.0,0.0,-3.7427,-3.7247,-3.6367,-3.3589,-3.0945,-2.8056,-2.4417,0.0,-2.0843,-1.9925,-2.007,-2.0299,-2.04,-2.0638,-2.111,-2.204,-2.2536,-2.3117,0.0,0.0,0.0,0.0,0.0,0.0,0.0,0.0,0.0,0.0,0.0,0.0,-2.7227,-2.6365,-2.6,-2.6152,-2.4032,-2.3871,-2.594,-2.484,-2.3369,-2.1534,-2.1166,-2.0217,-1.8758,-1.8824,-1.8602,-1.8156,-1.737,0.0,0.0,-1.278,-0.9655,-0.6221,-0.4548,-0.1041,0.3132,0.3282,0.4596,0.6427,0.0,0.0,0.0,0.0,0.0,0.0,0.4855,0.7072,0.9062,1.0548,1.0734,0.9926,0.7911,0.6384,0.5228,0.4544,0.0,0.0,0.0,0.0,0.0,0.0,0.0,0.0,0.0,0.0,1.1805,1.6155,1.7162,0.0,0.0,0.0,0.0,0.0,0.0,0.0,1.7479,1.8615,0.0,0.0,0.0,0.0,0.0,0.0,0.0,0.0,0.0,0.0,2.2079,2.1406,2.1115,1.8553,0.4326,-0.1043,-0.528,0.0,-2.8874,-3.1881,-3.2586,-3.3556,-3.3708,-3.0929,-2.9413,-2.774,-2.4452,0.0,-2.0911,-1.9507,-1.9609,-1.9859,-1.9543,-2.026,-2.1126,-2.1645,-2.2556,-2.3324,-2.3721,0.0,0.0,0.0,0.0,0.0,0.0,0.0,0.0,0.0,0.0,0.0,-2.9407,-2.7288,-2.603,-2.5847,-2.4805,-2.4861,-2.6083,-2.5272,-2.4245,-2.3063,-2.2134,-2.1047,-1.985,-1.9182,-1.8843,-1.8629,-1.7885,0.0,0.0,-1.3318,-1.0423,-0.7091,-0.4827,-0.1768,0.1532,0.2123,0.325,0.4496,0.0,0.0,0.0,0.0,0.0,0.2176,0.4281,0.6664,0.8841,1.0598,1.0607,0.9841,0.8269,0.6682,0.5194,0.3953,0.4086,0.0,0.0,0.0,0.0,0.0,0.0,0.0,0.0,0.0,1.2976,1.6731,1.7813,1.8095,0.0,0.0,0.0,0.0,0.0,0.0,0.0,0.0,0.0,0.0,0.0,0.0,0.0,0.0,0.0,0.0,0.0,0.0,0.0,0.0,0.0,1.6078,0.7327,0.2434,-0.3435,-2.0482,-2.6109,-2.7013,-2.7864,-2.9644,-3.0661,-2.8329,-2.7802,-2.7126,0.0,0.0,-2.1083,-1.9606,-1.95,-1.9566,-1.9207,-2.0035,-2.0893,-2.1303,-2.2192,-2.2987,-2.3242,-2.3692,0.0,0.0,0.0,0.0,0.0,0.0,0.0,0.0,0.0,0.0,0.0,-2.8317,-2.6843,-2.6502,-2.6179,-2.6241,-2.6703,-2.5805,-2.5094,-2.4564,-2.3109,-2.1796,-2.068,-1.9852,-1.9164,-1.8643,0.0,0.0,0.0,-1.3573,-1.1023,-0.7946,-0.5669,-0.302,-0.0441,0.0758,0.1835,0.2738,0.0,0.0,0.0,0.0,0.0,0.0,0.4778,0.6759,0.8545,1.002,0.997,0.9449,0.8511,0.6791,0.5215,0.4007,0.4209,0.0,0.0,0.0,0.0,0.0,0.0,0.0,0.0,0.0,1.317,1.6598,1.7214,1.7273,1.6779,1.5652,1.5374,0.0,0.0,0.0,0.0,0.0,0.0,0.0,0.0,0.0,0.0,0.0,0.0,0.0,0.0,0.0,0.0,0.0,0.0,0.0,0.0,1.1514,0.1271,-1.5793,-2.2185,-2.3779,-2.3846,-2.5746,-2.7392,-2.5915,-2.6034,-2.5952,0.0,-2.2366,-2.1254,-2.0452,-1.9965,-1.969,-1.969,-1.9711,-1.998,-2.0862,-2.124,-2.1645,-2.222,0.0,0.0,0.0,0.0,0.0,0.0,0.0,0.0,0.0,0.0,0.0,0.0,-2.9693,-2.9306,-2.8971,-2.8452,-2.8224,-2.8358,-2.6783,-2.5836,-2.5484,-2.3863,-2.2267,-2.0676,-2.0776,-1.9716,0.0,0.0,0.0,0.0,-1.364,-1.1436,-0.8885,-0.726,-0.4878,-0.214,-0.0429,0.0868,0.1941,0.0,0.0,0.0,0.0,0.0,0.0,0.0,0.7073,0.8282,0.9987,0.9538,0.8579,0.7312,0.595,0.4696,0.3593,0.3702,0.0,0.0,0.0,0.0,0.0,0.0,0.0,0.0,0.0,1.4151,1.7072,1.6961,1.6727,1.6448,1.6077,1.5725,1.5329,1.5507,0.0,0.0,0.0,0.0,0.0,0.0,0.0,0.0,0.0,0.0,0.0,0.0,0.0,0.0,0.0,0.0,0.0,0.0,0.0,0.0,-1.3358,-1.5843,-1.6729,-1.8495,-2.1743,-2.4262,-2.284,-2.4263,-2.5515,-2.3543,-2.227,-2.1193,-2.0047,-1.9752,-1.9536,-1.903,-1.9364,-1.9802,-2.0065,-2.1166,-2.2085,0.0,0.0,0.0,0.0,0.0,0.0,0.0,0.0,0.0,0.0,0.0,0.0,0.0,-3.0385,-2.9628,-2.9018,-2.847,-2.8406,-2.8815,-2.7933,-2.7075,-2.6145,-2.4607,-2.3436,-2.2564,-2.136,0.0,0.0,0.0,0.0,0.0,-1.4191,-1.2295,-0.9901,-0.8134,-0.6192,-0.4229,-0.307,-0.2094,-0.1153,0.0,0.0,0.0,0.0,0.0,0.0,0.0,0.7529,0.8318,0.9722,0.9213,0.8203,0.6816,0.6094,0.5169,0.3827,0.4138,0.0,0.0,0.0,0.0,0.0,0.0,0.0,1.3066,1.3313,1.4803,1.7648,1.693,1.6652,1.6818,1.6278,1.5866,1.5536,1.5536,1.5881,0.0,0.0,0.0,0.0,0.0,0.0,2.0377,0.0,0.0,0.0,0.0,0.0,0.0,0.0,0.0,0.0,0.0,0.0,0.0,0.0,-1.0593,-1.6173,-1.6406,-1.9252,-2.2,-2.137,-2.3168,0.0,-2.3364,-2.2364,-2.1406,-2.0369,-2.0085,-1.9818,-1.9156,-1.9667,-2.0149,-2.0067,-2.1305,-2.2293,0.0,0.0,0.0,0.0,0.0,0.0,0.0,0.0,0.0,0.0,0.0,0.0,0.0,-3.0725,-2.9986,-2.9686,-2.8899,-2.8652,-2.8994,-2.8461,-2.7707,-2.6709,-2.525,-2.4068,-2.3083,-2.177,0.0,0.0,0.0,0.0,0.0,-1.4132,-1.2631,-1.0822,-0.9125,-0.7683,-0.6453,-0.4986,-0.4112,-0.3322,0.0,0.0,0.0,0.0,0.0,0.0,0.0,0.8029,0.8533,0.9262,0.8978,0.8182,0.6909,0.6819,0.6187,0.4587,0.0,0.0,0.0,0.0,0.0,0.0,0.0,0.0,1.4363,1.3901,1.5109,1.8115,1.6985,1.6893,1.7698,1.6355,1.5918,1.6285,1.5536,1.5824,1.6975,0.0,0.0,0.0,0.0,0.0,0.0,0.0,0.0,0.0,0.0,0.0,0.0,0.0,0.0,0.0,0.0,0.0,0.0,0.0,0.0,0.0,0.0,-1.8411,-2.057,-2.1167,-2.2568,-2.3655,-2.31,-2.2439,0.0,-2.1134,-2.076,-2.0369,-1.9869,-2.0443,-2.0939,-2.074,-2.1595,0.0,0.0,0.0,0.0,0.0,0.0,0.0,0.0,0.0,0.0,0.0,0.0,0.0,0.0,-3.0655,-3.0272,-3.071,-2.9612,-2.8994,-2.8989,-2.8425,-2.7777,-2.7034,-2.574,-2.4225,-2.2538,-2.1895,0.0,0.0,0.0,0.0,0.0,-1.364,-1.2512,-1.164,-1.0028,-0.9166,-0.8505,-0.6355,-0.5342,-0.4728,0.0,0.0,0.0,0.0,0.0,0.0,0.0,0.0,0.0,0.0,0.8107,0.7251,0.6628,0.5736,0.5117,0.0,0.0,0.0,0.0,0.0,0.0,0.0,0.0,0.0,1.369,1.3896,1.5037,1.7223,1.6431,1.672,1.7983,1.7195,1.6763,1.658,1.62,1.6638,1.7699,1.8596,0.0,0.0,0.0,0.0,0.0,0.0,0.0,0.0,2.01,1.9705,0.0,0.0,0.0,0.0,0.0,0.0,0.0,0.0,-1.7634,-1.7623,-2.0246,0.0,-2.0733,-2.0525,-2.1207,-2.1904,0.0,-2.1067,-2.0602,-2.1178,-2.0559,-2.0008,-2.032,-2.0733,-2.1207,-2.1807,-2.2152,0.0,0.0,0.0,0.0,0.0,0.0,0.0,0.0,0.0,0.0,0.0,0.0,0.0,0.0,-3.0077,-3.0024,-2.9899,-2.932,-2.8991,-2.8996,-2.8102,-2.7308,-2.6604,-2.5142,-2.4004,-2.3186,-2.1259,0.0,0.0,0.0,0.0,-1.5187,-1.364,-1.2512,-1.171,-1.0667,-0.9668,-0.874,-0.8167,-0.7363,-0.6367,0.0,0.0,0.0,0.0,0.0,0.0,0.0,0.0,0.0,0.0,0.0,0.0,0.0,0.0,0.0,0.0,0.0,0.0,0.0,0.0,0.0,0.0,0.0,1.262,1.3811,1.4256,1.5324,1.7085,1.6552,1.7041,1.8513,1.7769,1.7339,1.7149,1.6894,1.7231,1.8042,1.8746,1.9519,0.0,2.0096,0.0,0.0,0.0,0.0,0.0,1.9932,1.9663,0.0,1.9031,1.9188,1.9151,0.0,0.0,0.0,0.0,-1.4311,-1.7061,-1.9932,-2.0983,-2.1181,-2.0882,-2.1652,-2.2373,-2.1924,-2.1072,-2.0541,-2.1084,-2.1027,-2.0879,-2.0791,-2.1231,-2.1493,-2.1163,-2.1778,0.0,0.0,0.0,0.0,0.0,0.0,0.0,0.0,0.0,0.0,0.0,0.0,0.0,0.0,-2.9862,-2.9868,-2.9893,-2.9302,-2.8997,-2.8998,-2.8004,-2.7143,-2.637,-2.5212,-2.3825,-2.2264,-2.0707,-1.9625,0.0,0.0,0.0,-1.5509,-1.3044,-1.2071,-1.198,-1.0835,-0.9916,-0.9191,-0.8877,-0.8331,-0.7498,0.0,0.0,0.0,0.0,0.0,0.0,0.0,0.0,0.0,0.0,0.0,0.0,0.0,0.0,0.0,0.0,0.0,0.0,0.0,0.0,0.0,0.0,1.2403,1.3418,1.4296,1.4724,1.5713,1.7355,1.6967,1.7585,1.9067,1.8223,1.7708,1.7474,1.724,1.7419,1.7951,1.8642,1.9397,2.0134,1.9845,0.0,0.0,0.0,0.0,0.0,0.0,0.0,0.0,1.9655,1.9263,1.8627,1.9017,0.0,0.0,0.0,0.0,0.0,-1.7213,-1.9242,-2.1035,-2.1035,-2.2042,-2.2758,-2.1711,-2.098,-2.0557,-2.075,-2.1385,-2.169,-2.0894,-2.152,0.0,0.0,0.0,0.0,0.0,0.0,0.0,0.0,0.0,0.0,0.0,0.0,0.0,0.0,0.0,0.0,0.0,-2.9669,-2.9699,-3.0073,-2.9435,-2.8989,-2.8796,-2.7977,-2.7096,-2.6152,-2.5211,-2.3427,-2.0886,-1.988,-1.8952,0.0,0.0,0.0,-1.5636,-1.2413,-1.1475,-1.2041,-1.058,-0.99,-0.9648,-0.9149,-0.8783,-0.8392,0.0,0.0,0.0,0.0,0.0,0.0,0.0,0.0,0.0,0.0,0.0,0.0,0.0,0.0,0.0,0.0,0.0,0.0,0.0,0.0,0.0,1.2896,1.329,1.3907,1.477,1.4972,1.5898,1.7547,1.7321,1.8,1.9499,1.8789,1.7745,1.6435,1.6392,1.6644,1.71,1.7502,1.8544,1.9965,2.0186,0.0,0.0,0.0,0.0,0.0,0.0,0.0,0.0,1.9381,1.8794,1.7663,1.6517,0.0,0.0,0.0,0.0,0.0,-1.1984,-1.5313,-1.812,-1.8736,-1.9005,-1.8876,-1.7893,-1.7989,-1.8591,-1.9697,-1.9993,-2.0017,-1.9684,-2.067,-2.1456,0.0,0.0,0.0,0.0,0.0,0.0,0.0,0.0,0.0,0.0,0.0,0.0,0.0,0.0,0.0,0.0,-2.8948,-2.9215,-2.9514,-2.9386,-2.8876,-2.7908,-2.7869,-2.7061,-2.5499,-2.3756,-2.2199,-2.0813,-1.816,-1.7133,-1.7303,0.0,-1.444,-1.435,-1.2532,-1.1487,-1.1039,-1.0147,-0.9726,-0.9686,-0.9609,-0.9538,-0.9304,0.0,0.0,0.0,0.0,0.0,0.0,0.0,0.0,0.0,0.0,0.0,0.0,0.0,0.0,0.0,0.0,0.0,0.0,0.0,0.0,1.2346,1.3728,1.4185,1.4602,1.4999,1.5576,1.6417,1.7555,1.7824,1.8526,1.9582,1.8594,1.7608,1.6669,1.6088,1.5804,1.5829,1.6927,1.8388,1.9947,0.0,0.0,0.0,0.0,0.0,0.0,0.0,0.0,0.0,0.0,1.8418,1.7322,1.6114,0.0,0.0,0.0,0.0,0.0,-1.0538,-1.3491,-1.5837,-1.6686,-1.806,-1.9185,-1.9094,-1.8949,-1.9004,-1.9596,-1.9693,-1.9506,0.0,0.0,0.0,0.0,0.0,0.0,0.0,0.0,0.0,0.0,0.0,0.0,0.0,0.0,0.0,0.0,0.0,0.0,0.0,0.0,-2.8463,-2.8683,-2.86,-2.803,-2.7004,-2.6738,-2.5883,-2.4478,-2.2838,-2.131,-1.9861,-1.7529,-1.6243,-1.5717,0.0,-1.2613,-1.2712,-1.0929,-1.0141,-0.9953,-0.9595,-0.9212,-0.8941,-0.9504,-0.9786,-0.9714,0.0,0.0,0.0,0.0,0.0,0.0,0.0,0.0,0.0,0.0,0.0,0.0,0.0,0.0,0.0,0.0,0.0,0.0,0.0,1.192,1.3092,1.4243,1.481,1.5206,1.5424,1.6132,1.6939,1.787,1.8289,1.8808,1.9387,1.8489,1.7574,1.6631,1.5731,1.5144,1.4913,1.615,1.7678,1.9233,0.0,0.0,0.0,0.0,0.0,0.0,0.0,0.0,0.0,0.0,0.0,0.0,0.0,0.0,0.0,0.3704,-0.1123,-0.6002,-0.9214,-1.177,-1.3688,-1.4544,-1.6846,-1.8995,-1.9361,-1.9113,-1.8826,-1.8927,-1.8929,0.0,0.0,0.0,0.0,0.0,0.0,0.0,0.0,0.0,0.0,0.0,0.0,0.0,0.0,0.0,0.0,0.0,0.0,0.0,0.0,0.0,-2.7478,-2.7712,-2.7627,-2.7119,-2.6156,-2.5416,-2.459,-2.367,-2.2003,-2.0375,-1.8796,-1.6769,-1.5326,-1.4277,-1.1849,-1.0973,-1.1098,-0.9266,-0.8523,-0.8587,-0.8563,-0.8373,-0.8109,-0.9143,-0.9496,-0.9346,0.0,0.0,0.0,0.0,0.0,0.0,0.0,0.0,0.0,0.0,0.0,0.0,0.0,0.0,0.0,0.0,0.0,0.0,0.0,1.2787,1.3942,1.4545,1.4908,1.5501,1.6371,1.6464,1.7324,1.8974,1.8668,1.8626,1.8855,1.907,1.7814,1.533,1.4995,1.4873,1.4893,1.468,1.5553,1.7082,1.7666,0.0,0.0,0.0,0.0,0.0,0.0,0.0,0.0,0.0,0.0,0.0,0.0,0.0,0.8151,0.5589,0.1342,-0.3204,-0.6061,-0.9083,-1.1542,-1.212,-1.3966,-1.5488,-1.4927,-1.5452,-1.6184,-1.6543,-1.6595,0.0,0.0,0.0,0.0,0.0,0.0,0.0,0.0,0.0,0.0,0.0,0.0,0.0,0.0,0.0,0.0,0.0,0.0,0.0,0.0,0.0,0.0,-2.6585,-2.6822,-2.6432,-2.5387,-2.4242,-2.367,-2.367,-2.1033,-1.9214,-1.8179,-1.5291,-1.3931,-1.3758,-1.1693,-1.0436,-0.9724,-0.8285,-0.7315,-0.6771,-0.6771,-0.7023,-0.7472,-0.8624,-0.8483,-0.7721,0.0,0.0,0.0,0.0,0.0,0.0,0.0,0.0,0.0,0.0,0.0,0.0,0.0,0.0,0.0,0.0,0.0,0.0,0.0,1.3626,1.4015,1.4742,1.4993,1.5467,1.6233,1.6857,1.7485,1.8111,1.8647,1.899,1.909,1.806,1.7266,1.6675,1.4828,1.3803,1.3528,1.4457,1.5081,1.557,1.7021,1.7104,0.0,0.0,0.0,0.0,0.0,0.0,0.0,0.0,1.7421,1.6241,1.4918,1.1977,0.8557,0.6325,0.2542,-0.1595,-0.4669,-0.7685,-1.0282,-1.1539,-1.2301,-1.2768,-1.3126,-1.3581,-1.4287,-1.5377,-1.5428,0.0,0.0,0.0,0.0,0.0,0.0,0.0,0.0,0.0,0.0,0.0,0.0,0.0,0.0,0.0,0.0,0.0,0.0,0.0,0.0,0.0,0.0,-2.5,-2.543,-2.5084,-2.3876,-2.3239,-2.2276,-2.0955,-1.9013,-1.7746,-1.6999,-1.4365,-1.2908,-1.2406,-1.083,-0.9518,-0.8429,-0.7906,-0.6945,-0.5923,-0.5923,-0.6506,-0.7359,-0.7805,-0.7901,-0.7782,0.0,0.0,0.0,0.0,0.0,0.0,0.0,0.0,0.0,0.0,0.0,0.0,0.0,0.0,0.0,0.0,0.0,0.0,1.4489,1.4206,1.4291,1.4863,1.4986,1.5254,1.5714,1.6601,1.7311,1.7852,1.8843,1.922,1.8948,1.7788,1.717,1.6956,1.5034,1.3939,1.363,1.4821,1.5073,1.4841,1.6435,1.6558,0.0,0.0,0.0,0.0,0.0,0.0,0.0,0.0,1.6685,1.5521,1.408,1.1399,0.8365,0.5932,0.2626,-0.0871,-0.3807,-0.6691,-0.9171,-1.0276,-1.0684,-1.1002,-1.1645,-1.2363,-1.3259,-1.4541,-1.4624,-1.4819,-1.5856,0.0,0.0,0.0,0.0,0.0,0.0,0.0,0.0,0.0,0.0,0.0,0.0,0.0,0.0,0.0,0.0,0.0,0.0,0.0,0.0,0.0,-2.3993,-2.3762,-2.288,-2.2279,-2.0882,-1.8651,-1.7076,-1.6065,-1.5437,-1.3392,-1.2073,-1.1323,-0.9769,-0.8534,-0.7593,-0.6956,-0.6091,-0.5164,-0.5164,-0.5718,-0.6579,-0.6878,-0.7021,-0.7116,0.0,0.0,0.0,0.0,0.0,0.0,0.0,0.0,0.0,0.0,0.0,0.0,0.0,0.0,0.0,0.0,0.0,0.0,1.3721,1.4491,1.4899,1.4902,1.4907,1.4909,1.4904,1.5562,1.6801,1.8604,1.9269,1.915,1.8305,1.8645,1.7648,1.5608,1.5602,1.5618,1.562,1.5752,1.5462,1.5009,1.5873,1.4763,1.2705,0.0,0.0,0.0,0.0,0.0,0.0,0.0,1.6164,1.5019,1.2608,1.007,0.7377,0.4379,0.1564,-0.1065,-0.33,-0.6059,-0.8191,-0.7883,-0.9013,-1.0215,-1.0298,-1.1644,-1.3125,-1.3924,-1.4089,-1.4383,-1.5304,0.0,0.0,0.0,0.0,0.0,0.0,0.0,0.0,0.0,0.0,0.0,0.0,0.0,0.0,0.0,0.0,0.0,0.0,0.0,0.0,0.0,-2.2608,-2.2574,-2.2574,-2.1315,-1.9538,-1.7267,-1.5343,-1.4178,-1.3533,-1.2347,-1.1408,-1.0661,-0.8495,-0.7606,-0.7446,-0.532,-0.4519,-0.4519,-0.4519,-0.465,-0.4975,-0.5868,-0.5845,-0.5355,0.0,0.0,0.0,0.0,0.0,0.0,0.0,0.0,0.0,0.0,0.0,0.0,0.0,0.0,0.0,0.0,0.0,0.0,1.331,1.4204,1.475,1.4885,1.4981,1.5004,1.4898,1.6108,1.731,1.8465,1.885,1.8893,1.8626,1.8275,1.7291,1.5873,1.582,1.6028,1.6377,1.6148,1.6227,1.6464,1.6564,1.604,1.5122,0.0,0.0,0.0,0.0,0.0,0.0,0.0,0.0,0.0,0.8621,0.6635,0.4868,0.2817,0.1066,-0.0669,-0.2618,-0.5055,-0.7081,-0.7311,0.0,-0.9398,-1.0413,-1.1104,-1.1853,-1.3002,-1.325,-1.3346,-1.3606,0.0,0.0,0.0,0.0,0.0,0.0,0.0,0.0,0.0,0.0,0.0,0.0,0.0,0.0,0.0,0.0,0.0,0.0,0.0,0.0,0.0,-2.1357,-2.1335,-2.0272,-1.9831,-1.8084,-1.5102,-1.3734,-1.2805,-1.2203,-1.0444,-0.9504,-0.9252,-0.7629,-0.6622,-0.6013,-0.4333,-0.4012,-0.446,-0.3901,-0.4125,-0.4831,-0.5175,-0.484,-0.4296,0.0,0.0,0.0,0.0,0.0,0.0,0.0,0.0,0.0,0.0,0.2671,0.3612,0.0,0.0,0.0,0.0,0.0,0.0,0.0,1.4005,1.4703,1.4888,1.4997,1.4999,1.4822,1.6064,1.6947,1.7491,1.8507,1.8854,1.8592,1.8194,1.744,1.6447,1.6516,1.6747,1.7059,1.704,1.7064,1.7082,1.6995,1.6591,1.5889,0.0,0.0,0.0,0.0,0.0,0.0,0.0,0.0,0.0,0.5215,0.2757,0.0797,0.0041,-0.07,-0.149,-0.2695,-0.4333,0.0,-0.628,-0.7326,-0.8585,-0.9883,0.0,0.0,0.0,-1.2125,-1.2059,0.0,0.0,0.0,0.0,0.0,0.0,0.0,0.0,0.0,0.0,0.0,0.0,0.0,0.0,0.0,0.0,0.0,0.0,0.0,0.0,0.0,0.0,-1.9725,-1.9451,-1.8389,-1.781,-1.6169,-1.3493,-1.2054,-1.0921,-1.0046,-0.8815,-0.8094,-0.7794,-0.6681,-0.5764,-0.4999,-0.384,-0.379,-0.4408,-0.3677,-0.3755,-0.4296,-0.4375,-0.3942,-0.3341,0.0,0.0,0.0,0.0,0.0,0.0,0.0,0.0,0.0,0.0,0.1838,0.305,0.0,0.0,0.0,0.0,0.0,0.0,0.0,1.3845,1.4653,1.4897,1.4971,1.493,1.4718,1.5551,1.5979,1.5947,1.8155,1.8929,1.8298,1.8271,1.7856,1.7126,1.7394,1.7504,1.7534,1.7994,1.778,1.7136,1.7261,1.6668,1.5654,1.4892,0.0,0.0,0.0,0.0,0.0,0.0,0.0,0.0,0.2242,-0.1356,-0.4121,-0.358,-0.3335,-0.3272,-0.3404,-0.399,-0.4646,-0.4969,-0.6373,0.0,-0.8996,-1.0288,-1.1317,-1.1599,0.0,0.0,0.0,0.0,0.0,0.0,0.0,0.0,0.0,0.0,0.0,0.0,0.0,0.0,0.0,0.0,0.0,0.0,0.0,0.0,0.0,0.0,0.0,-1.8312,-1.7795,-1.7269,-1.6709,-1.543,-1.3892,-1.2139,-1.0224,-0.8671,-0.7503,-0.7351,-0.6924,-0.6258,-0.5655,-0.5058,-0.4463,-0.368,-0.379,-0.4294,-0.3511,-0.3293,-0.3457,-0.3507,-0.3111,-0.242,0.0,0.0,0.0,0.0,0.0,0.0,0.0,0.0,0.0,0.0,0.0,0.0,0.0,0.0,0.0,0.0,0.0,0.0,0.0,1.3435,1.4368,1.4881,1.5115,1.5127,1.4859,1.5038,1.5046,1.4833,1.7468,1.8588,1.8293,1.8022,1.7658,1.7252,1.7002,1.6855,1.6758,1.7173,1.7355,1.7362,1.78,1.7524,1.6807,1.636,1.5643,0.0,0.0,0.0,0.0,0.0,0.0,0.0,-0.1236,-0.4719,-0.6786,-0.6707,-0.5945,-0.505,-0.4743,-0.4555,0.0,-0.4671,-0.635,-0.8103,-0.8563,-0.9065,-0.9643,-1.0259,0.0,0.0,0.0,0.0,0.0,0.0,0.0,0.0,0.0,0.0,0.0,0.0,0.0,0.0,0.0,0.0,0.0,0.0,0.0,0.0,0.0,0.0,0.0,-1.6244,-1.6174,-1.5542,-1.4322,-1.313,-1.1509,0.0,-0.7992,-0.6801,-0.5973,-0.5354,-0.47,-0.4116,-0.4508,-0.4625,-0.4463,-0.368,-0.3456,-0.3456,-0.2732,-0.2464,-0.2546,-0.2693,-0.2202,-0.1442,0.0,0.0,0.0,0.0,0.0,0.0,0.0,0.0,0.0,0.0,0.0,0.0,0.0,0.0,0.0,0.0,0.0,0.0,0.0,0.0,1.5135,1.5091,1.5264,1.5248,1.5057,1.4471,1.4545,1.5302,1.7755,1.8461,1.7586,1.7721,1.7687,1.7466,1.7046,1.6835,1.6831,1.6817,1.7099,1.7541,1.758,1.7687,1.7791,1.7181,1.666,1.6321,1.6733,0.0,0.0,0.0,0.0,0.0,0.0,0.0,-0.8991,-0.8467,-0.7569,-0.6513,-0.5335,-0.4447,0.0,-0.4392,0.0,-0.6957,-0.7327,-0.7493,-0.7734,0.0,0.0,0.0,0.0,0.0,0.0,0.0,0.0,0.0,0.0,0.0,0.0,0.0,0.0,0.0,0.0,0.0,0.0,0.0,0.0,0.0,0.0,-1.3576,-1.3633,-1.3981,-1.3792,-1.311,-1.1911,-1.0909,-0.9613,-0.8043,-0.6655,-0.5445,-0.4443,-0.4443,-0.4058,-0.3456,-0.4181,-0.4519,-0.4405,-0.3289,-0.301,-0.3176,-0.212,-0.1675,-0.1681,-0.1796,-0.1291,-0.0589,0.0,0.0,0.0,0.0,0.0,0.0,0.0,0.0,0.0,0.0,0.0,0.0,0.0,0.0,0.0,0.0,0.0,0.0,0.0,0.0,0.0,1.6184,1.5662,1.5341,1.5195,1.4699,1.5089,1.6483,1.8197,1.8335,1.6995,1.7636,1.7803,1.756,1.7092,1.6905,1.6866,1.652,1.6859,1.7553,1.7151,1.7621,1.8492,1.7681,1.7453,1.7648,1.8351,1.8236,1.7266,1.3798,0.0,0.0,0.0,0.0,-1.0169,-0.9452,-0.869,-0.7721,-0.5862,-0.4398,-0.3563,-0.4182,-0.4929,0.0,-0.6079,-0.6236,-0.627,0.0,0.0,0.0,0.0,0.0,0.0,0.0,0.0,0.0,0.0,0.0,0.0,0.0,0.0,0.0,0.0,0.0,0.0,0.0,0.0,0.0,-1.231,-1.1376,-1.1123,-1.1816,-1.1389,-1.0674,-0.9703,-0.8871,-0.799,-0.7007,-0.5566,-0.4306,-0.3232,-0.3944,-0.3914,-0.34,-0.4181,-0.4519,-0.4405,-0.301,-0.2676,-0.2954,-0.1619,-0.1006,-0.0898,-0.0923,-0.0525,0.0,0.0,0.0,0.0,0.0,0.0,0.0,0.0,0.0,0.0,0.0,0.4332,0.0,0.0,0.0,0.0,0.0,0.0,0.0,1.253,0.0,0.0,1.9641,1.6906,1.5331,1.5195,1.738,1.8199,1.7594,1.7856,1.7896,1.767,1.8232,1.7984,1.709,1.6657,1.6211,1.5732,1.5858,1.6385,1.7187,1.7361,1.7826,1.8407,1.8159,1.8287,1.8679,1.9174,1.9545,1.9243,1.5586,1.1447,0.0,0.0,0.0,-0.898,-0.9849,-0.9592,-0.8691,-0.7145,0.0,-0.3933,0.0,-0.4765,-0.5627,0.0,0.0,0.0,0.0,0.0,0.0,0.0,0.0,0.0,0.0,0.0,0.0,0.0,0.0,0.0,0.0,0.0,0.0,0.0,0.0,0.0,0.0,0.0,0.0,-1.0697,-1.001,-0.9829,-1.0293,-0.9888,-0.9299,-0.8445,-0.7237,-0.6225,-0.5367,-0.4033,-0.3246,-0.2955,-0.3161,-0.3321,-0.3345,-0.4181,-0.4519,-0.4408,-0.3566,-0.2899,-0.2286,-0.1452,-0.0727,-0.0168,-0.0169,-0.0056,0.0,0.0,0.0,0.0,0.0,0.0,0.0,0.0,0.0,0.0,0.0,0.0,0.6962,0.0,0.0,0.0,1.0441,1.2177,1.4281,1.6746,1.9135,2.0429,2.0291,1.8813,1.7477,1.639,1.8041,1.8698,1.8249,1.7191,1.7076,1.7811,1.8351,1.8351,1.7869,1.6974,1.6493,1.638,1.6001,1.6332,1.7133,1.747,1.785,1.8277,1.8626,1.8744,1.8841,1.9564,1.9997,1.9802,1.7295,1.3503,0.8836,0.3167,0.0,0.0,0.0,-0.9659,-0.8963,-0.6907,-0.5148,-0.4016,0.0,-0.4568,-0.4931,-0.5557,0.0,0.0,0.0,0.0,0.0,0.0,0.0,0.0,0.0,0.0,0.0,0.0,0.0,0.0,0.0,0.0,0.0,0.0,0.0,0.0,0.0,0.0,-0.833,-0.8611,-0.7775,-0.7553,-0.8077,-0.7721,-0.7252,-0.6569,-0.6023,-0.5269,-0.4367,-0.3873,-0.3568,-0.3515,-0.3568,-0.3425,-0.3106,-0.3896,-0.4049,-0.3636,-0.2929,-0.2196,-0.1507,-0.0783,-0.028,0.0,0.0,0.0,0.0,0.0,0.0,0.0,0.0,0.0,0.0,0.0,0.0,0.0,0.0,0.0,0.0,0.0,0.0,0.0,0.0,1.2806,1.5575,1.9888,2.0414,2.0477,2.0304,2.0057,1.9286,1.7837,1.8333,1.8528,1.8391,1.6648,1.6313,1.732,1.8194,1.8623,1.859,1.7399,1.6991,1.7165,1.633,1.6541,1.7454,1.7384,1.7666,1.8137,1.8403,1.8462,1.8518,1.9449,1.9822,1.974,1.865,1.5233,1.0537,0.5504,0.0089,0.0,0.0,0.0,-0.8909,0.0,0.0,-0.4699,-0.4753,-0.467,-0.4677,0.0,0.0,0.0,0.0,0.0,0.0,0.0,0.0,0.0,0.0,0.0,0.0,0.0,0.0,0.0,0.0,0.0,0.0,0.0,0.0,0.0,0.0,0.0,-0.6656,-0.6795,-0.5795,-0.5454,-0.6007,-0.5782,-0.5396,-0.4847,-0.4856,-0.4498,-0.3737,-0.3706,-0.3759,-0.3907,-0.3759,-0.3483,-0.3169,-0.3751,-0.3661,-0.3116,-0.2292,-0.1626,-0.1006,-0.028,0.0,0.0,0.0,0.0,0.0,0.0,0.0,0.0,0.0,0.0,0.0,0.0,0.0,0.0,0.0,0.0,0.0,1.0194,1.0307,1.0735,1.1601,1.3032,1.5587,1.9578,2.0193,2.038,2.0304,1.9982,0.0,1.9191,1.8806,1.8351,1.7856,1.6459,1.5827,1.5955,1.7764,1.8661,1.8753,1.7725,1.7377,1.7505,1.6586,1.7047,1.8317,1.7004,1.7122,1.7983,1.7009,1.7013,1.7681,1.8542,1.8988,1.9196,1.9506,1.6489,1.1865,0.7495,0.1789,-0.3928,0.0,0.0,0.0,0.0,-0.688,0.0,-0.5442,-0.5401,0.0,0.0,0.0,0.0,0.0,0.0,0.0,0.0,0.0,0.0,0.0,0.0,0.0,0.0,0.0,0.0,0.0,0.0,0.0,0.0,0.0,0.0,0.0,0.0,-0.5394,-0.5749,-0.4566,-0.407,-0.4517,-0.4504,-0.4192,-0.3585,-0.3656,-0.367,-0.3592,-0.3051,-0.3054,-0.3602,-0.3007,-0.3115,-0.3765,-0.3906,-0.3712,-0.3217,-0.2368,-0.1626,-0.1006,-0.028,0.0,0.0,0.0,0.0,0.0,0.0,0.0,0.0,0.0,0.0,0.0,0.0,0.0,0.0,0.0,0.0,0.0,0.0,1.1205,1.1709,1.289,1.4609,1.6814,1.9618,1.9526,1.9672,2.0346,2.0034,1.9777,1.9619,1.8945,1.8508,1.831,1.7715,1.7478,1.7614,1.859,1.9046,1.902,1.8281,1.8031,1.8144,1.7726,1.7835,1.8298,1.8276,1.7785,1.7022,1.6604,1.6559,0.0,0.0,0.0,0.0,0.0,0.0,0.0,0.0,0.0,0.0,0.0,0.0,0.0,0.0,0.0,0.0,-0.6495,-0.5729,-0.5201,0.0,0.0,0.0,0.0,0.0,0.0,0.0,0.0,0.0,0.0,0.0,0.0,0.0,0.0,0.0,0.0,0.0,0.0,0.0,0.0,0.0,0.0,0.0,0.0,-0.3816,-0.3362,-0.2979,-0.2752,-0.2752,-0.2796,-0.2978,-0.3394,-0.3581,-0.3581,-0.3398,-0.3398,-0.3585,-0.3485,-0.3604,-0.3892,-0.3494,-0.2997,-0.2429,-0.2136,-0.1356,-0.0392,-0.0112,0.0,0.0,0.0,0.0,0.0,0.0,0.0,0.0,0.0,0.0,0.0,0.0,0.0,0.0,1.0905,0.0,0.0,0.0,0.0,1.2289,1.3416,1.5297,1.6915,1.8088,1.8613,1.9172,1.9769,1.9858,1.9882,1.9809,1.9059,1.8661,1.8661,1.8572,1.8699,1.901,1.9368,1.9411,1.9143,1.8874,1.8802,1.8908,1.8479,1.8382,1.8536,1.8599,1.7939,1.6859,1.6429,0.0,0.0,0.0,0.0,0.0,0.0,0.0,0.0,0.0,0.0,0.0,0.0,0.0,0.0,-0.9066,0.0,0.0,0.0,0.0,-0.5635,0.0,0.0,0.0,0.0,0.0,0.0,0.0,0.0,0.0,0.0,0.0,0.0,0.0,0.0,0.0,0.0,0.0,0.0,0.0,0.0,0.0,0.0,0.0,0.0,-0.2453,-0.2184,-0.1919,-0.1518,-0.1873,-0.2275,-0.2716,-0.3306,-0.3581,-0.3581,-0.3581,-0.3581,-0.3585,-0.3727,-0.3877,-0.3969,-0.3465,-0.2789,-0.2051,-0.1763,-0.0977,0.0,0.0,0.0,0.0,0.0,0.0,0.0,0.0,0.0,0.0,0.0,0.0,0.0,0.0,0.0,1.133,1.1345,0.0,0.0,0.0,0.0,0.0,1.3261,1.5043,1.5787,1.4973,1.7514,1.8917,1.8614,1.9441,1.9864,1.9809,1.9151,1.8788,1.8735,1.8927,1.9305,1.9821,1.9901,1.9637,1.9087,1.9407,1.9619,1.9691,1.8721,1.8647,1.906,0.0,1.7473,1.7539,0.0,0.0,0.0,1.7666,1.7782,0.0,0.0,0.0,0.0,0.0,0.0,0.0,0.0,0.0,0.0,0.0,0.0,0.0,0.0,0.0,0.0,0.0,0.0,0.0,0.0,0.0,0.0,0.0,0.0,0.0,0.0,0.0,0.0,0.0,0.0,0.0,0.0,0.0,0.0,0.0,0.0,0.0,0.0,0.0,-0.1784,-0.1739,-0.1207,-0.0895,-0.0895,-0.2051,-0.2672,-0.2719,-0.3262,-0.3578,-0.3581,-0.3581,-0.3581,-0.3585,-0.3727,-0.3877,-0.4019,-0.3969,-0.3294,-0.2111,-0.1292,-0.0542,0.0,0.0,0.0,0.0,0.0,0.0,0.0,0.0,0.0,0.0,0.0,0.0,0.0,1.0996,1.1423,1.1962,0.0,0.0,0.0,1.4944,1.5745,1.6229,1.6235,1.6612,1.6361,1.5265,1.7043,1.8297,1.8581,1.9478,1.9918,1.979,1.9433,1.864,1.7435,1.8727,1.9662,2.022,1.9383,1.885,1.8584,1.8435,1.8339,1.8294,1.8656,0.0,1.861,1.8448,1.7663,0.0,0.0,0.0,0.0,0.0,1.6396,1.6629,0.0,1.3806,1.0932,0.0,0.0,0.0,0.0,0.0,0.0,-0.8805,0.0,0.0,0.0,0.0,0.0,0.0,0.0,0.0,0.0,0.0,0.0,0.0,0.0,0.0,0.0,0.0,0.0,0.0,0.0,0.0,0.0,0.0,0.0,0.0,0.0,0.0,0.0,-0.1422,-0.1426,-0.0534,-0.0358,-0.0448,-0.0895,-0.1206,-0.183,-0.2672,-0.2854,-0.317,-0.3581,-0.3581,-0.3581,-0.3585,-0.3727,-0.3877,-0.3969,-0.3415,-0.2834,-0.2197,-0.1815,-0.1028,0.0,0.0,0.0,0.0,0.0,0.0,0.0,0.0,0.0,0.0,0.0,0.0,1.1839,1.2067,1.2405,1.2969,0.0,0.0,0.0,1.6713,1.8018,1.8776,1.8729,1.794,1.7237,1.6748,1.7733,1.846,1.8754,1.9551,1.9954,1.989,1.9694,1.9093,1.8113,1.9317,1.9857,1.9715,1.9107,1.8449,1.7793,1.7958,1.7729,1.7256,0.0,0.0,0.0,1.8607,0.0,0.0,1.6133,1.5956,0.0,0.0,0.0,1.6714,1.4906,1.2117,0.0,0.0,0.0,0.0,0.0,0.0,0.0,-0.7582,-0.7675,0.0,0.0,0.0,0.0,-0.678,-0.4514,0.0,0.0,0.0,0.0,0.0,0.0,0.0,0.0,0.0,0.0,0.0,0.0,0.0,0.0,0.0,0.0,0.0,0.0,0.0,0.0259,-0.0309,-0.0357,0.0357,-0.009,-0.0403,-0.0538,-0.1252,-0.1873,-0.2317,-0.2583,-0.2898,-0.3214,-0.2948,-0.286,-0.2862,-0.3259,-0.3456,-0.3532,-0.3334,-0.283,-0.2121,-0.1996,-0.1173,0.0,0.0,0.0,0.0,0.0,0.0,0.0,0.0,0.0,1.2437,1.2113,1.2406,1.2816,1.3134,1.3705,1.4428,0.0,1.591,1.6884,1.8612,1.9673,2.0342,2.0585,1.9024,1.8258,1.8718,1.8974,1.9071,1.8992,1.9665,2.0022,1.9993,1.992,1.9856,1.9836,2.0275,1.9967,1.8979,1.8945,1.8227,1.6983,1.7603,1.7347,1.6501,0.0,0.0,1.8166,1.8393,1.7999,0.0,0.0,1.5912,0.0,1.6553,1.6851,1.7136,1.4751,1.0746,0.0,0.0,0.0,0.0,0.0,-0.4562,-0.5339,-0.5938,-0.6307,-0.67,0.0,0.0,0.0,-0.8385,-0.6274,0.0,0.0,0.0,0.0,0.0,0.0,0.0,0.0,0.0,0.0,0.0,0.0,0.0,0.0,0.0,0.0,0.0,0.2107,0.1719,0.1003,0.1004,0.0984,0.0984,0.0,-0.0403,0.009,-0.1472,-0.2093,-0.1695,-0.2317,-0.2583,-0.2583,-0.214,-0.1873,-0.1832,-0.2548,-0.2879,-0.2939,-0.346,-0.3034,-0.1989,-0.1779,-0.1033,0.0,0.0,0.0,0.0,0.0,0.0,0.0,0.0,1.3491,1.336,1.3075,1.3833,1.4589,1.4856,1.5829,1.6657,1.7079,1.7786,1.8725,1.9986,2.0351,2.0541,2.0605,1.9594,1.8993,1.9091,1.9104,1.9066,1.8992,1.9796,2.0161,1.9993,2.0127,2.0142,2.0048,2.0306,2.0302,2.0063,1.8574,1.7715,1.735,1.6261,1.5949,1.6271,0.0,0.0,1.7883,1.7825,0.0,1.6391,1.6134,1.5762,1.5407,1.5502,1.5571,1.5231,0.0,0.9634,0.6491,0.0,0.0,0.0,0.0,0.0,0.0,0.0,0.0,0.0,0.0,0.0,0.0,-0.6901,-0.5357,-0.3112,0.0,0.0,0.0,0.0,0.0,0.0,0.0,0.0,0.0,0.0,0.0,0.0,0.0,0.0,0.0,0.0,0.3235,0.2569,0.2606,0.2002,0.1607,0.1607,0.1383,0.1114,0.0755,0.0401,-0.0223,-0.1065,-0.1692,-0.1962,-0.1962,-0.2361,-0.2273,-0.183,-0.2474,-0.2804,-0.2892,-0.289,-0.256,-0.1945,-0.1319,-0.0653,0.0,0.0,0.0,0.0,0.0,0.0,0.0,1.4265,1.4216,1.4111,1.3962,1.4774,1.5542,1.5859,1.6776,1.7674,1.8308,1.9127,1.9887,2.0469,2.0554,2.0541,2.0554,2.0122,1.9815,1.9753,1.9714,1.9681,1.9658,2.0062,2.0249,2.0152,2.028,2.0321,2.0257,2.0417,2.0257,1.9766,1.8393,1.7536,1.7103,1.5961,1.5533,1.5714,0.0,1.6667,1.7549,1.7659,0.0,1.3651,1.4909,1.5196,1.4924,1.5131,1.5046,1.4788,1.4423,1.1492,0.0,0.0,0.1833,0.0582,0.0,-0.0808,-0.1621,0.0,0.0,0.0,-0.4657,0.0,0.0,0.0,-0.5537,-0.3844,0.0,0.0,0.0,0.0,0.0,0.0,0.0,0.0,0.0,0.0,0.0,0.0,0.0,0.0,0.0,0.0,0.3733,0.3107,0.2685,0.198,0.1734,0.2117,0.1861,0.1441,0.0935,0.0624,0.0,-0.089,-0.1205,-0.134,-0.134,-0.134,-0.134,-0.134,-0.1652,-0.2166,-0.2804,-0.2713,-0.2392,-0.1888,-0.1522,-0.0821,0.0,0.0,0.0,0.0,0.0,0.0,0.0,1.47,1.4813,1.4935,1.4953,1.5808,1.6583,1.6886,1.7679,1.854,1.9335,2.0066,2.0516,2.0555,2.0502,2.0482,2.0501,2.0492,2.0427,2.0331,2.0331,2.0312,2.0312,2.0312,2.0331,2.0331,2.0389,2.0405,2.041,2.0522,2.0186,1.9412,1.8503,1.778,1.7155,1.6188,1.5719,1.5679,0.0,0.0,1.7224,0.0,1.5386,1.229,1.4302,1.5069,1.5091,1.5072,1.4912,1.4878,1.6201,0.0,0.7874,0.4132,0.255,0.0,0.0,0.0,0.0,0.0,0.0,0.0,0.0,0.0,-0.4099,0.0,0.0,0.0,0.0574,0.0,0.0,0.0,0.0,0.0,0.0,0.0,0.0,0.0,0.0,0.0,0.0,0.0,0.0,0.0,0.3746,0.3196,0.2376,0.1658,0.1614,0.2434,0.2028,0.1606,0.1279,0.0617,0.0088,-0.0358,-0.0716,-0.0851,-0.0716,-0.0448,-0.0493,-0.0716,-0.0984,-0.1563,-0.2364,-0.2339,-0.2066,-0.1607,-0.1486,-0.0901,0.0,0.0,0.0,0.0,0.0,0.0,0.0,1.4931,1.5577,1.6139,1.6184,1.75,1.8623,1.8857,1.9618,2.0221,2.0344,2.0436,2.0475,2.0436,2.0425,2.0447,2.0482,0.0,0.0,2.0389,0.0,2.0369,2.0312,2.0369,2.0389,2.0389,2.0446,2.0463,2.041,2.0466,2.0428,2.0238,1.9254,1.8734,1.857,1.6774,1.647,0.0,0.0,1.6491,0.0,1.6892,1.6825,0.0,1.7022,1.6588,1.5722,1.5202,1.4983,1.4835,0.0,1.0736,0.689,0.0,0.5199,0.0,0.0,0.0,0.0,0.0,0.0,0.0,0.0,-0.1218,0.0,0.0,0.0,-0.0186,0.1554,0.0,0.4734,0.6381,0.0,0.0,0.0,0.0,0.0,0.0,0.0,0.0,0.0,0.0,0.0,0.0,0.0,0.2401,0.2772,0.1646,0.1383,0.2436,0.2442,0.2417,0.249,0.1775,0.1462,0.1471,-0.0089,-0.0627,-0.0135,-0.1118,-0.1073,-0.0135,-0.1207,-0.1474,-0.112,-0.1116,-0.1065,-0.0942,-0.042,-0.0139,0.0,0.0,0.0,0.0,0.0,0.0,0.0112,1.5177,1.5856,1.6471,1.651,1.7926,1.9122,1.9238,2.0432,2.1307,2.1255,2.122,2.1193,0.0,0.0,0.0,0.0,0.0,2.035,0.0,0.0,1.9831,2.0292,2.036,2.0424,2.0465,2.0485,2.0512,2.0513,2.0545,2.0545,2.0494,1.953,1.9336,1.9735,1.7477,0.0,1.8443,0.0,1.6868,0.0,0.0,0.0,0.0,1.8363,1.7559,1.6103,1.5373,1.5063,1.4938,0.0,1.1964,0.0,0.0,0.0,0.0,0.0,0.0,0.0,0.0,0.0,0.0,0.0,0.0,0.0,0.0,0.0,0.2503,0.0,0.0,0.0,0.0,0.0,0.0,0.0,0.0,0.0,0.0,0.0,0.0,0.0,0.0,0.0,0.0,0.0,0.0,0.0,0.1717,0.1693,0.2073,0.2247,0.2407,0.2594,0.1677,0.1241,0.1295,0.0179,-0.0269,0.0,-0.0851,-0.1207,-0.1029,-0.1207,-0.1518,-0.1921,-0.1184,-0.091,-0.0896,-0.0639,-0.0319,0.0,0.0,0.0,0.0,0.0,0.0261,0.0708,1.5971,1.6637,1.7292,1.7302,1.8756,1.9968,2.0095,2.1317,2.2259,2.2333,0.0,0.0,2.1987,2.1556,0.0,0.0,2.0515,1.9965,0.0,0.0,1.9391,2.0288,2.0394,0.0,0.0,2.0538,2.055,2.0605,2.0605,2.0605,2.0586,2.0137,2.0116,2.0416,1.8622,1.8363,1.9222,0.0,0.0,1.7789,1.7526,1.7618,1.7974,1.8529,1.7753,1.6103,1.3836,1.3937,1.5114,1.5114,1.1779,0.0,0.6914,0.0,0.0,0.0,0.0,0.0,0.3447,0.0,0.0,0.0,0.0,0.0,0.0,0.0,0.0,0.0,0.0,0.0,0.0,0.0,0.8777,0.7259,0.0,0.5584,0.0,0.0,0.0,0.0,0.0,0.0,0.0,0.0,0.0,0.1616,0.1597,0.1747,0.2037,0.2085,0.2122,0.2256,0.1439,0.0974,0.0895,0.0314,0.0,0.0,-0.0627,-0.1029,-0.1297,-0.1029,-0.1297,-0.1919,-0.1029,-0.0672,-0.0672,-0.0672,-0.0404,0.0,0.0,0.0144,0.0292,0.0303,0.0783,0.1458,1.7565,1.8376,0.0,0.0,0.0,0.0,2.2145,2.2696,0.0,0.0,0.0,0.0,0.0,0.0,0.0,0.0,0.0,1.9119,2.0235,0.0,1.9226,0.0,2.0456,2.0527,0.0,0.0,2.0605,2.0605,2.0605,2.0605,2.0625,2.1367,2.1289,2.0507,2.0427,2.0083,1.9558,1.8906,1.8315,1.7811,1.7789,1.7544,1.7232,0.0,1.6913,1.5617,0.9685,0.0,0.0,1.5017,0.8413,0.0,0.0,0.0,0.0,0.0,0.0,0.0,0.0,0.0,0.0,0.3896,0.0,0.0,0.0,0.0,0.7613,0.0,0.0,0.0,0.0,0.9739,0.9463,0.7347,0.6804,0.0,0.0,0.0,0.0,0.0,0.0,0.0,0.0,0.0,0.0,0.2328,0.1297,0.125,0.2593,0.2114,0.1767,0.1642,0.1411,0.1148,0.0895,0.0314,0.0,0.0,-0.0627,-0.0583,-0.009,-0.0627,-0.0583,-0.009,-0.0045,-0.0045,-0.0045,-0.0045,0.0,0.0,0.0,0.0439,0.1062,0.1046,0.1515,0.2284,0.0,2.0131,0.0,0.0,0.0,0.0,0.0,2.3741,0.0,0.0,0.0,0.0,0.0,0.0,2.1438,0.0,0.0,2.0696,2.0331,1.9458,0.0,0.0,0.0,2.0199,0.0,0.0,2.0527,2.0527,2.0522,2.0526,2.0551,2.1393,2.1615,2.1302,2.1578,2.1052,0.0,0.0,0.0,0.0,0.0,1.7848,1.7527,0.0,0.0,1.2017,1.2382,0.9369,0.0,0.507,0.495,0.4688,0.382,0.3501,0.3582,0.4202,0.4718,0.0,0.0,0.0,0.4308,0.4271,0.0,0.0,0.0,0.0,0.0,0.0,0.0,0.0,0.0,1.043,0.9588,0.8173,0.6637,0.5277,0.0,0.0,0.0,0.0,0.0,0.0,0.0,0.0,0.0,0.1953,0.1262,0.1076,0.1743,0.1886,0.1938,0.1986,0.129,0.0901,0.0895,0.0314,0.0,0.0,-0.0599,-0.0782,-0.0584,-0.0805,-0.0802,-0.0584,-0.019,0.0,0.0,0.0,0.0,0.0047,0.0537,0.1163,0.1773,0.1268,0.1895,0.3121,2.0661,0.0,0.0,0.0,0.0,0.0,0.0,0.0,0.0,0.0,2.308,0.0,2.2023,0.0,2.1427,0.0,2.1158,2.0754,2.0331,1.953,0.0,1.9511,1.9784,0.0,0.0,0.0,0.0,2.0506,2.0482,2.0455,2.0493,2.1705,2.2051,2.1745,2.2645,2.2246,2.0901,0.0,2.0047,0.0,0.0,1.8146,0.0,0.0,1.4263,0.8926,0.0,0.5576,0.0,0.0,0.2097,0.4158,0.0993,0.1161,0.2696,0.3631,0.4773,0.5722,0.5591,0.5209,0.0,0.4781,0.5413,0.0,0.5865,0.0,0.0,0.0,0.0,0.0,0.0,0.0,1.0072,0.855,0.6812,0.5225,0.0,0.3601,0.0,0.0,0.0,0.0,0.0,0.0,0.1414,0.1913,0.1432,0.1306,0.0,0.0,0.2148,0.1868,0.1251,0.0819,0.0582,0.018,0.0,0.0,-0.0377,-0.0568,-0.0562,-0.0592,-0.0589,-0.0563,0.0099,0.0341,0.0322,0.0613,0.0714,0.0765,0.1241,0.1902,0.2544,0.2041,0.268,0.3846,0.0,0.0,0.0,0.0,2.3267,0.0,0.0,0.0,2.5082,0.0,2.336,2.2774,2.2677,2.1254,2.0619,2.137,1.9992,0.0,2.0254,1.9523,0.0,0.0,1.954,1.9502,2.0254,0.0,0.0,0.0,2.0399,2.0399,2.0446,2.2207,2.2582,2.1833,2.3604,0.0,2.222,2.1365,2.027,1.9139,1.9194,1.8455,1.7421,1.8429,1.4272,0.7193,0.1895,0.0,0.0,0.0,0.0,0.0,0.0,0.0,0.0492,0.2981,0.5063,0.6457,0.6037,0.5609,0.5297,0.5356,0.0,0.0,0.0,0.0,0.9548,0.0,0.0,0.0,0.0,0.0,0.0,0.8525,0.7282,0.5898,0.3808,0.0,0.0,0.0,0.0,0.0,0.0,0.1814,0.1943,0.2208,0.1845,0.1945,0.0,0.0,0.2259,0.1326,0.1294,0.0903,0.0045,0.0045,0.0046,0.0096,0.0048,0.0098,0.0101,0.0101,0.0101,0.0152,0.0861,0.109,0.0999,0.1713,0.1998,0.2002,0.2033,0.2571,0.3356,0.3359,0.3846,0.4519,2.1575,2.2953,2.4168,0.0,2.4938,2.5272,0.0,0.0,0.0,0.0,2.2947,2.2331,2.1081,2.0562,2.0389,2.06,2.0215,0.0,0.0,0.0,0.0,1.9357,1.9761,1.9492,1.8427,1.9452,0.0,1.9158,1.9945,2.0337,2.0427,2.1536,2.226,2.2637,2.3857,2.4055,2.341,2.2646,2.1265,1.9601,1.9415,1.9198,0.0,0.0,1.3849,1.4804,0.3912,0.0,0.0,0.0,0.0,0.0,0.0,0.0,0.0128,0.0807,0.4037,0.7205,0.6283,0.5672,0.5235,0.5021,0.5725,0.6436,0.0,0.0,0.0,0.0,0.0,0.0,0.0,0.0,0.0,0.933,0.7068,0.5075,0.0,0.0,0.0,0.0,0.0,0.0,0.0,0.2191,0.2407,0.2762,0.292,0.3065,0.329,0.0,0.0,0.1327,0.1459,0.1229,0.0672,0.0672,0.096,0.1474,0.103,0.1098,0.1613,0.1647,0.1639,0.1668,0.1809,0.1863,0.1713,0.1912,0.1949,0.1905,0.2576,0.3393,0.4187,0.4168,0.4349,0.4519,2.2695,0.0,0.0,2.5563,0.0,0.0,2.4983,0.0,0.0,2.3024,2.2793,0.0,2.0966,2.0504,2.0312,2.0312,2.0312,0.0,0.0,0.0,0.0,1.9581,2.0042,1.985,1.8869,1.9304,0.0,1.9396,0.0,2.0331,2.0389,2.1259,2.188,2.2355,2.3762,2.4052,2.3412,2.2557,2.1492,2.0372,1.9854,0.0,0.0,1.5713,1.641,1.7615,0.4643,0.0,0.0,0.0,0.0,0.0,0.0,0.0,0.0226,0.1368,0.2959,0.465,0.6143,0.5944,0.5331,0.5509,0.6041,0.6449,0.626,0.7708,0.9148,0.0,0.0,0.0,0.0,0.0,0.0,0.8739,0.6956,0.0,0.0,0.0,0.0,0.0,0.0,0.0,0.0,0.2391,0.2545,0.3539,0.346,0.3375,0.0,0.0,0.0,0.1327,0.1762,0.1629,0.0895,0.1298,0.1669,0.1998,0.1721,0.1818,0.2216,0.2162,0.2157,0.2216,0.2485,0.2511,0.2437,0.274,0.2827,0.2837,0.3459,0.4044,0.4519,0.4519,0.4519,0.4519,0.0,0.0,0.0,0.0,0.0,0.0,0.0,2.461,0.0,2.3081,0.0,2.2312,2.1446,2.0735,2.0312,2.0312,0.0,2.0312,2.0312,2.0312,2.0312,2.0312,2.0312,2.0254,2.0139,1.9273,0.0,0.0,0.0,2.0312,2.0331,2.1062,2.1443,2.1582,2.3277,0.0,0.0,2.1791,2.1308,2.1033,2.0336,1.9446,1.8669,1.9856,1.8829,1.53,0.4041,0.0,0.0,0.0,0.0,0.0,0.0,0.0,0.0443,0.2725,0.2255,0.1812,0.5512,0.6067,0.5727,0.6219,0.6477,0.6568,0.6593,0.7749,0.8931,0.947,1.0449,1.1333,0.0,0.0,0.0,0.0,0.0,0.0,0.0,0.0,0.0,0.0,0.0,0.0,0.0,0.0,0.2742,0.4275,0.3725,0.3349,0.0,0.0,0.0,0.1443,0.214,0.207,0.1172,0.0,0.2309,0.228,0.2349,0.2479,0.2615,0.2489,0.2541,0.276,0.3271,0.3362,0.3235,0.3784,0.4048,0.4143,0.4357,0.4535,0.4625,0.4625,0.4625,0.4625,0.0,0.0,0.0,0.0,0.0,2.485,2.3506,2.3322,2.334,2.3447,2.2496,2.1477,2.0619,2.0427,2.0389,2.0389,2.0331,0.0,0.0,0.0,0.0,2.0312,2.0312,1.9965,1.9242,1.9735,1.7811,0.0,1.8003,2.0312,2.0304,2.0346,2.0802,2.1596,2.1881,0.0,2.19,2.1671,0.0,2.0529,2.0395,1.6897,1.2414,1.8125,1.3262,0.3086,0.0808,0.0,0.0,0.0,0.0,0.0,0.0,0.0,0.0089,0.0551,0.3366,0.5918,0.3929,0.5302,0.7005,0.5887,0.6294,0.701,0.7058,0.7967,0.8926,0.9345,1.0195,1.0841,1.0677,0.0,0.0,0.0,0.0,0.0,0.0,0.0,0.0,0.0,0.0,0.0,0.0,0.0,0.0,0.4364,0.417,0.3984,0.0,0.0,0.0,0.0,0.2455,0.0,0.0,0.0,0.3118,0.3789,0.3381,0.3818,0.4933,0.4903,0.5095,0.5505,0.5414,0.5101,0.4603,0.4134,0.4315,0.4853,0.4325,0.4606,0.5324,0.5324,0.5324,0.5273,0.0,0.0,0.0,0.0,0.0,0.0,0.0,2.2339,0.0,2.2494,2.2004,2.143,2.1015,2.063,2.039,2.039,2.0371,2.0334,2.0292,2.0312,2.0312,2.0312,2.0312,0.0,1.9677,2.01,1.8965,1.6208,1.8965,2.0312,2.0304,2.0218,2.0411,2.0811,2.1397,2.193,0.0,0.0,0.0,2.1072,2.0611,1.6265,1.0083,0.9853,0.5713,0.0,0.0,0.0,0.0,0.0,0.0,0.0,0.0,0.0,0.0,0.0,0.3658,0.7146,0.458,0.5553,0.7112,0.644,0.671,0.7123,0.713,0.7997,0.8844,0.9035,0.9894,1.0492,1.0133,1.0042,0.0,0.0,0.0,0.0,0.0,0.0,0.0,0.0,0.0,0.0,0.0,0.0,0.0,0.0,0.0,0.0,0.0,0.0,0.0,0.0,0.0,0.0,0.0,0.0,0.0,0.4684,0.453,0.5023,0.6086,0.5979,0.5976,0.602,0.5855,0.5634,0.5367,0.4832,0.4884,0.5309,0.5327,0.554,0.5885,0.5995,0.6091,0.6036,0.0,2.5322,0.0,0.0,2.5582,0.0,2.3433,2.1706,2.0771,2.1267,2.1312,2.1334,2.1361,2.0803,2.0438,2.0438,2.0438,2.0426,2.0379,2.0334,2.0311,2.0292,2.0312,2.0312,2.0312,2.0312,2.0312,0.0,2.0312,2.0312,2.0312,2.0269,2.0152,2.0041,0.0,0.0,0.0,0.0,2.1756,2.1484,2.0735,1.6317,0.9405,0.2596,0.0,0.0,0.0,0.0,0.0,0.0,0.0,0.0,0.0,0.0,0.0,0.0,0.3658,0.7404,0.6032,0.6356,0.7059,0.7089,0.7178,0.7237,0.7325,0.8096,0.8789,0.8789,0.9544,1.0059,0.9664,0.9562,0.0,0.0,0.0,0.0,0.0,0.0,0.0,0.0,0.0,0.0,0.0,0.0,0.0,0.0,0.0,0.4496,0.5687,0.4777,0.406,0.0,0.0,0.3759,0.3289,0.0,0.4774,0.5349,0.5553,0.6044,0.6853,0.6723,0.6566,0.6408,0.6329,0.6182,0.6043,0.5791,0.5726,0.5862,0.6294,0.6498,0.6546,0.6732,0.6858,0.6858,0.0,0.0,0.0,0.0,0.0,0.0,0.0,2.1679,2.0555,2.0434,2.0427,2.0465,2.0581,2.0584,2.0585,2.0585,2.0585,2.0585,2.0564,2.0464,2.036,2.03,2.0312,2.0312,2.0312,2.0312,2.0312,0.0,0.0,2.0312,2.0304,2.0115,2.0022,2.002,0.0,0.0,0.0,1.8858,2.0621,2.0703,2.0624,1.6442,0.9526,0.2616,0.0,0.0,0.0,0.0,0.0,0.0,0.0,0.0,0.0,0.0,0.0,0.0,0.3658,0.7666,0.7501,0.754,0.7539,0.7178,0.7373,0.7754,0.8109,0.8495,0.8789,0.8789,0.917,0.9369,0.8969,0.9583,0.9852,0.0,0.0,0.0,0.0,0.0,0.0,0.0,0.0,0.0,0.0,0.4159,0.0,0.0,0.464,0.4786,0.5136,0.5844,0.5845,0.4959,0.0,0.5184,0.524,0.5348,0.5606,0.611,0.6098,0.6644,0.7616,0.7587,0.771,0.7995,0.8346,0.7882,0.6887,0.6843,0.6865,0.6871,0.6309,0.6681,0.7581,0.7605,0.7616,0.767,0.0,0.0,0.0,0.0,0.0,0.0,0.0,2.2344,2.0563,2.0486,2.041,2.0389,2.0427,2.0536,2.0605,2.0605,2.0605,2.0605,2.0605,2.0542,2.0506,2.0477,2.0392,2.0369,2.0369,2.0331,2.0312,0.0,0.0,0.0,2.0304,2.0225,2.018,0.0,0.0,1.6395,1.7015,1.8763,1.9296,1.9013,1.9367,1.583,0.9551,0.2637,0.0,0.0,0.0,0.3052,0.6359,0.1601,0.0,0.0,0.0,0.0,0.0,0.0,0.2568,0.5752,0.7277,0.7695,0.7666,0.75,0.7763,0.8091,0.8262,0.8551,0.8789,0.8789,0.8926,0.8981,0.8844,0.9113,0.9266,0.0,0.0,0.0,0.0,0.0,0.0,0.0,0.0,0.0,0.0,0.0,0.5613,0.0,0.0,0.5115,0.5885,0.5851,0.5857,0.6015,0.0,0.5414,0.5631,0.555,0.5821,0.6431,0.652,0.7124,0.8126,0.8126,0.8082,0.8056,0.8568,0.8094,0.7046,0.7504,0.759,0.7405,0.7407,0.7722,0.8146,0.8311,0.8374,0.8427,2.4128,0.0,2.4199,0.0,2.5036,2.5701,2.5701,2.3652,2.1738,2.0723,2.0513,2.0466,2.0466,2.054,2.0605,2.0605,2.1523,2.2109,2.2109,2.2109,2.1641,2.0644,2.0503,0.0,2.0371,2.0577,2.0554,2.0312,2.0542,0.0,0.0,0.0,0.0,0.0,1.6839,1.6912,1.9516,1.9144,1.8856,1.8635,1.8319,1.5927,1.1768,0.4667,0.2791,0.376,0.245,0.546,0.9362,0.4747,0.2426,0.13,0.0315,0.0681,0.1666,0.2624,0.4128,0.5842,0.7638,0.808,0.8023,0.8023,0.8251,0.8477,0.8589,0.8717,0.8761,0.8679,0.8662,0.8662,0.8662,0.8662,0.8659,0.871,0.0,0.0,0.0,0.0,0.0,0.0,0.0,0.0,0.0,0.0,0.6609,0.0,0.0,0.5984,0.674,0.6349,0.0,0.0,0.0,0.0,0.0,0.6253,0.6606,0.7314,0.7413,0.7861,0.862,0.8527,0.8415,0.8193,0.8632,0.8296,0.7557,0.799,0.8016,0.7754,0.8225,0.8424,0.8524,0.8731,0.8804,0.8804,2.1328,2.0664,2.0664,2.0664,2.3457,2.5703,2.5703,2.5664,2.4434,2.1035,2.0605,2.0605,2.0605,2.0605,2.0605,2.0605,2.3691,2.5644,2.5644,2.5644,2.4121,0.0,0.0,2.0492,2.0313,2.1135,2.1169,2.0312,0.0,0.0,2.1485,0.0,2.1062,2.0312,2.0246,2.0342,2.0527,1.9588,1.9692,2.0265,1.7808,1.7214,1.6983,0.9476,0.9371,1.2668,0.821,0.6332,0.6459,0.9689,0.8166,0.4354,0.1047,0.2272,0.5578,0.8826,0.9484,0.9138,0.9185,0.8981,0.8789,0.8789,0.8789,0.8899,0.9289,0.9089,0.8717,0.8365,0.8319,0.8319,0.8319,0.8319,0.8319,0.829,0.0,0.0,0.0,0.0,0.0,0.0,0.0,0.0,0.7383,0.0,0.0,0.0,0.0,0.7654,0.7402,0.0,0.0,0.7027,0.6979,0.0,0.7878,0.7878,0.8288,0.9082,0.9082,0.9103,0.9188,0.8898,0.8769,0.8778,0.8806,0.8809,0.8754,0.8364,0.8092,0.7908,0.8257,0.855,0.8804,0.8804,0.8804,0.8804,2.0801,2.0605,2.1348,2.3672,2.498,2.5703,2.5703,2.5703,2.5312,2.4219,2.4082,2.4082,2.4082,2.4082,2.4082,0.0,2.2949,2.2227,0.0,2.2227,2.1738,2.0644,2.1699,2.1961,2.127,2.1519,2.1501,2.1119,0.0,0.0,0.0,2.1554,2.1534,2.1427,2.0735,2.0455,2.039,1.9417,1.8211,1.6932,1.6796,1.6234,1.501,1.0371,1.0598,1.321,1.1787,1.0845,1.032,1.0753,1.0057,0.8765,0.7227,0.5941,0.5654,0.8926,0.9569,0.9185,0.9185,0.9008,0.8789,0.8789,0.9008,0.9235,0.9369,0.9101,0.8706,0.8365,0.859,0.8658,0.8007,0.8198,0.8219,0.7578,0.694,0.0,0.0,0.0,0.0,0.0,0.0,0.0,0.0,0.7132,0.0,0.0,0.0,0.0,0.0,0.0,0.0,0.0,0.826,0.0,0.8699,0.8551,0.8569,0.8849,0.9088,0.9502,1.0011,0.9184,0.8806,0.8796,0.8776,0.8776,0.8832,0.8943,0.9343,0.9866,0.9809,0.963,0.9465,0.9465,0.9211,0.8804,2.0605,2.0605,2.1269,2.3418,2.4844,2.5703,2.5703,2.5703,2.5703,2.5703,2.5703,2.5703,2.5703,2.5703,0.0,2.5703,2.375,2.1973,2.0684,2.0605,2.0898,2.1543,2.2578,2.2841,2.2197,2.2485,0.0,2.1985,2.1485,2.1331,2.1504,2.1573,2.1536,2.1417,2.0793,2.0488,2.0395,1.9326,1.7723,1.5951,1.6024,1.5638,1.4717,1.2129,1.2095,1.3396,1.3396,1.298,1.228,1.1446,1.1043,1.0777,1.0097,0.8487,0.725,0.9303,0.9686,0.9463,0.9463,0.9357,0.9224,0.9224,0.941,0.9567,0.9434,0.9209,0.8871,0.8393,0.8569,0.8567,0.7832,0.797,0.8018,0.7411,0.6999,0.673,0.673,0.0,0.0,0.0,0.0,0.0,0.0,0.7734,0.8393,0.0,0.0,0.0,0.0,0.0,0.0,0.9232,0.9052,0.0,0.9257,0.9069,0.9119,0.9328,0.9648,1.0122,1.0677,0.991,0.9291,0.8802,0.9188,0.9105,0.8853,0.9437,1.0467,1.15,1.081,1.0224,0.9814,0.9814,0.9361,0.8804,2.0605,2.0605,0.0,0.0,2.3594,0.0,2.5703,2.5703,2.5703,2.5703,2.5703,2.5703,2.5703,2.5703,2.5703,2.5703,0.0,0.0,0.0,2.0605,2.1328,2.2949,2.3242,2.3269,2.3009,2.3805,2.3746,2.2793,2.2793,2.237,2.16,2.1611,2.1248,2.0616,2.054,2.0536,2.0527,1.9394,1.8203,1.6945,1.562,1.5414,1.5753,1.4414,1.368,1.3396,1.3396,1.3069,1.2498,1.1845,1.1306,1.0801,1.0148,0.9919,0.9905,0.9919,0.9919,0.9905,0.9957,0.9931,0.9893,0.9919,0.9919,0.9828,0.9514,0.9408,0.9209,0.8505,0.8397,0.8265,0.7812,0.7744,0.7725,0.7666,0.7314,0.7059,0.708,0.0,0.0,0.0,0.0,0.0,0.0,0.8818,0.9627,0.0,0.0,0.0,0.0,0.0,1.0614,0.9582,0.9533,0.9552,0.9597,0.9558,0.9832,1.0381,1.0524,1.0831,1.1291,1.0963,1.0195,0.912,0.9895,0.9776,0.9156,0.9938,1.1271,1.2773,1.1458,1.0517,0.9925,0.9865,0.9413,0.8804,0.0,0.0,2.1426,2.4043,2.5156,2.5703,2.5703,2.5703,2.5703,2.5703,2.5703,2.5703,2.5703,2.5703,2.5703,2.5703,2.5703,2.4258,2.082,2.0605,2.0781,2.1191,2.3711,2.4461,2.3108,2.3851,2.3784,2.2793,2.2793,2.2697,2.2485,2.1929,2.1724,2.1759,2.094,2.0598,2.0585,2.0238,1.9161,1.7593,1.6504,1.5559,1.4719,1.4119,1.368,1.3396,1.3396,1.3069,1.2537,1.2137,1.1498,1.0825,1.0409,1.011,0.9944,1.021,1.0084,0.9995,1.0521,1.0298,0.997,1.021,1.0097,0.988,0.9802,0.9581,0.9354,0.9182,0.9204,0.9061,0.8296,0.8248,0.8077,0.7351,0.691,0.676,0.705,0.6751,0.0,0.0,0.7704,0.7763,0.8435,0.9163,0.9742,0.0,0.0,0.0,0.0,1.2476,1.2168,1.1271,1.0847,1.0619,1.0629,1.0302,1.0525,1.1302,1.0835,1.126,1.2474,1.134,1.1199,1.1859,1.0722,1.0881,1.1868,1.103,1.1513,1.2871,1.2539,1.1886,1.1057,1.0694,0.9814,0.8804,2.0605,2.1855,2.3027,2.332,2.4668,2.5703,2.5703,2.5703,2.5703,2.5703,2.5703,2.5703,2.5703,2.5703,2.5703,2.5703,2.5703,2.4902,2.3047,2.1465,2.056,2.0503,2.2358,2.3378,2.3415,2.4386,2.4397,2.3398,2.2601,2.2216,2.2226,2.1468,2.1224,2.1403,2.0841,2.0605,2.0605,2.0524,1.9923,1.889,1.7624,1.6082,1.4526,1.4464,1.4053,1.3494,1.3413,1.3122,1.2687,1.2081,1.1527,1.1015,1.0637,1.025,1.002,1.0599,1.0341,0.9995,1.0532,1.0285,0.9957,1.0135,1.0021,0.9905,0.9905,0.9764,0.9654,0.9733,0.9838,0.9625,0.8813,0.8713,0.8481,0.7528,0.7196,0.7187,0.7598,0.7472,0.0,0.8757,0.8471,0.856,0.9484,0.9976,1.0437,1.0958,1.1907,0.0,1.2803,1.3022,1.283,1.215,1.1836,1.1579,1.1356,1.0867,1.1055,1.189,1.1324,1.1693,1.2881,1.2107,1.2157,1.2832,1.1855,1.1999,1.2861,1.2092,1.2227,1.2861,1.2412,1.1927,1.1395,1.0651,0.9666,0.8804,2.0605,2.2949,2.418,2.1797,2.3769,2.5703,2.5703,2.5703,2.5703,2.5703,2.5703,2.5703,2.5703,2.5703,2.5703,2.5703,2.5661,2.5636,2.5636,2.2919,2.1269,2.1136,2.077,2.1582,2.3787,2.4857,2.493,2.3918,2.235,2.1592,2.1583,2.0784,2.0446,2.0508,2.0577,2.0605,2.0585,2.0526,2.0419,2.0172,1.8657,1.6846,1.503,1.4963,1.4388,1.3601,1.3462,1.3243,1.2926,1.2046,1.1541,1.1224,1.0847,1.0439,1.0276,1.1018,1.0808,1.038,1.0555,1.0405,1.0197,1.0183,1.0157,1.0157,1.0157,1.0157,1.0177,1.0254,1.024,0.9986,0.9259,0.9109,0.8823,0.8098,0.791,0.7996,0.8432,0.0,0.8761,0.9487,0.9255,0.9408,1.0429,1.086,1.1311,1.1841,1.2704,1.3198,1.3198,1.3198,1.3012,1.2615,1.2544,1.2282,1.1811,1.1356,1.1517,1.232,1.1989,1.2253,1.3062,1.3035,1.3065,1.3017,1.2929,1.2881,1.2881,1.2881,1.2881,1.2822,1.2021,1.1475,1.0964,1.0138,0.942,0.8804,2.0605,2.1035,2.2148,2.4492,2.5352,2.5703,2.5703,2.5703,2.5703,2.5703,2.5703,2.5703,2.5703,2.5703,2.5703,2.5703,2.5498,2.5363,2.5363,2.4863,2.4568,2.4543,2.1856,2.1487,2.3926,2.4321,2.4032,2.308,2.237,2.1872,2.1583,2.0831,2.0485,2.0508,2.0577,2.0605,2.0586,2.0474,2.039,2.0265,1.8838,1.7576,1.6402,1.4833,1.4034,1.3663,1.3479,1.3363,1.3243,1.2652,1.1927,1.1244,1.0955,1.0999,1.119,1.1322,1.1831,1.2237,1.1651,1.1575,1.1622,1.14,1.1324,1.1324,1.1324,1.1324,1.1211,1.0725,1.0412,1.0023,0.9462,0.9078,0.8956,0.927,0.8915,0.8794,0.9318,0.0,0.9408,0.9427,0.9753,1.0152,1.0636,1.1169,1.1721,1.2269,1.2851,1.3198,1.3198,1.3198,1.3163,1.3094,1.272,1.2282,1.1811,1.1737,1.1903,1.2377,1.2784,1.3225,1.375,1.3693,1.3637,1.3637,1.3104,1.2881,1.2881,1.2881,1.2881,1.2891,1.2723,1.124,0.9278,0.9894,0.9598,0.8804,2.0605,2.0605,2.1094,2.2676,2.2949,2.3574,2.543,2.5703,2.5703,2.5703,2.5703,2.5703,2.5703,2.5703,2.5703,2.5703,2.5459,2.5303,2.5303,2.5303,2.5303,2.5303,2.3822,2.3605,2.4883,2.4121,2.3689,2.3638,2.2481,2.1828,2.1694,2.0877,2.0521,2.0561,2.0599,2.0573,2.0534,2.0445,2.027,2.0021,1.9459,1.846,1.7156,1.5568,1.4759,1.4357,1.3665,1.3396,1.3295,1.2562,1.2056,1.1652,1.1204,1.0974,1.099,1.1641,1.243,1.2894,1.2157,1.2182,1.2241,1.1725,1.1362,1.1211,1.1525,1.1242,1.1141,1.1816,1.1525,1.106,1.0712,1.0276,0.9897,0.9645,0.9383,0.0,0.0,0.991,1.0183,1.0828,1.0663,1.0974,1.2303,1.2195,1.2266,1.2785,1.306,1.3198,1.3198,1.3198,1.3198,1.3198,1.2978,1.2756,1.2544,1.2282,1.2531,1.3265,1.32,1.358,1.4328,1.3954,1.3815,1.3779,1.3152,1.2881,1.2881,1.2881,1.2881,1.29,1.2897,1.1242,0.8866,0.9304,0.918,0.8804,2.0605,2.0605,2.0605,2.0605,2.0605,2.1758,2.5176,2.5703,2.5703,2.5703,2.5703,2.5703,2.5703,2.5703,2.5662,2.5605,2.5427,2.5303,2.5303,2.5149,2.5107,2.5284,2.5303,2.5441,2.5683,2.4434,2.386,2.4023,2.2566,2.1836,2.1775,2.0914,2.055,2.0605,2.0578,2.0538,2.05,2.0421,2.0181,1.9877,1.9896,1.902,1.7577,1.6394,1.546,1.4667,1.3921,1.3549,1.3295,1.2562,1.2218,1.2009,1.1476,1.1131,1.1121,1.2044,1.2997,1.3568,1.2842,1.2867,1.2947,1.229,1.1674,1.1356,1.1784,1.1371,1.1253,1.2628,1.2462,1.2036,1.1851,1.1323,1.0744,1.016,0.0,0.0,0.0,1.0522,1.0982,1.1902,1.1657,1.2004,1.3557,1.2987,1.2715,1.316,1.3198,1.3198,1.3198,1.3198,1.3317,1.3547,1.3582,1.3525,1.3421,1.3309,1.3557,1.4197,1.393,1.4174,1.489,1.4275,1.4003,1.3956,1.32,1.2881,1.2881,1.2881,1.2511,1.2006,1.2676,1.1217,0.8806,0.879,0.8851,0.8911,2.0605,2.0605,2.0605,2.0605,2.0605,2.1758,2.5176,2.5703,2.5703,2.5703,2.5703,2.5703,2.5703,2.5703,2.5601,2.5346,2.5313,2.5303,2.5303,2.4648,2.4588,2.5264,2.5303,2.5441,2.5683,2.5586,2.4746,2.3183,2.2557,2.2104,2.1783,2.0974,2.0605,2.0605,2.0531,2.0496,2.0485,2.0366,2.0221,2.0047,1.9751,1.8849,1.7621,1.6973,1.5503,1.3868,1.428,1.3971,1.3346,1.3033,1.2559,1.2056,1.1766,1.2052,1.2554,1.265,1.3755,1.4831,1.4156,1.4162,1.4269,1.3834,1.3287,1.2821,1.2808,1.2519,1.2352,1.266,1.2541,1.2335,1.2173,1.1381,1.089,1.1377,0.0,0.0,1.0591,1.1477,1.1889,1.1509,1.2647,1.3359,1.3072,1.2984,1.3031,1.3195,1.3198,1.3198,1.3198,1.3198,1.3667,1.4647,1.466,1.4462,1.4022,1.4982,1.5244,1.4838,1.5312,1.5545,1.5604,1.4944,1.4652,1.456,1.3382,1.2881,1.2881,1.2881,1.1381,0.9353,1.1935,1.1217,0.8806,0.8817,0.8978,0.915,2.0605,2.0605,2.0605,2.0605,2.2344,2.4132,2.5288,2.5453,2.5453,2.5453,2.5598,2.5703,2.5703,2.5703,2.5595,2.5312,2.5303,2.5303,2.5303,2.462,2.4543,2.5264,2.5303,2.5441,2.5683,2.5703,2.5371,2.4707,2.3437,2.273,2.2578,2.1226,2.057,2.0536,2.0513,2.0446,2.0369,2.0331,2.0201,2.0017,1.9707,1.9298,1.8726,1.7327,1.6202,1.5302,1.4709,1.4022,1.3363,1.3085,1.2743,1.2329,1.1849,1.2045,1.2607,1.3457,1.4356,1.5107,1.514,1.5007,1.4721,1.4052,1.3438,1.294,1.2634,1.2581,1.2745,1.3231,1.3171,1.3084,1.3124,1.2376,1.1726,1.1613,0.0,1.164,1.1104,1.2232,1.2995,1.2617,1.3249,1.3772,1.3915,1.3704,1.3467,1.322,1.3459,1.3648,1.3648,1.4265,1.4796,1.5216,1.6271,1.6445,1.5613,1.5661,1.5768,1.5906,1.5741,1.5869,1.6166,1.5548,1.505,1.4652,1.3826,1.3238,1.2881,1.2881,1.2269,1.1274,1.0623,1.0097,0.9585,0.9009,0.8985,0.9294,2.0605,2.0605,2.0605,2.0605,2.3366,2.5517,2.5321,2.5303,2.5303,2.5303,2.5465,2.5567,2.5567,2.5567,2.5508,2.5322,2.5303,2.5303,2.5303,2.462,2.4543,2.5264,2.5303,2.5383,2.5564,2.5659,2.5703,2.5703,2.4141,2.3297,2.3059,2.1357,2.0527,2.0476,2.0458,2.0389,2.0312,2.0312,2.0171,1.9914,1.9736,1.9612,1.9364,1.8017,1.7187,1.662,1.5659,1.479,1.4055,1.3876,1.347,1.3022,1.2727,1.2745,1.3101,1.4226,1.4818,1.5195,1.5668,1.5551,1.5134,1.4278,1.3512,1.2854,1.2627,1.2562,1.2787,1.364,1.3831,1.3849,1.394,1.3302,1.2613,1.1963,1.2455,1.2609,1.1666,1.2884,1.3828,1.3646,1.4069,1.4438,1.4679,1.4438,1.4084,1.3648,1.3802,1.398,1.4152,1.5145,1.5881,1.6295,1.7615,1.8033,1.7526,1.6826,1.6554,1.6758,1.622,1.6145,1.6466,1.5864,1.5276,1.4652,1.405,1.3467,1.2881,1.2881,1.29,1.2695,1.0796,1.0322,1.0553,1.0037,1.0041,1.0348,2.0605,2.0605,2.0605,2.0605,2.3187,2.5264,2.5303,2.5303,2.5303,2.5303,2.5303,2.5303,2.5303,2.5303,2.5303,2.5303,2.5303,2.5303,2.5284,2.4604,2.4543,2.5253,2.5303,2.5303,2.5303,2.5558,2.5703,2.5703,2.4551,2.3698,2.3041,2.1317,2.045,2.0402,2.0334,2.0312,2.0312,2.0312,2.0098,1.979,1.979,1.9593,1.9274,1.9086,1.8376,1.7471,1.7198,1.6446,1.5595,1.5595,1.4933,1.4179,1.4567,1.4435,1.4242,1.4903,1.5104,1.5195,1.5668,1.5799,1.558,1.4721,1.3664,1.283,1.2896,1.2532,1.2559,1.3842,1.4302,1.4501,1.4501,1.4065,1.3424,1.2564,1.2644,1.2678,1.2255,1.3417,1.4311,1.4311,1.5181,1.561,1.5165,1.5104,1.4951,1.4533,1.413,1.4186,1.4769,1.5646,1.6727,1.8056,1.848,1.9031,1.9675,1.865,1.7827,1.7312,1.6752,1.6522,1.6466,1.5864,1.5276,1.4652,1.405,1.3457,1.2881,1.2881,1.29,1.2908,1.2908,1.2346,1.1587,1.1982,1.2283,1.2597,2.0564,2.0483,2.0394,2.0394,2.1176,2.2573,2.4937,2.5303,2.5303,2.5303,2.5303,2.5303,2.5303,2.5303,2.5303,2.5303,2.5303,2.5084,2.4556,2.4321,2.4303,2.4526,2.5005,2.5303,2.5303,2.5387,2.5466,2.557,2.4477,2.3437,2.2447,2.1059,2.0381,2.0334,2.0315,2.0312,2.0312,2.0312,2.0233,2.0135,1.9899,1.9731,1.9606,1.9164,1.8376,1.7471,1.7198,1.6446,1.5595,1.5595,1.5285,1.4894,1.5066,1.4831,1.4663,1.5373,1.5359,1.5195,1.5668,1.5799,1.5668,1.5074,1.4667,1.415,1.3178,1.3618,1.4164,1.3881,1.4407,1.4907,1.4907,1.4581,1.4056,1.3432,1.3917,1.4069,1.3119,1.4338,1.5178,1.4718,1.5338,1.561,1.5165,1.5538,1.5438,1.456,1.5095,1.5698,1.6235,1.7321,1.8115,1.85,1.9081,1.9495,1.969,1.865,1.8027,1.7867,1.6951,1.6522,1.6466,1.6324,1.5656,1.4709,1.4514,1.3836,1.2881,1.2881,1.29,1.2881,1.2881,1.2982,1.2976,1.25,1.2413,1.2655,2.0457,2.0383,2.0312,2.0312,2.0312,2.0977,2.3015,2.4438,2.5192,2.4904,2.4864,2.4864,2.4864,2.4864,2.4968,2.5264,2.5303,2.5,2.4266,2.419,2.419,2.419,2.4636,2.4993,2.5284,2.5303,2.5341,2.5428,2.4105,2.3022,2.213,2.0924,2.035,2.0312,2.0312,2.0312,2.0312,2.0312,2.0225,2.0088,1.9888,1.9719,1.9567,1.9243,1.8693,1.8057,1.7785,1.722,1.6621,1.6516,1.6273,1.5983,1.5735,1.551,1.5433,1.589,1.5711,1.5448,1.5712,1.5799,1.5741,1.5448,1.4947,1.4389,1.3748,1.4107,1.4479,1.4292,1.5032,1.559,1.5178,1.5244,1.5077,1.4167,1.4786,1.5096,1.4317,1.5132,1.5706,1.5437,1.5826,1.6025,1.5769,1.6339,1.6384,1.5608,1.6293,1.6932,1.7352,1.8224,1.8822,1.9091,1.948,1.969,1.969,1.8855,1.8419,1.8419,1.7353,1.6837,1.6795,1.6595,1.5964,1.505,1.4789,1.4018,1.2918,1.289,1.2881,1.29,1.3126,1.3396,1.3657,1.338,1.3479,1.3776,2.0312,2.0312,2.0312,2.0312,2.0312,2.0312,2.0312,2.3093,2.4956,2.4284,2.419,2.419,2.419,2.419,2.4493,2.5243,2.5243,2.4917,2.4228,2.419,2.419,2.419,2.4266,2.462,2.5293,2.5303,2.5303,2.5303,2.378,2.2755,2.2199,2.0974,2.0408,2.0408,2.0331,2.0312,2.0312,2.0312,2.0116,1.9843,1.9802,1.9606,1.9335,1.9305,1.9166,1.8931,1.8697,1.841,1.8125,1.7883,1.7595,1.7228,1.6515,1.6312,1.6355,1.6301,1.6052,1.5799,1.5799,1.5799,1.5799,1.5799,1.4834,1.4044,1.4453,1.4195,1.4107,1.4914,1.5962,1.6395,1.5413,1.6051,1.6257,1.4921,1.5358,1.5812,1.571,1.5814,1.6076,1.6388,1.6637,1.6801,1.6801,1.7339,1.7596,1.7282,1.7589,1.7889,1.8158,1.8569,1.9076,1.966,1.9711,1.9762,1.969,1.9244,1.8991,1.8893,1.7827,1.7312,1.7271,1.6752,1.6194,1.5588,1.4971,1.4046,1.2997,1.2899,1.2881,1.2969,1.3441,1.3649,1.3748,1.435,1.4893,1.5264,2.0312,2.0312,2.0312,2.0312,2.0312,2.0312,2.0312,2.2671,2.4374,2.4228,2.419,2.419,2.419,2.419,2.4493,2.5243,2.4766,2.4356,2.4209,2.419,2.419,2.419,2.4752,2.5149,2.5303,2.5303,2.5303,2.5303,2.4937,2.4245,2.3244,2.1889,2.1235,2.1216,2.0581,2.0312,2.0312,2.0312,2.026,2.0162,1.9909,1.9695,1.9526,1.9361,1.9031,1.8678,1.8604,1.829,1.7883,1.7833,1.7766,1.7625,1.7186,1.6872,1.6633,1.6382,1.6052,1.5799,1.5799,1.5799,1.5799,1.5799,1.5697,1.5473,1.5053,1.5153,1.5286,1.5136,1.5962,1.6636,1.6395,1.6546,1.6605,1.6288,1.6215,1.6264,1.6428,1.6772,1.7088,1.7346,1.7462,1.7473,1.7473,1.7608,1.7933,1.8491,1.8484,1.8554,1.8737,1.9199,1.954,1.969,2.0,2.0035,1.969,1.9914,1.9636,1.8893,1.7827,1.7312,1.7271,1.6752,1.6194,1.5588,1.4971,1.4261,1.3585,1.3094,1.2881,1.2891,1.3037,1.3341,1.3753,1.4086,1.4441,1.484,2.0312,2.0312,2.0312,2.0312,2.0312,2.0312,2.0312,2.1197,2.1859,2.1859,2.1859,2.1859,2.1859,2.3254,2.4357,2.4737,2.4737,2.4723,2.4723,2.4723,2.4572,2.4209,2.4904,2.5303,2.5303,2.3726,2.3688,2.5303,2.4505,2.3928,2.3553,2.1773,2.0927,2.0908,2.0485,2.0312,2.0285,2.0199,2.0126,2.0031,1.9797,1.9612,1.9444,1.935,1.9082,1.877,1.8659,1.8249,1.7811,1.7811,1.7811,1.7766,1.7595,1.7296,1.6977,1.6633,1.6394,1.6246,1.6095,1.6039,1.6116,1.6435,1.6443,1.6283,1.5946,1.6138,1.639,1.6358,1.7048,1.7458,1.6831,1.7219,1.7443,1.6816,1.6849,1.715,1.7667,1.7608,1.7685,1.8207,1.8212,1.8313,1.8627,1.8657,1.8822,1.9236,1.9218,1.9209,1.9266,1.9566,1.969,1.969,1.9894,1.9909,1.969,1.9909,1.9788,1.9281,1.8458,1.7947,1.7666,1.7105,1.657,1.6008,1.5377,1.4778,1.4201,1.3678,1.3268,1.2891,1.2899,1.2641,1.2398,1.3075,1.3257,1.3359,2.0312,2.0312,2.0312,2.0312,2.0312,2.0312,2.0312,1.9832,1.9434,1.932,1.9305,1.9305,1.9305,2.173,2.3401,2.3524,2.4094,2.4438,2.4438,2.4438,2.4167,2.3558,2.4119,2.4438,2.4438,2.1707,2.1938,2.5303,2.3524,2.3081,2.3842,2.1573,2.0581,2.0716,2.0427,2.0312,2.0296,2.0089,1.9918,1.9755,1.963,1.9485,1.9305,1.9305,1.915,1.8914,1.8678,1.8249,1.7811,1.7839,1.7856,1.7811,1.7839,1.7618,1.7248,1.6952,1.6895,1.6807,1.6554,1.6493,1.6668,1.7222,1.7197,1.704,1.704,1.7128,1.729,1.7617,1.8253,1.8373,1.7249,1.7936,1.8343,1.7219,1.7526,1.8176,1.8879,1.8501,1.8455,1.9172,1.9088,1.9146,1.9666,1.969,1.969,1.969,1.969,1.969,1.969,1.969,1.969,1.969,1.9782,1.9782,1.969,1.9782,1.9782,1.969,1.9244,1.8688,1.8066,1.7544,1.6993,1.6466,1.5864,1.5276,1.4663,1.4118,1.3508,1.289,1.2893,1.2247,1.1383,1.2,1.1991,1.191,2.0312,2.0312,2.0312,2.0312,2.0312,2.0312,2.0312,2.0216,1.9971,1.9394,1.9305,1.9305,1.9305,1.9693,2.0201,2.0776,2.0924,2.0985,2.0985,2.0985,2.0933,2.0833,2.0924,2.0985,2.0985,2.0542,2.1938,2.5303,2.3158,2.312,2.5014,2.2504,2.1735,2.2389,2.0946,2.0312,2.0296,2.0089,1.9855,1.9632,1.9604,1.9485,1.9305,1.9305,1.9031,1.8659,1.8604,1.8249,1.7833,1.8078,1.7992,1.7856,1.8061,1.776,1.728,1.7248,1.7231,1.7226,1.7169,1.7334,1.7539,1.7629,1.8047,1.8433,1.8433,1.7993,1.7617,1.7697,1.8253,1.8642,1.8463,1.8583,1.8642,1.8463,1.8594,1.8866,1.928,1.9791,2.0286,2.067,2.0329,1.9997,1.9711,1.969,1.969,1.969,1.969,1.969,1.969,1.969,1.969,1.969,2.0035,2.0054,1.9711,2.007,2.0019,1.969,1.9639,1.908,1.8066,1.7544,1.6993,1.6466,1.5864,1.5276,1.4595,1.3518,1.2978,1.2919,1.2889,1.3087,1.3136,1.1572,1.1569,1.2023,2.0312,2.0312,2.0312,2.0312,2.0312,2.0312,2.0312,2.0312,2.018,1.9899,1.9526,1.9305,1.9305,1.9632,1.9981,2.0277,2.0312,2.0312,2.0312,2.0312,2.0312,2.0312,2.0408,2.0465,2.0465,2.0427,2.1455,2.357,2.2821,2.2947,2.387,2.1793,2.1523,2.2735,2.1043,2.0244,2.0126,1.996,1.9774,1.9604,1.9481,1.938,1.9305,1.9305,1.8998,1.8513,1.7803,1.7401,1.7228,1.7486,1.7675,1.7856,1.8121,1.7893,1.7633,1.784,1.8044,1.8241,1.8485,1.8437,1.8454,1.8827,1.8796,1.8807,1.9166,1.9031,1.8822,1.8822,1.9046,1.9136,1.8777,1.9001,1.9136,1.8762,1.9254,1.9814,2.0241,2.0558,2.0733,2.0618,2.0416,2.0158,1.9747,1.969,1.969,1.969,1.969,1.969,1.969,1.969,1.969,1.969,1.9874,1.9874,1.969,1.9874,1.9874,1.969,1.969,1.9132,1.8106,1.7867,1.7312,1.6479,1.6238,1.5555,1.4652,1.415,1.3494,1.2995,1.3918,1.4246,1.4007,1.2201,1.1592,1.1655]},{"header":{"parameterUnit":"m.s-1","parameterCategory":1,"la1":30.6,"la2":28.766,"lo1":-90.7593,"lo2":-88.6598,"dy":0.0162,"dx":0.0183,"nx":116,"ny":114,"refTime":"2023-06-04T06:00:00:Z","depth":0,"parameterNumber":3,"parameterNumberName":"V-component_of_WINDS"},"data":[0.0,0.0,0.0,0.0,0.0,0.0,0.0,0.0,0.0,0.0,0.0,0.0,0.0,0.0,0.0,0.0,0.0,0.0,0.0,0.0,0.0,0.0,0.0,0.0,0.0,0.0,0.0,0.0,0.0,0.0,0.0,0.0,0.0,0.0,0.0,0.0,0.0,0.0,0.0,0.0,0.0,0.0,0.0,0.0,0.0,0.0,0.0,0.0,0.0,0.0,0.0,0.0,0.0,0.0,0.0,0.0,0.0,0.0,0.0,0.0,0.0,0.0,0.0,0.0,0.0,0.0,0.0,0.0,0.0,0.0,0.0,0.0,0.0,0.0,0.0,0.0,0.0,0.0,0.0,0.0,0.0,0.0,0.0,0.0,0.0,0.0,0.0,0.0,0.0,0.0,0.0,0.0,0.0,0.0,0.0,0.0,0.0,0.0,0.0,0.0,0.0,0.0,0.0,0.0,0.0,0.0,0.0,0.0,0.0,0.0,0.0,0.0,0.0,0.0,0.0,0.0,0.0,0.0,0.0,0.0,0.0,0.0,0.0,0.0,0.0,0.0,0.0,0.0,0.0,0.0,0.0,0.0,0.0,0.0,0.0,0.0,0.0,0.0,0.0,0.0,0.0,0.0,0.0,0.0,0.0,0.0,0.0,0.0,0.0,0.0,0.0,0.0,0.0,0.0,0.0,0.0,0.0,0.0,0.0,0.0,0.0,0.0,0.0,0.0,0.0,0.0,0.0,0.0,0.0,0.0,0.0,0.0,0.0,0.0,0.0,0.0,0.0,0.0,0.0,0.0,0.0,0.0,0.0,0.0,0.0,0.0,0.0,0.0,0.0,0.0,0.0,0.0,0.0,0.0,0.0,0.0,0.0,0.0,0.0,0.0,0.0,0.0,0.0,0.0,0.0,0.0,0.0,0.0,0.0,0.0,0.0,0.0,0.0,0.0,0.0,0.0,0.0,0.0,0.0,0.0,0.0,0.0,0.0,0.0,0.0,0.0,0.0,0.0,0.0,0.0,0.0,0.0,0.0,0.0,0.0,0.0,0.0,0.0,0.0,0.0,0.0,0.0,0.0,0.0,0.0,0.0,0.0,0.0,0.0,0.0,0.0,0.0,0.0,0.0,0.0,0.0,0.0,0.0,0.0,0.0,0.0,0.0,0.0,0.0,0.0,0.0,0.0,0.0,0.0,0.0,0.0,0.0,0.0,0.0,0.0,0.0,0.0,0.0,0.0,0.0,0.0,0.0,0.0,0.0,0.0,0.0,0.0,0.0,0.0,0.0,0.0,0.0,0.0,0.0,0.0,0.0,0.0,0.0,0.0,0.0,0.0,0.0,0.0,0.0,0.0,0.0,0.0,0.0,0.0,0.0,0.0,0.0,0.0,0.0,0.0,0.0,0.0,0.0,0.0,0.0,0.0,0.0,0.0,0.0,0.0,0.0,0.0,0.0,0.0,0.0,0.0,0.0,0.0,0.0,0.0,0.0,0.0,0.0,0.0,0.0,0.0,0.0,0.0,0.0,0.0,0.0,0.0,0.0,0.0,0.0,0.0,0.0,0.0,0.0,0.0,0.0,0.0,0.0,0.0,0.0,0.0,0.0,0.0,0.0,0.0,0.0,0.0,0.0,0.0,0.0,0.0,0.0,0.0,0.0,0.0,0.0,0.0,0.0,0.0,0.0,0.0,0.0,0.0,0.0,0.0,0.0,0.0,0.0,0.0,0.0,0.0,0.0,0.0,0.0,0.0,0.0,0.0,0.0,0.0,0.0,0.0,0.0,0.0,0.0,0.0,0.0,0.0,0.0,0.0,0.0,0.0,0.0,0.0,0.0,0.0,0.0,0.0,0.0,0.0,0.0,0.0,0.0,0.0,0.0,0.0,0.0,0.0,0.0,0.0,0.0,0.0,0.0,0.0,0.0,0.0,0.0,0.0,0.0,0.0,0.0,0.0,0.0,0.0,0.0,0.0,0.0,0.0,0.0,0.0,0.0,0.0,0.0,0.0,0.0,0.0,0.0,0.0,0.0,0.0,0.0,0.0,0.0,0.0,0.0,0.0,0.0,0.0,0.0,0.0,0.0,0.0,0.0,0.0,0.0,0.0,0.0,0.0,0.0,0.0,0.0,0.0,0.0,0.0,0.0,0.0,0.0,0.0,0.0,0.0,0.0,0.0,0.0,0.0,0.0,0.0,0.0,0.0,0.0,0.0,0.0,0.0,0.0,0.0,0.0,0.0,0.0,0.0,0.0,0.0,0.0,0.0,0.0,0.0,0.0,0.0,0.0,0.0,0.0,0.0,0.0,0.0,0.0,0.0,0.0,0.0,0.0,0.0,0.0,0.0,0.0,0.0,0.0,0.0,0.0,0.0,0.0,0.0,0.0,0.0,0.0,0.0,0.0,0.0,0.0,0.0,0.0,0.0,0.0,0.0,0.0,0.0,0.0,0.0,0.0,0.0,0.0,0.0,0.0,0.0,0.0,0.0,0.0,0.0,0.0,0.0,0.0,0.0,0.0,0.0,0.0,0.0,0.0,0.0,0.0,0.0,0.0,0.0,0.0,0.0,0.0,0.0,0.0,0.0,0.0,0.0,0.0,0.0,0.0,0.0,0.0,0.0,0.0,0.0,0.0,0.0,0.0,0.0,0.0,0.0,0.0,0.0,0.0,0.0,0.0,0.0,0.0,0.0,0.0,0.0,0.0,0.0,0.0,0.0,0.0,0.0,0.0,0.0,0.0,0.0,0.0,0.0,0.0,0.0,0.0,0.0,0.0,0.0,0.0,0.0,0.0,0.0,0.0,0.0,0.0,0.0,0.0,0.0,0.0,0.0,0.0,0.0,0.0,0.0,0.0,0.0,0.0,0.0,0.0,0.0,0.0,0.0,0.0,0.0,0.0,0.0,0.0,0.0,0.0,0.0,0.0,0.0,0.0,0.0,0.0,0.0,0.0,0.0,0.0,0.0,0.0,0.0,0.0,0.0,0.0,0.0,0.0,0.0,0.0,0.0,0.0,0.0,0.0,0.0,0.0,0.0,0.0,0.0,0.0,0.0,0.0,0.0,0.0,0.0,0.0,0.0,0.0,0.0,0.0,0.0,0.0,0.0,0.0,0.0,0.0,0.0,0.0,0.0,0.0,0.0,0.0,0.0,0.0,0.0,0.0,0.0,0.0,0.0,0.0,0.0,0.0,0.0,0.0,0.0,0.0,0.0,0.0,0.0,0.0,0.0,0.0,0.0,0.0,0.0,0.0,0.0,0.0,0.0,0.0,0.0,0.0,0.0,0.0,0.0,0.0,0.0,0.0,0.0,0.0,0.0,0.0,0.0,0.0,0.0,0.0,0.0,0.0,0.0,0.0,0.0,0.0,0.0,0.0,0.0,0.0,0.0,0.0,0.0,0.0,0.0,0.0,0.0,0.0,0.0,0.0,0.0,0.0,0.0,0.0,0.0,0.0,0.0,0.0,0.0,0.0,0.0,0.0,0.0,0.0,0.0,0.0,0.0,0.0,0.0,0.0,0.0,0.0,0.0,0.0,0.0,0.0,0.0,0.0,0.0,0.0,0.0,0.0,0.0,0.0,0.0,0.0,0.0,0.0,0.0,0.0,0.0,0.0,0.0,0.0,0.0,0.0,0.0,0.0,0.0,0.0,0.0,0.0,0.0,0.0,0.0,0.0,0.0,0.0,0.0,0.0,0.0,0.0,0.0,0.0,0.0,0.0,0.0,0.0,0.0,0.0,0.0,0.0,0.0,0.0,0.0,0.0,0.0,0.0,0.0,0.0,0.0,0.0,0.0,0.0,0.0,0.0,0.0,0.0,0.0,0.0,0.0,0.0,0.0,0.0,0.0,0.0,0.0,0.0,0.0,0.0,0.0,0.0,0.0,0.0,0.0,0.0,0.0,0.0,0.0,0.0,0.0,0.0,0.0,0.0,0.0,0.0,0.0,0.0,0.0,0.0,0.0,0.0,0.0,0.0,0.0,0.0,0.0,0.0,0.0,0.0,0.0,0.0,0.0,0.0,0.0,0.0,0.0,0.0,0.0,0.0,0.0,0.0,0.0,0.0,0.0,0.0,0.0,0.0,0.0,0.0,0.0,0.0,0.0,0.0,0.0,0.0,0.0,0.0,0.0,0.0,0.0,0.0,0.0,0.0,0.0,0.0,0.0,0.0,0.0,0.0,0.0,0.0,0.0,0.0,0.0,0.0,0.0,0.0,0.0,0.0,0.0,0.0,0.0,0.0,0.0,0.0,0.0,0.0,0.0,0.0,0.0,0.0,0.0,0.0,0.0,0.0,0.0,0.0,0.0,0.0,0.0,0.0,0.0,0.0,0.0,0.0,0.0,0.0,0.0,0.0,0.0,0.0,0.0,0.0,0.0,0.0,0.0,0.0,0.0,0.0,0.0,0.0,0.0,0.0,0.0,0.0,0.0,0.0,0.0,0.0,0.0,0.0,0.0,0.0,0.0,0.0,0.0,0.0,0.0,0.0,0.0,0.0,0.0,0.0,0.0,0.0,0.0,0.0,0.0,0.0,0.0,0.0,0.0,0.0,0.0,0.0,0.0,0.0,0.0,0.0,0.0,0.0,0.0,0.0,0.0,0.0,0.0,0.0,0.0,0.0,0.0,0.0,0.0,0.0,0.0,0.0,0.0,0.0,0.0,0.0,0.0,0.0,0.0,0.0,0.0,0.0,0.0,0.0,0.0,0.0,0.0,0.0,0.0,0.0,0.0,0.0,0.0,0.0,0.0,0.0,0.0,0.0,0.0,0.0,0.0,0.0,0.0,0.0,0.0,0.0,0.0,0.0,0.0,0.0,0.0,0.0,0.0,0.0,0.0,0.0,0.0,0.0,0.0,0.0,0.0,0.0,0.0,0.0,0.0,0.0,0.0,0.0,0.0,0.0,0.0,0.0,0.0,0.0,0.0,0.0,0.0,0.0,0.0,0.0,0.0,0.0,0.0,0.0,0.0,0.0,0.0,0.0,0.0,0.0,0.0,0.0,0.0,0.0,0.0,0.0,0.0,0.0,0.0,0.0,0.0,0.0,0.0,0.0,0.0,0.0,0.0,0.0,0.0,0.0,0.0,0.0,0.0,0.0,0.0,0.0,0.0,0.0,0.0,0.0,0.0,0.0,0.0,0.0,0.0,0.0,0.0,0.0,0.0,0.0,0.0,0.0,0.0,0.0,0.0,0.0,0.0,0.0,0.0,0.0,0.0,0.0,0.0,0.0,0.0,0.0,0.0,0.0,0.0,0.0,0.0,0.0,0.0,0.0,0.0,0.0,0.0,0.0,0.0,0.0,0.0,0.0,0.0,0.0,0.0,0.0,0.0,0.0,0.0,0.0,0.0,0.0,0.0,0.0,0.0,0.0,0.0,0.0,0.0,0.0,0.0,0.0,0.0,0.0,0.0,0.0,0.0,0.0,0.0,0.0,0.0,0.0,0.0,0.0,0.0,0.0,0.0,0.0,0.0,0.0,0.0,0.0,0.0,0.0,0.0,0.0,0.0,0.0,0.0,0.0,0.0,0.0,0.0,0.0,0.0,0.0,0.0,0.0,0.0,0.0,0.0,0.0,0.0,0.0,0.0,0.0,0.0,0.0,0.0,0.0,0.0,0.0,0.0,0.0,0.0,0.0,0.0,0.0,0.0,0.0,0.0,0.0,0.0,0.0,0.0,0.0,0.0,0.0,0.0,0.0,0.0,0.0,0.0,0.0,0.0,0.0,0.0,0.0,0.0,0.0,0.0,0.0,0.0,0.0,0.0,0.0,0.0,0.0,0.0,0.0,0.0,0.0,0.0,0.0,0.0,0.0,0.0,0.0,0.0,0.0,0.0,0.0,0.0,0.0,0.0,0.0,0.0,0.0,0.0,0.0,0.0,0.0,0.0,0.0,0.0,0.0,0.0,0.0,0.0,0.0,0.0,0.0,0.0,0.0,0.0,0.0,0.0,0.0,0.0,0.0,0.0,0.0,0.0,0.0,0.0,0.0,0.0,0.0,0.0,0.0,0.0,0.0,0.0,0.0,0.0,0.0,0.0,0.0,0.0,0.0,0.0,0.0,0.0,0.0,0.0,0.0,0.0,0.0,0.0,0.0,0.0,0.0,1.2711,0.0,0.0,0.0,0.0,0.0,0.0,0.0,0.0,0.0,0.0,0.0,0.0,0.0,0.0,0.0,0.0,0.0,0.0,0.0,0.0,0.0,0.0,0.0,0.0,0.0,0.0,0.0,0.0,0.0,0.0,0.0,0.0,0.0,0.0,0.0,0.0,0.0,0.0,-1.6916,-1.3958,-1.123,-0.8754,-0.4318,0.1482,0.8428,0.0,0.0,0.0,0.0,0.0,0.0,0.0,0.0,0.0,0.0,0.0,0.0,0.0,0.0,0.0,0.0,0.0,0.0,0.0,0.0,0.0,0.0,0.0,0.0,0.0,0.0,0.0,0.0,0.0,0.0,0.0,0.0,0.0,0.0,0.0,0.0,0.0,0.0,0.0,0.0,0.0,0.0,0.0,0.0,0.0,0.0,0.0,0.0,0.0,0.0,0.0,0.0,0.0,0.0,0.0,0.0,0.0,0.0,0.0,0.0,0.0,0.0,0.0,0.0,0.0,0.0,0.0,0.0,0.0,0.0,0.0,1.2435,0.0,0.0,0.0,0.0,0.0,0.0,0.0,0.0,0.0,0.0,0.0,0.0,0.0,0.0,0.0,0.0,0.0,0.0,0.0,0.0,0.0,0.0,0.0,1.0249,1.0191,1.202,1.3507,1.4067,0.0,0.0,0.0,0.0,0.0,0.0,-2.0928,-2.0393,-1.8819,-1.6283,-1.3351,-0.904,-0.3435,-0.005,0.3585,0.751,1.0956,0.0,0.0,0.0,0.0,0.0,0.0,0.0,0.0,0.0,0.0,0.0,0.0,0.0,0.0,0.0,0.0,0.0,0.0,0.0,0.0,0.0,0.0,0.0,0.0,0.0,0.0,0.0,0.0,0.0,0.0,0.0,0.0,0.0,0.0,0.0,0.0,0.0,0.0,0.0,0.0,0.0,0.0,0.0,0.0,0.0,0.0,0.0,0.0,0.0,0.0,0.0,0.0,0.0,0.0,0.0,0.0,0.0,0.0,0.0,0.0,0.0,0.0,0.0,0.31,0.6176,0.7814,0.9728,0.9669,0.8086,0.8809,0.9505,1.0221,0.0,0.0,0.0,0.0,0.0,0.0,0.0,0.0,0.0,0.0,0.0,0.0,0.0,0.0,0.0,0.0,0.0,0.0,0.0,0.0,0.0,0.0,0.9794,1.1505,0.9452,1.0541,1.1474,1.1782,0.0,0.0,0.0,0.0,0.0,-2.23,-2.0432,-1.8395,-1.6218,-1.1674,-0.6766,-0.1609,0.1689,0.5013,0.8373,0.9299,1.0573,1.1978,0.0,0.0,0.0,0.0,0.0,0.0,0.0,0.0,0.0,0.0,0.0,0.0,0.0,0.0,0.0,0.0,0.0,0.0,0.0,0.0,0.0,0.0,0.0,0.0,0.0,0.0,0.0,0.0,0.0,0.0,0.0,0.0,0.0,0.0,0.0,0.0,0.0,0.0,0.0,0.0,0.0,1.2558,1.2167,0.0,0.0,0.0,0.0,0.0,0.0,0.0,0.0,0.0,0.0,0.0,0.0,0.0,-1.1094,-0.9947,-0.8898,-0.7088,-0.4517,-0.2079,0.0373,0.28,0.4103,0.4698,0.4619,0.4476,0.0,0.7221,0.8026,0.0,0.0,0.0,0.0,0.0,0.0,0.0,0.0,0.0,0.0,0.0,0.0,0.0,0.0,0.0,0.0,0.0,0.0,0.0,0.0,0.0,1.0615,1.2033,0.9787,1.1057,1.1509,1.0319,1.0573,0.0,0.0,0.0,-0.8666,-1.1791,-1.7997,-1.8331,-1.243,-0.9534,-0.4901,0.1345,0.468,0.7568,1.0058,1.0,1.0105,1.0442,0.993,0.0,0.0,0.0,0.0,0.0,0.0,0.0,0.0,0.0,0.0,0.0,0.0,0.0,0.0,0.0,0.0,0.0,0.0,0.0,0.0,0.0,0.0,0.0,0.0,0.0,0.0,0.0,0.0,0.0,0.0,0.0,0.0,0.0,0.0,0.0,0.0,0.0,0.0,0.0,1.0317,0.9961,1.0904,0.9956,0.9791,0.0,0.0,0.0,0.0,0.0,0.0,0.0,0.0,0.0,-1.2036,-1.1645,-1.0591,-0.8826,-0.7937,-0.6074,-0.3285,-0.1676,0.0502,0.3183,0.4048,0.4921,0.5794,0.5272,0.5963,0.7394,0.7598,0.9059,1.132,0.0,0.0,0.0,0.0,1.5376,1.6532,0.0,0.0,0.0,0.0,0.0,0.0,0.0,0.0,0.0,0.0,0.0,0.0,0.8923,1.095,1.1748,1.054,1.1478,1.1472,1.0035,1.0401,1.1015,1.1695,0.367,-0.0843,-0.0856,-1.1234,-1.3231,-0.6257,-0.4744,-0.08,0.5434,0.8205,1.0498,1.2232,1.1701,1.0838,0.9719,0.8711,0.7967,0.7389,0.0,0.0,0.0,0.0,0.0,0.0,0.0,0.0,0.0,0.0,0.0,0.0,0.0,0.0,0.0,0.0,0.0,0.0,0.0,0.0,0.0,0.0,0.0,0.0,0.0,0.0,0.0,0.0,0.0,0.0,0.0,0.0,0.0,0.0,0.0,0.0,0.0,0.6767,0.6951,0.9259,0.8824,0.8552,0.0,0.0,0.0,0.0,0.0,0.0,-1.3322,-1.2984,-1.2388,-1.1549,-1.1115,-0.9807,-0.7613,-0.6696,-0.4754,-0.1867,-0.0198,0.1873,0.4256,0.5128,0.6185,0.7398,0.7005,0.7382,0.8342,0.8072,0.912,1.1024,1.244,1.3826,1.4961,1.4506,1.5365,1.6666,0.0,0.0,0.0,0.0,0.0,0.0,0.0,0.0,0.0,0.0,0.0,0.7364,0.9579,1.0158,1.045,1.0755,1.0285,1.0466,1.158,1.0874,1.0963,1.2225,0.7295,0.5023,0.606,0.1967,0.0717,0.2564,0.4361,0.7218,1.1015,1.2272,1.3565,1.4888,1.4278,1.2666,1.0325,0.8521,0.7623,0.7398,0.6095,0.0,0.0,0.0,0.0,0.0,0.0,0.0,0.0,0.0,0.0,0.0,0.0,0.0,0.0,0.0,0.0,0.0,0.0,0.0,0.0,0.0,0.0,0.0,0.0,0.0,0.0,0.0,0.0,0.0,0.0,0.0,0.0,0.0,0.0,0.0,0.0,0.0,0.0,0.5933,0.7863,0.0,0.0,0.0,0.0,-0.6013,-0.9198,-1.0615,-0.9703,-1.0883,-1.0922,-0.9518,-0.9399,-0.8699,-0.7252,-0.5566,-0.3745,-0.1766,0.0988,0.3031,0.4457,0.5887,0.7111,0.8084,0.8151,0.8617,0.9304,0.9031,1.0217,1.2295,1.3208,1.5061,1.7115,1.594,1.6274,1.7156,0.0,0.0,0.0,0.0,0.0,0.0,0.0,0.0,0.4816,0.4992,0.674,0.828,0.9089,1.0012,1.0434,1.0105,0.9772,0.966,0.9803,0.9346,0.9883,1.1574,1.0907,1.0821,1.1497,0.4178,0.2803,0.783,0.6965,0.9442,1.5037,1.7221,1.8285,1.8376,1.8127,1.6417,1.3515,1.0287,0.8221,0.6981,0.6435,0.677,0.0,0.0,0.0,0.0,0.0,0.0,0.0,0.0,0.0,0.0,0.0,0.0,0.0,0.0,0.0,0.0,0.0,0.0,0.0,0.0,0.0,0.0,0.0,0.0,0.0,0.0,0.0,0.0,0.0,0.0,0.0,0.0,0.0,0.0,0.0,0.0,0.0,0.1714,0.5619,0.0,0.0,0.1201,-0.161,-0.3858,-0.5852,-0.6899,-0.6724,-0.7443,-0.7529,-0.6688,-0.6769,-0.6627,-0.6115,-0.4612,-0.2735,-0.0649,0.0868,0.3261,0.6469,0.7026,0.8294,1.0091,1.0166,1.0684,1.145,1.2059,1.2045,1.1776,1.2955,1.4246,1.5422,1.4986,1.5652,1.6689,0.0,0.0,0.0,0.0,0.0,0.0,0.0,0.0,0.5318,0.5174,0.6756,0.8177,0.8935,0.9537,0.9814,0.9636,0.9394,0.9217,0.9089,0.9008,0.9953,1.2292,1.4165,1.4832,1.4244,0.9062,0.8672,1.3355,1.2534,1.4812,1.9993,2.1804,2.2493,2.2159,2.1636,2.0037,1.7462,1.3913,1.0494,0.7428,0.6792,0.6783,0.7107,0.0,0.0,0.0,0.0,0.0,0.0,0.0,0.0,0.0,0.0,0.0,0.0,0.0,0.0,0.0,0.0,0.0,0.0,0.0,0.0,0.0,0.0,0.0,0.0,0.0,0.0,0.0,0.0,0.0,0.0,0.0,0.0,0.0,0.0,0.0,-0.0991,0.0286,0.4342,0.6501,0.5165,0.2537,0.0502,-0.0495,-0.226,-0.3191,-0.2968,-0.375,-0.4081,-0.3805,-0.4445,-0.4657,-0.4381,-0.3448,-0.1719,0.0771,0.1764,0.4219,0.7982,0.8246,0.9509,1.1538,1.1908,1.255,1.3379,1.4437,1.4141,1.3129,1.3984,1.4685,1.5184,1.4848,1.5381,1.6242,0.0,0.0,0.0,0.0,0.0,0.0,0.0,0.5223,0.5813,0.6356,0.6314,0.7002,0.9074,0.8639,0.8515,0.933,0.9004,0.9026,0.9695,0.9898,1.1367,1.4418,1.677,1.6853,1.4417,1.7265,1.8955,1.9192,2.1366,2.3586,2.5788,2.5833,2.5968,2.6122,2.4729,2.3359,2.1886,1.9238,1.4638,0.9053,0.7245,0.6306,0.6019,0.0,0.0,0.0,0.0,0.0,0.0,0.0,0.0,0.0,0.0,0.0,0.0,0.0,0.0,0.0,0.0,0.0,0.0,0.0,0.0,0.0,0.0,0.0,0.0,0.0,0.0,0.0,0.0,0.0,0.0,0.0,0.0,0.0,-2.0544,-1.4111,-0.5236,0.1861,0.4354,0.5465,0.5431,0.3908,0.3302,0.4265,0.1565,0.0407,0.1608,0.0119,-0.0832,-0.1004,-0.2472,-0.2881,-0.2232,-0.2174,-0.0664,0.2196,0.373,0.5954,0.8731,0.9533,1.0689,1.222,1.3217,1.4132,1.5019,1.6047,1.6512,1.6564,1.6409,1.6586,1.6793,1.5743,1.5538,1.5808,0.0,0.0,0.0,0.0,0.0,0.0,0.0,0.5581,0.6409,0.6796,0.6822,0.6914,0.7342,0.8118,0.8721,0.8932,0.8346,0.8118,0.8595,0.9326,1.1359,1.5147,1.5666,1.5617,1.5114,1.6409,1.7816,1.9339,2.184,2.4635,2.769,2.8489,2.8768,2.8541,2.8288,2.6646,2.3933,2.2367,1.9267,1.5052,1.053,0.8032,0.6885,0.0,0.0,0.0,0.0,0.0,0.0,0.0,0.0,0.0,0.0,0.0,0.0,0.0,0.0,0.0,0.0,0.0,0.0,0.0,0.0,0.0,0.0,0.0,0.0,0.0,0.0,0.0,0.0,0.0,0.0,0.0,0.0,0.3931,-0.107,-0.4718,-0.4487,0.2015,0.6959,0.9334,0.7978,0.7848,0.7763,0.7474,0.6258,0.538,0.5078,0.3613,0.2217,0.0894,-0.0705,-0.1782,-0.2176,-0.1113,0.0332,0.2251,0.4162,0.6643,0.9482,1.0622,1.1997,1.3456,1.4584,1.5458,1.6239,1.7526,1.835,1.8634,1.7481,1.7093,1.7116,1.6434,1.582,1.5339,0.0,0.0,0.0,0.0,0.0,0.0,0.0,0.6538,0.708,0.6732,0.7043,0.7195,0.6977,0.7554,0.8228,0.8998,0.8022,0.7847,0.8945,1.0696,1.2657,1.4837,1.5617,1.5945,1.5798,1.7183,1.878,2.0585,2.3433,2.6268,2.9091,3.0378,3.1009,3.1083,3.0803,2.9489,2.7418,2.5848,2.3191,1.9599,1.5296,1.1744,0.8978,0.807,0.8949,1.0753,1.1199,1.2954,1.525,1.635,0.0,0.0,0.0,0.0,0.0,0.0,0.0,0.0,0.0,0.0,0.0,0.0,0.0,0.0,0.0,0.0,0.0,0.0,0.0,0.0,0.0,0.0,0.0,0.0,1.7457,1.1071,1.2537,0.3418,-0.1706,0.2939,0.8466,1.1541,1.0634,1.1083,1.1061,1.0336,0.9562,0.8496,0.701,0.5463,0.4006,0.2575,0.0972,0.0,-0.0227,0.0284,0.1569,0.3621,0.5139,0.7384,1.0207,1.1777,1.3248,0.0,1.6186,1.7252,1.7959,1.9163,1.9947,0.0,0.0,0.0,0.0,0.0,1.5855,1.4688,0.0,0.0,0.0,0.0,0.0,0.0,0.0,0.7576,0.7711,0.6357,0.7084,0.7633,0.737,0.704,0.7373,0.882,0.7728,0.7898,1.0131,1.2951,1.4458,1.4281,1.633,1.726,1.6727,1.8947,2.0904,2.2542,2.5464,2.8045,3.0279,3.1724,3.279,3.3478,3.2643,3.1983,3.1369,2.9355,2.6636,2.3487,2.1033,1.6766,1.1797,1.0107,1.1175,1.3463,1.3322,1.5205,1.7893,1.8448,0.0,0.0,0.0,0.0,0.0,0.0,0.0,0.0,0.0,0.0,0.0,0.0,0.0,0.0,0.0,0.0,0.0,0.0,0.0,0.0,0.0,0.0,0.0,0.0,2.0675,1.6682,2.1359,1.1073,0.3797,0.5727,1.0085,1.3145,1.3639,1.3855,1.3633,1.2836,1.184,1.0283,0.798,0.0,0.0,0.0,0.0,0.193,0.2359,0.1814,0.2915,0.5634,0.645,0.8332,1.1107,1.2952,1.4519,1.5849,1.7857,1.9126,1.9818,2.0765,2.1364,2.1624,2.0767,2.033,1.9914,1.8005,1.597,1.4273,0.0,0.0,0.0,0.0,0.0,0.0,0.0,0.6957,0.7515,0.635,0.7157,0.7485,0.6572,0.6658,0.6627,0.6124,0.5961,0.7267,1.0552,1.2748,1.4549,1.5897,1.7279,1.8418,1.9253,2.0184,2.1988,2.4768,2.6277,2.8624,3.1801,3.3056,3.4051,3.4745,3.4617,3.3891,3.2654,3.1423,3.0215,2.8919,2.7076,2.143,1.4091,1.3684,1.4555,1.6218,1.8282,2.0386,2.242,2.3421,2.4257,2.4838,2.4408,2.3949,0.0,0.0,0.0,0.0,0.0,0.0,0.0,0.0,0.0,0.0,0.0,0.0,0.0,0.0,0.0,0.0,0.0,0.0,0.0,2.9297,2.4539,2.2046,2.5316,2.0214,1.6024,1.5789,1.6461,1.7246,1.7991,1.6938,1.5947,1.5411,1.3369,1.1233,0.9006,0.797,0.0,0.2991,0.2619,0.2207,0.1526,0.2422,0.4146,0.6577,0.0,0.0,1.2473,1.429,1.596,1.7423,1.8817,1.9893,2.0797,2.1576,2.2374,2.3023,2.2151,2.1044,1.9881,1.9207,1.7768,1.6039,0.0,0.0,0.0,0.0,0.0,0.0,0.0,0.6412,0.6981,0.6284,0.7322,0.7721,0.6631,0.6891,0.6842,0.6137,0.795,0.9952,1.184,1.3948,1.5345,1.5956,1.8012,1.9378,1.9985,2.15,2.3371,2.5694,2.7602,2.9929,3.2625,3.3935,3.4764,3.5145,3.5156,3.4542,3.3525,3.3021,3.2262,3.128,2.9995,2.6553,2.202,2.0358,2.0262,2.1194,2.2014,2.3593,2.5327,2.5648,2.6318,2.6825,2.5779,2.5223,2.4798,0.0,0.0,0.0,0.0,0.0,0.0,0.0,0.0,0.0,0.0,0.0,0.0,0.0,0.0,3.0482,0.0,0.0,3.0914,3.0952,2.849,2.6882,2.7871,2.5944,2.3607,2.1263,2.0472,2.0143,2.0324,1.9119,1.7802,1.6535,1.4953,1.259,0.9388,0.7976,0.5856,0.2808,0.222,0.1998,0.1879,0.2839,0.468,0.7377,0.8969,1.0797,1.2881,1.4925,1.6612,1.7894,1.9562,2.0699,2.1352,2.2177,2.2779,2.3227,2.3417,2.2493,2.1033,2.0915,1.9723,1.8049,0.0,0.0,0.0,0.0,0.0,0.0,0.0,0.5852,0.6359,0.6149,0.7209,0.7628,0.6758,0.6919,0.7068,0.699,0.9942,1.2039,1.2516,1.4733,1.5916,1.5714,1.8431,2.0131,2.0523,2.2747,2.4699,2.6416,2.9007,3.1274,3.3223,3.4464,3.5096,3.5174,3.5074,3.4656,3.399,3.382,3.3298,3.25,3.1651,3.1023,3.0297,2.7471,2.6402,2.6308,2.54,2.6121,2.7478,2.7106,2.7525,2.8025,2.6785,2.6349,2.5878,2.3825,2.246,0.0,0.0,0.0,0.0,0.0,0.0,0.0,0.0,0.0,2.9997,3.1884,3.2147,3.2477,3.3899,3.2794,3.1863,3.2417,3.155,3.0699,3.0452,2.9939,2.8587,2.5714,2.3866,2.2701,2.2415,2.135,1.9905,1.7891,1.671,1.4227,1.0114,0.7935,0.547,0.2515,0.1394,0.1051,0.1472,0.2216,0.4151,0.7212,0.8612,1.045,1.2662,1.4937,1.6578,1.7851,2.0407,2.1653,2.191,2.2822,2.3188,2.3257,2.4295,2.3884,2.2722,2.2791,2.1714,2.0175,0.0,0.0,0.0,0.0,0.0,0.0,0.0,0.0,0.5797,0.5774,0.6156,0.6379,0.6291,0.5951,0.6231,0.7572,0.8326,0.937,1.0947,1.3264,1.5034,1.6176,1.8473,2.0575,2.2352,2.3792,2.5606,2.7888,2.9915,3.1928,3.3899,3.4541,3.4936,3.5102,3.4932,3.4524,3.3936,3.3183,3.325,3.3855,3.3329,3.3402,3.3781,3.2849,3.1247,2.9358,2.8958,2.8896,2.9074,2.927,2.9037,2.8658,2.8317,2.6919,2.5135,2.3722,2.1694,2.0225,2.1424,2.3526,2.5878,2.7974,2.9044,3.0522,0.0,0.0,3.4236,3.5183,3.5614,3.5425,3.4236,3.3709,3.3394,3.3284,3.2282,3.2243,3.4395,3.2598,3.1317,3.2045,2.8425,2.5911,2.585,2.4482,2.2872,2.1101,1.8924,1.6127,1.2578,0.94,0.5735,0.1565,-0.0132,-0.1321,-0.2038,-0.068,0.1607,0.4741,0.6807,0.9248,1.1911,1.3839,1.564,1.7491,2.168,2.3213,2.2838,2.3816,2.4176,2.4078,2.4211,2.4394,2.4603,2.4595,2.373,2.239,0.0,0.0,0.0,0.0,0.0,0.0,0.0,0.0,0.0,0.5237,0.5676,0.603,0.6089,0.6458,0.7436,0.9152,0.9465,1.0086,1.1297,1.3415,1.5115,1.6253,1.8913,2.1277,2.3128,2.4834,2.6816,2.914,3.0783,3.2773,3.5096,3.4868,3.4806,3.4899,3.4348,3.3401,3.2211,3.2311,3.2231,3.2053,3.2659,3.2815,3.2706,3.2621,3.1098,2.9056,2.9117,2.8965,0.0,2.834,2.8664,2.9032,2.8106,2.6993,2.5583,2.3187,2.1293,2.0434,2.2442,2.4903,2.7525,0.0,3.2008,3.3738,3.613,3.6358,3.6221,3.6875,3.6693,3.5864,3.4038,3.2767,3.1854,0.0,3.099,3.1334,3.3349,3.2646,3.2196,3.2702,3.0563,2.8628,2.7409,2.6452,2.5122,2.3163,2.1029,1.8283,1.4657,1.0181,0.5713,0.1347,-0.144,-0.3021,-0.3283,-0.1467,0.112,0.4484,0.6583,0.8824,1.1148,1.2638,1.5034,1.8165,2.0717,2.1899,2.2106,2.2875,2.3346,2.3666,2.4062,2.4321,2.4542,2.4959,2.443,2.3415,0.0,0.0,0.0,0.0,0.0,0.0,0.0,0.0,0.0,0.0,0.5329,0.5946,0.6475,0.7478,0.8731,1.0401,1.0561,1.0786,1.1282,1.3144,1.4716,1.5741,1.8539,2.1166,2.3417,2.5242,2.7306,2.9607,3.0976,3.2811,3.5053,3.4405,3.4065,3.3993,3.3361,3.2168,3.0667,3.0926,3.0618,2.9987,3.0593,3.0673,3.0432,3.0129,2.9161,2.8023,2.8465,2.7959,2.7038,2.6569,2.703,2.7594,2.6425,2.5563,2.4425,2.1796,2.0531,2.0538,2.294,2.5943,2.9109,3.2079,3.4585,3.6528,3.7192,3.7256,3.7097,3.6888,3.6004,3.4625,3.2529,3.0577,2.9227,2.9183,2.898,2.9559,3.1686,3.1878,3.1958,3.234,3.1608,3.0488,2.9162,2.8531,2.7405,2.5644,2.4018,2.1653,1.8401,1.3392,0.8354,0.3378,-0.0192,-0.2533,-0.3542,-0.1578,0.0881,0.3909,0.623,0.8189,0.9909,1.1985,1.4841,1.8214,2.0014,2.1334,2.2355,2.345,2.4011,2.4122,2.4167,2.4206,2.4229,2.4408,2.4034,2.3476,0.0,0.0,0.0,0.0,0.0,0.0,0.0,0.0,0.0,0.0,0.0,0.0,0.0,0.8756,0.9775,1.0777,1.065,1.04,1.0074,1.1694,1.3181,1.4393,1.6808,1.9768,2.3328,2.4687,2.6508,2.883,3.011,3.152,3.299,3.2688,3.2388,3.2072,3.1795,3.1031,2.9938,2.8788,2.8396,2.8372,2.7157,2.7131,2.7621,2.5953,2.5958,2.6927,2.744,2.6206,2.4339,2.4444,2.4028,2.3428,2.3052,2.1954,2.0513,1.9266,1.9176,2.003,2.2231,2.6306,3.0618,3.3432,3.6333,3.8376,3.7904,3.7685,3.7005,3.4823,3.3321,3.1632,2.9274,2.6919,2.5714,2.6818,2.6335,2.7105,3.0756,3.0585,3.0629,3.2123,3.1585,3.1249,0.0,3.1029,3.0142,2.9146,2.8352,2.6911,2.4739,2.05,1.5153,0.849,0.4774,0.1027,-0.291,-0.1279,0.0414,0.2092,0.5187,0.7015,0.7853,1.2122,1.5069,1.7031,2.0343,2.2754,2.4602,2.7022,2.7423,2.6332,2.4811,2.4217,2.4049,2.2849,2.2364,2.2404,0.0,0.0,0.0,0.0,0.0,0.0,0.0,0.0,0.0,0.0,0.0,0.0,0.0,0.0,0.0,0.0,1.2526,1.2381,1.212,1.305,1.3863,1.4391,1.6686,1.9177,2.1829,2.3867,2.5732,2.7391,2.8505,2.972,3.0951,3.0307,3.0074,3.0179,2.955,2.8669,2.7672,2.7221,2.686,2.6474,2.5806,2.5594,2.5612,2.5195,2.4208,2.3213,0.0,2.4764,2.5043,2.4551,2.1776,1.8517,1.8496,1.5855,1.3445,1.6744,1.8658,2.0385,2.3916,2.7033,3.011,3.353,3.4644,3.5405,3.7365,3.6197,3.4037,3.1432,2.9742,2.757,2.4019,2.2417,2.1608,2.1361,2.157,2.2719,2.5415,2.566,2.6036,2.7349,2.8199,0.0,0.0,0.0,0.0,3.1056,3.0225,2.9032,2.7372,2.36,1.9216,1.4214,0.9996,0.6095,0.2412,0.2272,0.2425,0.2901,0.5404,0.7213,0.844,1.1682,1.4138,1.5965,1.898,2.1682,2.4236,2.7752,2.8379,2.7068,2.6495,2.6085,2.5596,2.4111,2.426,2.4955,0.0,0.0,0.0,0.0,0.0,0.0,0.0,0.0,0.0,0.0,0.0,0.0,0.0,0.0,0.0,0.0,0.0,1.4196,1.3496,1.4118,1.4675,1.5077,1.6952,1.9223,2.1786,2.3498,2.5047,2.6488,2.6757,2.7261,2.8007,2.7026,2.6709,2.6997,2.6455,2.5843,2.5195,2.4912,2.4529,2.406,2.3687,2.359,2.3633,2.3383,2.29,0.0,2.2367,2.3774,2.539,2.3748,2.0824,1.715,1.2913,1.1114,1.1339,1.5277,1.8518,2.1512,2.4854,2.7184,2.9296,3.2081,3.2531,3.2701,3.4124,3.2416,2.9839,2.7258,2.5197,2.291,1.9736,1.8148,1.7241,1.6722,1.6901,1.7898,2.0131,2.0941,2.1901,2.3501,2.532,0.0,0.0,0.0,0.0,3.2919,3.2788,3.2185,3.0996,2.7755,2.3977,1.9624,1.4928,1.0688,0.6908,0.5615,0.5046,0.5296,0.6416,0.7735,0.9176,1.1599,1.3676,1.544,1.8393,2.1085,2.3762,2.7145,2.8455,2.8318,2.8576,2.8528,2.8187,2.7144,2.709,2.7157,0.0,0.0,0.0,0.0,0.0,0.0,0.0,0.0,0.0,0.0,0.0,0.0,0.0,0.0,0.0,0.0,0.0,0.0,1.4201,1.4936,1.568,1.6274,1.7537,1.9738,2.2948,2.3433,2.44,2.5885,2.4893,2.4312,2.4136,2.3141,2.2604,2.2475,2.2538,2.2614,2.2582,2.1845,2.15,2.1332,2.0822,2.1094,2.1657,2.0547,2.1771,2.3831,2.193,2.2879,2.4598,2.1651,2.0516,1.8338,0.6928,0.809,1.393,1.5061,1.8806,2.2965,2.4736,2.6518,2.8095,2.8965,2.9929,3.0254,2.8567,2.6685,2.4659,2.2408,2.0021,1.7884,1.6495,0.0,1.2797,1.318,1.2586,1.2885,1.5177,1.6735,1.8416,0.0,0.0,0.0,0.0,0.0,0.0,3.4397,0.0,3.607,3.5282,3.2807,2.9233,2.4466,1.9496,1.4795,1.0432,0.8545,0.8051,0.8811,0.8103,0.8488,0.9857,1.1844,1.3687,1.5452,1.8535,2.1102,2.3238,2.5525,2.7823,2.9983,3.0902,3.1354,3.1504,3.1547,3.0586,2.9062,0.0,0.0,0.0,0.0,0.0,0.0,0.0,0.0,0.0,0.0,0.0,0.0,0.0,0.0,0.0,0.0,0.0,0.0,1.6941,1.692,1.6727,1.6243,1.8022,1.9438,2.035,2.2357,2.3316,2.3102,2.3241,2.1922,1.9341,2.1409,2.024,1.6456,1.8716,1.9317,1.8643,1.9483,2.0171,2.0579,1.976,1.9273,1.9024,1.9018,1.8781,1.8535,1.9001,1.7891,1.6204,1.6065,1.3271,0.9453,0.723,0.9158,1.319,1.7938,1.9978,2.0784,2.1379,2.2457,2.3455,2.3699,2.3597,2.3687,2.4707,2.318,2.0938,1.9089,1.7366,1.5496,1.3223,0.0,0.0,1.096,1.0953,0.0,1.3601,1.436,0.0,1.7795,0.0,2.1536,2.464,2.6941,0.0,0.0,3.3738,3.5015,3.4576,3.3353,3.1011,2.7412,2.3354,1.9292,1.5348,1.0724,0.8519,0.8738,0.8527,0.8942,0.9866,1.2318,1.3918,1.4891,1.8134,2.0681,2.2757,2.5321,2.7601,2.9682,3.1265,3.227,3.2901,3.36,3.3615,3.2854,0.0,0.0,0.0,0.0,0.0,0.0,0.0,0.0,0.0,0.0,0.0,0.0,0.0,0.0,0.0,0.0,0.0,0.0,0.0,1.8289,1.8068,1.7968,1.9416,2.0498,2.1056,2.297,2.3511,2.2584,2.2508,2.0957,1.7977,1.5006,1.1591,0.8043,1.0262,1.1883,1.3063,1.3895,1.561,0.0,0.0,1.6419,1.6595,1.6756,1.7113,1.7373,1.6059,1.1836,0.6773,0.6236,0.5741,0.662,1.3914,1.5078,1.4508,1.8468,0.0,1.894,1.7423,1.7465,1.81,1.8592,1.867,1.9084,2.0962,2.003,1.8311,1.6765,1.5404,1.3838,1.1593,1.0745,0.0,0.0,0.0,0.0,1.1938,1.2689,1.3715,0.0,1.6873,0.0,2.1775,2.3722,2.5839,0.0,3.1301,3.2823,3.2398,3.1219,2.9394,2.6907,2.3104,1.9086,1.4844,1.1065,0.9347,0.9626,0.9313,0.9873,1.119,1.2909,1.4422,1.5835,0.0,2.0639,2.2518,2.5379,2.7549,2.9349,3.1659,3.2957,3.3665,3.4567,3.4864,3.4419,0.0,0.0,0.0,0.0,0.0,0.0,0.0,0.0,0.0,0.0,0.0,0.0,0.0,0.0,0.0,0.0,0.0,0.0,0.0,0.0,1.9378,2.0122,2.109,2.2014,2.2878,2.4029,2.4056,2.2909,2.1414,1.9218,1.6176,0.6724,0.1223,-0.066,0.0417,0.302,0.6672,0.7462,1.0105,1.3696,1.2896,1.3313,1.4356,0.0,1.5715,1.7145,1.1885,0.4898,-0.2157,-0.4048,-0.085,0.6764,2.2482,2.2624,1.7263,1.8567,1.8091,1.6395,1.2858,1.2267,1.2844,1.3583,1.4524,1.5692,1.7466,1.7317,1.6431,1.5353,0.0,1.2953,1.1368,1.0451,0.9746,0.9077,0.0,0.9606,1.0647,1.1653,1.2654,1.3709,1.5134,1.6955,1.9222,2.0565,2.2519,2.5473,2.7982,2.9418,2.9508,2.7997,2.6148,2.4053,2.0518,1.6522,1.2045,1.0738,1.0348,1.092,1.0454,1.1124,1.2839,1.3674,1.5164,1.7181,0.0,0.0,2.247,2.5436,2.7625,2.9371,3.2057,3.3586,3.4403,3.5142,3.5307,3.4909,0.0,0.0,0.0,0.0,0.0,0.0,0.0,0.0,0.0,0.0,1.1895,1.255,0.0,0.0,0.0,0.0,0.0,0.0,0.0,0.0,0.0,1.996,2.1683,2.2221,2.1324,2.2773,2.2867,2.1479,1.6761,1.0923,0.4118,0.223,-0.0908,-0.4901,-0.3719,-0.1811,0.072,0.5204,0.8187,1.0048,1.1144,1.1708,1.206,1.2685,0.0,0.0,0.2554,-0.2882,-0.6256,-0.5969,-0.2588,0.4758,2.334,2.5269,2.104,2.28,1.7431,1.0259,0.7231,0.7781,0.9001,0.8563,1.0731,1.3412,1.5238,1.5558,0.0,0.0,1.4441,1.346,1.2589,1.1466,1.0482,1.008,0.0,0.0,0.0,0.0,1.2298,0.0,0.0,0.0,0.0,0.0,0.0,0.0,0.0,2.3878,2.7332,2.6636,2.4177,1.9913,1.7869,1.5702,1.3237,1.2045,1.1495,1.1654,1.2098,1.2454,1.2885,1.4959,1.6156,1.6676,1.873,0.0,2.255,2.4926,2.7811,3.0942,3.2482,3.445,3.6406,3.654,3.6504,3.6229,0.0,0.0,0.0,0.0,0.0,0.0,0.0,1.0308,1.0331,1.185,1.1388,1.1689,1.3805,1.5359,0.0,0.0,0.0,0.0,0.0,0.0,0.0,0.0,2.1495,2.1866,2.1079,2.1574,2.1643,2.127,0.0,0.5674,0.1417,-0.4591,-0.8875,-1.1345,-1.021,-0.8296,-0.5779,-0.1928,0.1492,0.4497,0.6636,0.8375,0.9688,0.9896,0.0,0.0,-0.4226,-0.7471,-0.8178,-0.8732,-0.6552,-0.0698,1.5342,2.0485,2.0144,1.7733,1.1917,0.5524,0.2348,0.2646,0.4102,0.5291,0.7987,1.1139,1.3929,0.0,0.0,0.0,1.5074,1.4435,1.347,1.215,0.0,0.0,0.0,0.0,0.0,0.0,0.0,0.0,0.0,0.0,0.0,0.0,0.0,0.0,0.0,2.0592,2.3867,2.2356,2.0221,1.758,1.5886,1.4549,1.3506,1.237,1.2267,1.3154,1.2916,1.3294,1.4312,1.574,1.6723,1.7397,1.9546,0.0,2.3106,2.5613,2.8501,3.1482,3.2675,3.4438,3.6286,3.6285,3.6212,3.5988,0.0,0.0,0.0,0.0,0.0,0.0,0.0,1.0961,1.0459,1.2104,1.0725,1.0799,1.3938,1.5094,1.6287,0.0,0.0,0.0,0.0,0.0,0.0,0.0,0.0,0.0,0.0,0.0,0.0,1.7789,0.7695,0.0,0.0,0.0,0.0,0.0,-1.4834,-1.3133,-1.0943,-0.8369,-0.4558,0.0,0.0,0.542,0.0,0.0,0.0,0.0,0.0,-0.9911,-0.9166,-1.0825,-1.01,-0.6603,0.3887,1.0579,1.3863,1.037,0.5676,0.0754,-0.2869,-0.2564,-0.0655,0.1865,0.5358,0.9127,1.2823,1.4419,0.0,1.5727,1.5676,1.5297,1.431,1.3022,1.1908,0.0,1.0402,0.9971,0.0,0.0,0.0,0.0,0.0,0.0,0.0,0.0,0.0,0.0,0.0,0.0,2.075,1.8742,1.7104,1.617,1.4778,1.3838,1.3509,1.2452,1.2752,1.4412,1.3606,1.4115,1.5775,1.6622,1.7531,1.8604,2.063,0.0,0.0,2.6285,2.8876,3.1453,3.2668,3.4186,3.571,3.5903,3.5909,3.5701,0.0,0.0,0.0,0.0,0.0,0.0,0.0,1.2252,1.1617,1.2215,1.0722,1.0613,1.3293,1.411,1.5207,0.0,0.0,0.0,0.0,0.0,0.0,0.0,0.0,0.0,0.0,0.0,0.0,0.6048,0.3086,0.0,0.0,0.0,0.0,0.0,0.0,-1.2929,-1.2519,-0.9718,0.0,0.0,0.0,0.0,0.0,0.0,0.0,0.0,0.0,-0.9985,-0.9851,-1.0743,-1.106,-1.0802,-0.8725,-0.5331,-0.1002,0.4581,0.0,0.0,-0.9418,-0.7663,-0.4304,-0.2865,0.2096,0.7583,1.1321,0.0,1.5074,1.6207,1.5964,1.5576,1.5443,1.4384,1.3319,1.2725,1.1483,1.0965,0.0,0.0,0.0,0.0,0.0,0.0,0.0,0.0,0.0,0.0,0.0,0.0,1.9242,1.8633,1.7372,1.5481,1.4872,1.4272,1.3575,1.2725,1.2953,1.4388,1.4479,1.5166,1.6378,1.8099,1.9179,1.9814,2.1546,0.0,0.0,2.6058,2.8239,3.0923,3.2358,3.4066,3.5801,3.6591,3.6765,3.6449,0.0,0.0,0.0,0.0,0.0,0.0,1.3903,1.2627,1.1757,1.187,1.0366,1.0506,1.3633,1.409,1.4662,1.5846,0.0,0.0,0.0,0.0,0.0,0.0,0.0,0.0,0.0,0.0,1.1252,0.3177,-0.0937,0.0,0.0,0.0,0.0,0.0,0.0,0.0,-1.3412,-1.1075,0.0,0.0,0.0,0.0,0.0,0.0,0.0,0.0,0.0,0.0,-1.1432,-1.299,-1.4242,-1.489,-1.3216,-1.1633,-0.9623,0.0,-0.7467,-1.1133,-1.3248,-1.1965,-0.9348,-0.6857,-0.1541,0.4394,0.9386,0.0,1.4642,1.6587,1.6527,1.6225,1.6544,1.5336,1.4049,1.346,1.1994,1.0938,1.0873,0.0,0.0,0.0,0.0,0.0,0.0,0.0,0.0,0.0,0.0,0.0,1.715,1.7217,1.6503,1.4998,1.4105,1.3358,1.2863,1.2738,1.3508,1.5121,1.507,1.6077,1.803,1.8768,1.9598,2.0599,2.2285,0.0,0.0,2.6423,2.8443,3.0715,3.2297,3.3743,3.5084,3.5992,3.6241,3.597,0.0,0.0,0.0,0.0,0.0,1.4782,1.4111,1.2869,1.1948,1.1667,1.0607,1.0929,1.3762,1.4167,1.4467,1.5016,1.6856,0.0,0.0,0.0,0.0,0.0,0.0,0.0,0.0,0.0,0.3782,-0.095,-0.5531,-0.9774,0.0,0.0,0.0,0.0,0.0,0.0,0.0,0.0,0.0,0.0,0.0,0.0,0.0,0.0,0.0,0.0,0.0,0.0,0.0,0.0,0.0,-1.7241,-1.6171,-1.6047,-1.5823,-1.3429,-1.3882,-1.5517,-1.6992,-1.5679,-1.3094,-0.9754,-0.3845,0.2552,0.0,0.0,1.4288,1.6378,1.6655,1.6637,1.6993,1.6008,1.4903,1.41,1.2812,1.1586,1.0838,1.0363,0.0,0.0,0.0,0.0,0.0,0.0,0.0,0.0,0.0,0.0,0.0,1.6266,1.5654,1.4389,1.3195,1.2446,1.224,1.2586,1.3625,1.5275,1.5441,1.68,1.9033,1.9423,2.0372,2.1732,0.0,0.0,0.0,2.6929,2.853,3.0182,3.1744,3.2869,3.3708,3.4738,3.501,3.4795,0.0,0.0,0.0,0.0,0.0,0.0,1.4074,1.3194,1.2375,1.1784,1.1673,1.2149,1.3359,1.4159,1.4625,1.4698,1.5574,0.0,0.0,0.0,0.0,0.0,0.0,0.0,0.0,0.0,-0.6141,-0.8595,-1.0966,-1.2039,-1.1859,-1.3251,-1.3661,0.0,0.0,0.0,0.0,0.0,0.0,0.0,0.0,0.0,0.0,0.0,0.0,0.0,0.0,0.0,0.0,0.0,0.0,0.0,0.0,-1.9942,-2.0057,-1.657,-1.6416,-1.8001,-2.1004,-1.8792,-1.4796,-1.147,-0.4415,0.2899,0.0,1.1212,1.4068,1.5342,1.6095,1.6522,1.6522,1.6466,1.6107,1.488,1.4125,1.346,1.2958,0.0,0.0,0.0,0.0,0.0,0.0,0.0,0.0,0.0,0.0,0.0,0.0,1.6206,1.4932,1.3663,1.2445,1.1835,1.1819,1.2206,1.3093,1.4492,1.5646,1.7086,1.8864,2.0239,2.1801,0.0,0.0,0.0,0.0,2.7507,2.8304,2.9063,3.0535,3.1242,3.1588,3.2771,3.3133,3.2911,0.0,0.0,0.0,0.0,0.0,0.0,0.0,1.3095,1.2693,1.2169,1.2153,1.266,1.3897,1.3684,1.3834,1.4825,1.5722,0.0,0.0,0.0,0.0,0.0,0.0,0.0,0.0,0.0,-0.2527,-0.8699,-0.9842,-1.1071,-1.2282,-1.2731,-1.3195,-1.3682,-1.348,0.0,0.0,0.0,0.0,0.0,0.0,0.0,0.0,0.0,0.0,0.0,0.0,0.0,0.0,0.0,0.0,0.0,0.0,0.0,0.0,-1.9991,-2.093,-2.19,-2.3147,-2.0099,-1.5606,-1.1575,-0.4661,0.2569,0.7934,1.1531,1.416,1.5804,1.6355,1.6612,1.6985,1.6393,1.561,1.4847,1.3811,1.288,0.0,0.0,0.0,0.0,0.0,0.0,0.0,0.0,0.0,0.0,0.0,0.0,0.0,1.5482,1.4371,1.3609,1.2453,1.1549,1.0989,1.2218,1.3279,1.4269,1.5828,1.758,1.9443,2.0448,0.0,0.0,0.0,0.0,0.0,2.7116,2.7942,2.896,3.0355,3.1128,3.1593,3.2629,3.3059,3.3027,0.0,0.0,0.0,0.0,0.0,0.0,0.0,1.3041,1.2809,1.2332,1.245,1.2814,1.345,1.3449,1.3643,1.416,1.5047,0.0,0.0,0.0,0.0,0.0,0.0,0.0,0.9363,0.4649,-0.11,-0.795,-0.9097,-1.0355,-1.1667,-1.2378,-1.2963,-1.3387,-1.3446,-1.2975,0.0,0.0,0.0,0.0,0.0,0.0,-1.0892,0.0,0.0,0.0,0.0,0.0,0.0,0.0,0.0,0.0,0.0,0.0,0.0,0.0,-1.8915,-1.9446,-2.207,-1.9169,-1.4355,-1.0136,-0.3411,0.0,0.8388,1.1518,1.3835,1.5419,1.5976,1.6337,1.6873,1.6213,1.5321,1.4446,1.3704,1.2871,0.0,0.0,0.0,0.0,0.0,0.0,0.0,0.0,0.0,0.0,0.0,0.0,0.0,1.5152,1.3983,1.3372,1.2044,1.1142,1.0624,1.2228,1.3364,1.4127,1.6164,1.8137,2.0066,2.084,0.0,0.0,0.0,0.0,0.0,2.7147,2.7877,2.8753,2.9847,3.0251,3.0357,3.1482,3.1766,3.1603,0.0,0.0,0.0,0.0,0.0,0.0,0.0,1.3039,1.2832,1.2291,1.2645,1.2781,1.2338,1.3382,1.3815,1.3045,0.0,0.0,0.0,0.0,0.0,0.0,0.0,0.0,0.7517,0.3082,-0.1621,-0.6593,-0.8654,-0.9802,-1.0166,-1.2047,-1.2775,-1.2496,-1.3387,-1.3045,-1.1612,0.0,0.0,0.0,0.0,0.0,0.0,0.0,0.0,0.0,0.0,0.0,0.0,0.0,0.0,0.0,0.0,0.0,0.0,0.0,0.0,0.0,0.0,-1.5794,-1.1111,-0.7031,-0.069,0.5461,0.8983,1.1372,0.0,1.4525,1.5222,1.5772,1.6306,1.59,1.5074,1.3924,1.3758,0.0,0.0,0.0,0.0,0.0,0.0,0.0,0.0,0.0,0.0,0.0,0.0,0.0,0.0,1.5117,1.3876,1.2878,1.1367,1.0624,1.0694,1.2212,1.3398,1.4223,1.6557,1.8672,2.0562,2.1329,0.0,0.0,0.0,0.0,0.0,2.7507,2.8102,2.8453,2.9123,2.8852,2.826,2.9579,2.954,2.9032,0.0,0.0,0.0,0.0,0.0,0.0,0.0,0.0,0.0,0.0,1.3037,1.3354,1.315,1.2733,1.2826,0.0,0.0,0.0,0.0,0.0,0.0,0.0,0.0,0.0,0.6131,0.2513,-0.1349,-0.5389,-0.7273,-0.8657,-0.9612,-1.0849,-1.1575,-1.1936,-1.2543,-1.2255,-1.1113,-0.7466,0.0,0.0,0.0,0.0,0.0,0.0,0.0,0.0,-1.5354,-1.5258,0.0,0.0,0.0,0.0,0.0,0.0,0.0,0.0,-0.5772,-0.3506,-0.8386,0.0,-0.4834,-0.0313,0.3787,0.7596,0.0,1.2721,1.4093,1.5176,1.5492,1.5632,1.5804,1.4926,1.4103,1.3826,1.3641,0.0,0.0,0.0,0.0,0.0,0.0,0.0,0.0,0.0,0.0,0.0,0.0,0.0,0.0,1.4832,1.3762,1.2538,1.1255,1.0911,1.1495,1.2512,1.369,1.5052,1.728,1.8923,1.9978,2.1167,0.0,0.0,0.0,0.0,2.6572,2.7507,2.8102,2.8446,2.8915,2.8688,2.8147,2.8481,2.8215,2.7856,0.0,0.0,0.0,0.0,0.0,0.0,0.0,0.0,0.0,0.0,0.0,0.0,0.0,0.0,0.0,0.0,0.0,0.0,0.0,0.0,0.0,0.0,0.0,0.736,0.4823,0.1845,-0.1206,-0.4299,-0.6147,-0.7632,-0.8731,-1.0002,-1.073,-1.1031,-1.1557,-1.1405,-1.0469,-0.6684,-0.3354,0.0,-0.6969,0.0,0.0,0.0,0.0,0.0,-1.5855,-1.5088,0.0,-1.669,-1.5127,-1.1281,0.0,0.0,0.0,0.0,0.0375,0.2893,-0.0609,-0.2159,-0.1713,0.2842,0.626,0.9324,1.2215,1.3489,1.425,1.5039,1.5418,1.552,1.5245,1.466,1.4025,1.3418,1.328,0.0,0.0,0.0,0.0,0.0,0.0,0.0,0.0,0.0,0.0,0.0,0.0,0.0,0.0,1.3925,1.291,1.1775,1.1028,1.0841,1.1277,1.2395,1.3756,1.5302,1.7247,1.8867,2.0223,2.1164,2.1988,0.0,0.0,0.0,2.5062,2.6451,2.7272,2.7717,2.8226,2.8003,2.7468,2.794,2.768,2.7269,0.0,0.0,0.0,0.0,0.0,0.0,0.0,0.0,0.0,0.0,0.0,0.0,0.0,0.0,0.0,0.0,0.0,0.0,0.0,0.0,0.0,0.0,0.794,0.6115,0.4066,0.1548,-0.0961,-0.3452,-0.5228,-0.6618,-0.7655,-0.9235,-1.007,-1.0242,-1.0668,-1.0674,-1.0156,-0.697,-0.1186,0.5301,-0.1955,0.0,0.0,0.0,0.0,0.0,0.0,0.0,0.0,-1.415,-1.0242,-0.3959,0.0498,0.0,0.0,0.0,0.0,0.0,0.5801,0.2576,0.0918,0.5001,0.8023,1.0673,1.324,1.3952,1.4261,1.4869,1.5324,1.54,1.4835,1.4653,0.0,0.0,0.0,0.0,0.0,0.0,0.0,0.0,0.0,0.0,0.0,0.0,0.0,0.0,0.0,0.0,0.0,1.2977,1.1999,1.0797,1.0496,1.0408,1.0481,1.2165,1.3806,1.5405,1.7005,1.8802,2.0795,2.1226,2.1515,0.0,0.0,0.0,2.3401,2.5172,2.6233,2.673,2.7383,2.72,2.6688,2.7544,2.7437,2.7028,0.0,0.0,0.0,0.0,0.0,0.0,0.0,0.0,0.0,0.0,0.0,0.0,0.0,0.0,0.0,0.0,0.0,0.0,0.0,0.0,0.0,0.6082,0.5779,0.5408,0.4978,0.2707,-0.0,-0.3173,-0.4479,-0.5589,-0.6477,-0.817,-0.9435,-1.037,-1.0293,-1.0552,-1.0999,-0.9014,-0.4581,0.0784,-0.2434,0.0,0.0,0.0,0.0,0.0,0.0,0.0,0.0,-0.7391,-0.3187,0.1973,0.9826,0.0,0.0,0.0,0.0,0.0,1.0056,0.8185,0.7598,1.0067,1.0753,1.1398,1.3545,1.4438,1.5122,1.6022,1.5903,1.5429,1.49,1.4339,1.3867,0.0,0.0,0.0,0.0,0.0,0.0,0.0,0.0,0.0,0.0,0.0,0.0,0.0,0.0,0.0,0.0,1.2964,1.2251,0.9661,0.9548,0.9662,0.9951,1.1973,1.4087,1.6245,1.7739,1.9297,2.0813,2.1169,2.1636,2.2247,0.0,2.3335,2.412,2.5135,2.58,2.6165,2.6607,2.6722,2.6612,2.6765,2.6749,2.6831,0.0,0.0,0.0,0.0,0.0,0.0,0.0,0.0,0.0,0.0,0.0,0.0,0.0,0.0,0.0,0.0,0.0,0.0,0.0,0.0,0.6773,0.355,0.3242,0.3071,0.2882,0.0953,-0.0968,-0.2898,-0.432,-0.54,-0.6221,-0.7418,-0.8541,-0.9527,-0.9477,-0.9496,-0.9605,-0.9143,-0.6467,-0.2759,0.0,0.0,0.0,0.0,0.0,0.0,0.0,0.0,0.0,0.0,-0.1692,0.3801,1.1547,0.0,0.0,0.0,0.0,0.0,1.313,1.178,1.1296,1.1957,1.1672,1.1642,1.3184,1.4672,1.5666,1.5587,1.6089,1.6223,0.0,0.0,0.0,0.0,0.0,0.0,0.0,0.0,0.0,0.0,0.0,0.0,0.0,0.0,0.0,0.0,0.0,0.0,0.0,0.0,1.0926,0.9182,0.95,0.972,0.9695,1.1488,1.3474,1.5594,1.7367,1.8771,1.9775,2.0706,2.1264,2.1534,0.0,2.311,2.3412,2.4403,2.5099,2.5594,2.5834,2.6015,2.6151,2.6471,2.6888,2.7432,0.0,0.0,0.0,0.0,0.0,0.0,0.0,0.0,0.0,0.0,0.0,0.0,0.0,0.0,0.0,0.0,0.0,0.0,0.0,0.878,0.635,0.0996,0.0647,0.0531,0.0404,-0.1128,-0.2268,-0.291,-0.4391,-0.5616,-0.6628,-0.7097,-0.7779,-0.8658,-0.8765,-0.8612,-0.8266,-0.8814,-0.7687,-0.5697,0.0,0.0,0.0,0.0,0.0,0.0,0.0,0.0,0.0,0.0,0.0,0.0,0.0,0.0,0.0,1.7243,1.7718,1.7681,1.5721,1.447,1.3629,1.3153,1.2695,1.2633,1.362,1.5409,1.6656,1.5881,1.6747,0.0,0.0,0.0,0.0,0.0,0.0,0.0,0.0,0.0,0.0,0.0,0.0,0.0,0.0,0.0,0.0,0.0,0.0,0.0,0.0,0.0,0.9933,0.9138,0.9513,0.9603,0.9455,1.1051,1.2869,1.4935,1.6884,1.8265,1.9127,2.0524,2.1094,2.1067,2.2522,2.3005,2.288,2.3828,2.458,2.5116,2.5227,2.5579,2.6114,2.6742,2.7385,2.8137,0.0,0.0,0.0,0.0,0.0,0.0,0.0,0.0,0.0,0.0,0.0,0.0,0.0,0.0,0.0,0.0,0.0,0.0,0.0,0.6306,0.3251,-0.2044,-0.183,-0.1424,-0.1073,-0.2277,-0.3094,-0.3517,-0.4568,-0.6007,-0.7762,-0.7273,-0.747,-0.8237,-0.844,-0.8458,-0.8383,-0.8518,-0.8357,-0.8056,-0.8238,0.0,0.0,0.0,0.0,0.0,0.0,0.0,0.0,0.0,0.0,0.0,0.0,0.0,1.6994,1.8572,1.9191,1.9148,1.8114,1.647,1.4974,1.4637,1.4911,1.542,1.5937,1.7388,1.8617,1.8535,1.8593,0.0,0.0,0.0,0.0,0.0,0.0,0.0,0.0,0.0,0.0,0.0,0.0,0.0,0.0,0.0,0.0,0.0,0.0,0.0,0.0,0.0,0.0,0.9414,0.8844,0.8716,0.9053,1.0857,1.2852,1.4935,1.673,1.8313,1.9581,2.0951,2.1554,2.1595,2.2582,2.3168,2.3476,2.4063,2.4498,2.4836,2.4836,2.5759,2.7175,2.7774,2.8185,2.8565,0.0,0.0,0.0,0.0,0.0,0.0,0.0,0.0,0.0,0.0,0.0,0.0,0.0,0.0,0.0,0.0,0.0,0.0,0.0,0.4264,0.2282,-0.0837,-0.2914,-0.3678,-0.3082,-0.3353,-0.3597,-0.385,-0.504,-0.64,-0.7859,-0.7069,-0.7108,-0.782,-0.7637,-0.773,-0.8088,-0.8816,-0.9106,-0.9126,-0.9338,-1.0328,0.0,0.0,0.0,0.0,0.0,0.0,0.0,0.0,-0.0152,0.4581,1.1551,1.5329,1.7448,1.8767,1.9306,1.9192,1.7735,1.706,1.6375,1.4903,1.5745,1.6791,1.6137,1.7619,1.9046,1.8736,1.9223,0.0,0.0,0.0,0.0,0.0,0.0,0.0,0.0,0.0,0.0,0.0,0.0,0.0,0.0,0.0,0.0,0.0,0.0,0.0,0.0,0.0,0.0,1.0483,0.9889,0.9755,1.0135,1.1209,1.3056,1.5648,1.7499,1.8782,1.9642,2.1197,2.2023,2.2265,2.3094,2.3707,2.4137,2.4334,2.4625,2.4911,2.4911,2.5854,2.7226,2.7447,2.8252,2.9297,0.0,0.0,0.0,0.0,0.0,0.0,0.0,0.0,0.0,0.0,0.0,0.0,0.0,0.0,0.0,0.0,0.0,0.0,0.4708,0.341,0.1881,0.0065,-0.2845,-0.4338,-0.4137,-0.4139,-0.4196,-0.4286,-0.5359,-0.6571,-0.7897,-0.7277,-0.7288,-0.7772,-0.7578,-0.7687,-0.8069,-0.9082,-0.9418,-0.9274,-0.9924,-1.065,0.0,0.0,0.0,0.0,0.0,0.0,0.0,0.0,0.0692,0.4745,1.2293,1.598,1.7736,1.8957,1.9295,1.9003,1.7721,1.7432,1.7067,1.5379,1.6373,1.7607,1.7023,1.8329,1.9657,1.9562,2.0036,2.0304,1.9756,0.0,0.0,0.0,0.0,0.0,0.0,0.0,0.0,0.0,0.0,0.0,0.0,0.0,0.0,0.0,0.0,0.0,0.0,0.0,0.0,0.0,1.0934,1.0829,1.1098,1.2097,1.3887,1.6501,1.8473,1.9662,2.0208,2.1641,2.247,2.2835,2.3584,2.41,2.4454,2.4663,2.4891,2.5099,2.5099,2.606,2.7405,2.7331,2.8423,2.9927,0.0,0.0,0.0,0.0,0.0,0.0,0.0,0.0,0.0,0.0,0.0,0.0,0.0,0.0,0.0,0.0,0.0,0.0,0.6109,0.3951,0.1895,0.0098,-0.1666,-0.3033,-0.3993,-0.461,-0.4897,-0.4898,-0.5571,-0.6594,-0.7912,-0.8059,-0.8136,-0.8212,-0.8471,-0.8524,-0.8481,-0.9278,-0.9154,-0.8535,-0.987,-1.1175,-1.2485,0.0,0.0,0.0,0.0,0.0,0.0,0.0,0.0494,0.4844,1.4763,1.7708,1.781,1.9354,1.9331,1.8759,1.8477,1.7723,1.6888,1.6343,1.6952,1.7963,1.8967,1.9866,2.0702,2.1442,2.1287,2.0829,2.0309,0.0,0.0,0.0,0.0,0.0,0.0,0.0,0.0,0.0,0.0,0.0,0.0,0.0,0.0,0.0,0.0,0.0,0.0,0.0,0.0,0.0,1.1769,1.1751,1.1751,1.3579,1.5472,1.7342,1.9639,2.0922,2.1345,2.2275,2.288,2.3259,2.3989,2.4307,2.4356,2.5027,2.5303,2.5303,2.5303,2.637,2.786,2.7606,2.8728,3.0371,0.0,0.0,0.0,0.0,0.0,0.0,0.0,0.0,0.0,0.0,0.0,0.0,0.0,0.0,0.0,0.0,0.0,0.0,0.6528,0.4822,0.2934,0.0715,-0.108,-0.2747,-0.4237,-0.4963,-0.5375,-0.547,-0.6262,-0.73,-0.8488,-0.9262,-0.9535,-0.9303,-0.8724,-0.8793,-0.9408,-0.9944,-1.0189,-1.0288,-1.1068,-1.1815,-1.2576,0.0,0.0,0.0,0.0,0.0,0.0,0.0,0.0,0.0,1.4347,1.7746,1.8329,1.9426,1.9522,1.9168,1.8626,1.8076,1.7636,1.7329,0.0,1.8644,1.9791,2.024,2.0738,2.1854,2.1728,2.1462,2.1668,0.0,0.0,0.0,0.0,0.0,0.0,0.0,0.0,0.0,0.0,0.0,0.0,0.0,0.0,0.0,0.0,0.0,0.0,0.0,0.0,0.0,1.3803,1.3657,1.4796,1.5286,1.6863,1.9505,2.0749,2.1631,2.2243,2.3186,2.3671,2.3792,2.4381,2.4714,2.4809,2.5216,2.5329,2.5293,2.5346,2.6043,2.7052,2.7585,2.8538,2.9631,0.0,0.0,0.0,0.0,0.0,0.0,0.0,0.0,0.0,0.0,1.4959,1.476,0.0,0.0,0.0,0.0,0.0,0.0,0.0,0.5481,0.3598,0.1663,-0.0295,-0.2309,-0.4426,-0.5104,-0.5547,-0.5768,-0.6599,-0.7713,-0.9018,-0.9879,-1.0222,-0.998,-0.9202,-0.9188,-0.975,-0.9938,-1.0052,-1.0213,-1.1089,-1.1617,-1.2082,0.0,0.0,0.0,0.0,0.0,0.0,0.0,0.0,0.0,1.4625,1.7914,1.8264,1.8945,1.8854,1.8416,1.7765,1.7378,0.0,1.7023,1.7577,1.8517,1.9821,0.0,0.0,0.0,2.2331,2.2211,0.0,0.0,0.0,0.0,0.0,0.0,0.0,0.0,0.0,0.0,0.0,0.0,0.0,0.0,0.0,0.0,0.0,0.0,0.0,0.0,0.0,0.0,1.5136,1.5266,1.6413,1.7124,1.8682,2.0977,2.1858,2.2641,2.3382,2.3895,2.419,2.4349,2.4718,2.4968,2.5133,2.5316,2.5363,2.5322,2.536,2.5901,2.6747,2.7624,2.8498,2.9322,0.0,0.0,0.0,0.0,0.0,0.0,0.0,0.0,0.0,0.0,1.4966,1.4826,0.0,0.0,0.0,0.0,0.0,0.0,0.0,0.602,0.4167,0.2896,0.0523,-0.1966,-0.45,-0.4978,-0.5424,-0.5923,-0.6653,-0.7841,-0.9475,-1.0024,-1.0361,-1.0443,-0.9791,-0.9553,-0.962,-0.9467,-0.9157,-0.8873,-1.0218,-1.0876,-1.1217,-1.335,0.0,0.0,0.0,0.0,0.0,0.0,0.0,0.0,1.5463,1.825,1.7851,1.8206,1.7776,1.7032,1.6548,1.6155,1.5938,1.6004,1.6821,0.0,1.9403,2.1211,2.2576,2.2521,0.0,0.0,0.0,0.0,0.0,0.0,0.0,0.0,0.0,0.0,0.0,0.0,0.0,0.0,0.0,0.0,0.0,0.0,0.0,0.0,0.0,0.0,0.0,1.564,1.6023,1.6531,1.7152,1.897,2.0596,2.2012,2.2963,2.3823,2.4543,2.4425,2.455,2.4869,2.4993,2.5141,2.5313,2.5379,2.5363,2.5322,2.5383,2.5885,2.6711,2.7571,2.8404,2.9118,0.0,0.0,0.0,0.0,0.0,0.0,0.0,0.0,0.0,0.0,0.0,0.0,0.0,0.0,0.0,0.0,0.0,0.0,0.0,0.6845,0.5408,0.4763,0.0231,-0.2838,-0.4086,-0.4241,-0.4889,-0.6144,-0.6705,-0.7795,-0.927,-0.999,-1.0505,-1.0833,-0.9965,-0.9634,-0.9724,-0.9179,-0.87,-0.8421,-0.9415,-1.0271,-1.1019,-1.1941,-1.2555,0.0,0.0,0.0,0.0,0.0,0.0,0.0,1.6634,1.8751,1.8273,1.8427,1.8029,1.7611,1.7857,1.6998,0.0,1.6845,1.7808,1.886,1.9811,2.0849,2.1533,2.1268,0.0,0.0,0.0,0.0,0.0,0.0,0.0,0.0,0.0,0.0,0.0,0.0,0.0,0.0,0.0,0.0,0.0,0.0,0.0,0.0,0.0,0.0,0.0,1.7884,1.7043,1.7413,1.9092,1.9931,2.142,0.0,2.4059,2.4524,2.4879,2.492,2.5051,2.5272,2.5245,2.5264,2.5313,2.5379,2.5391,2.5391,2.5459,2.5585,2.5851,2.674,2.7216,2.7521,0.0,0.0,0.0,0.0,0.0,0.0,0.0,0.0,0.0,0.0,0.0,0.0,0.0,0.0,0.0,0.0,0.0,0.0,0.0,0.0,0.5697,0.3484,-0.0533,-0.2929,-0.3372,-0.4947,-0.6174,-0.6974,-0.8045,-0.9154,-1.0204,-1.0283,-1.0418,-1.0598,-0.9693,-0.9188,-0.8949,-0.8248,-0.7883,-0.7902,-0.8861,-0.9503,-0.9963,-1.0945,-1.0923,-1.0549,-1.1991,0.0,0.0,0.0,0.0,0.0,0.0,0.0,1.7646,1.7752,1.7304,1.6747,1.6544,1.6035,0.0,1.6536,0.0,1.8125,1.8483,1.8901,1.9141,0.0,0.0,0.0,0.0,0.0,0.0,0.0,0.0,0.0,0.0,0.0,0.0,0.0,0.0,0.0,0.0,0.0,0.0,0.0,0.0,0.0,0.0,2.0032,1.9113,1.8981,1.7974,1.8045,1.9342,2.0302,2.1718,2.3526,2.3997,2.456,2.5197,2.5197,2.5262,2.5391,2.5321,2.5303,2.5303,2.5413,2.5428,2.5408,2.5517,2.5551,2.5648,2.6521,2.6883,2.7005,0.0,0.0,0.0,0.0,0.0,0.0,0.0,0.0,0.0,0.0,0.0,0.0,0.0,0.0,0.0,0.0,0.0,0.0,0.0,0.0,0.0,0.1844,-0.0821,-0.2396,-0.2679,-0.5902,-0.7813,-0.8218,-0.9625,-1.0586,-1.1089,-1.0389,-1.0021,-0.9935,-0.904,-0.8291,-0.7686,-0.697,-0.6812,-0.7181,-0.8319,-0.8737,-0.882,-1.0157,-0.9525,-0.8043,-0.8753,-0.6773,-0.2967,0.2278,0.0,0.0,0.0,0.0,1.6675,1.6622,1.6173,1.5487,1.4694,1.4729,1.5133,1.5743,1.6506,0.0,1.693,1.7018,1.711,0.0,0.0,0.0,0.0,0.0,0.0,0.0,0.0,0.0,0.0,0.0,0.0,0.0,0.0,0.0,0.0,0.0,0.0,0.0,0.0,0.0,2.2095,2.0737,1.976,1.9377,1.8585,1.8488,1.9146,2.0401,2.1659,2.2918,2.341,2.4111,2.4967,2.4904,2.5067,2.5398,2.5321,2.5303,2.5303,2.5428,2.5465,2.5434,2.5554,2.5605,2.5707,2.6429,2.6733,2.6777,0.0,0.0,0.0,0.0,0.0,0.0,0.0,0.0,0.0,0.0,1.3952,0.0,0.0,0.0,0.0,0.0,0.0,0.0,0.8937,0.0,0.0,0.3331,0.096,-0.1106,-0.2679,-0.5605,-0.8055,-0.9954,-1.0205,-1.0332,-1.0408,-0.939,-0.9015,-0.9087,-0.7767,-0.6798,-0.6158,-0.5538,-0.5443,-0.5876,-0.7236,-0.8124,-0.8681,-0.9403,-0.9368,-0.8513,-0.5408,-0.3315,-0.0756,0.7518,1.0863,0.0,0.0,0.0,1.6035,1.5239,1.5056,1.5054,1.4812,0.0,1.494,0.0,1.6086,1.7065,0.0,0.0,0.0,0.0,0.0,0.0,0.0,0.0,0.0,0.0,0.0,0.0,0.0,0.0,0.0,0.0,0.0,0.0,0.0,0.0,0.0,0.0,0.0,0.0,2.2054,2.1106,2.0153,1.9258,1.85,1.865,1.9776,2.0436,2.1357,2.2574,2.287,2.3093,2.3231,2.3223,2.401,2.5406,2.5321,2.5303,2.5322,2.5376,2.5441,2.5484,2.5564,2.5634,2.5703,2.582,2.5879,2.5879,0.0,0.0,0.0,0.0,0.0,0.0,0.0,0.0,0.0,0.0,0.0,1.3374,0.0,0.0,0.0,1.217,1.0038,0.7875,0.6013,0.4462,0.2373,-0.031,-0.2686,-0.3915,-0.3935,-0.6567,-0.8423,-0.9399,-1.1111,-1.1356,-1.0283,-0.9199,-0.8753,-0.8764,-0.7249,-0.6249,-0.564,-0.5237,-0.5228,-0.5608,-0.697,-0.7485,-0.7524,-0.7954,-0.7621,-0.6533,-0.3318,-0.1574,0.0302,0.7341,1.0315,1.1412,1.332,0.0,0.0,0.0,1.4593,1.4206,1.432,1.386,1.3558,0.0,1.4942,1.5176,1.5478,0.0,0.0,0.0,0.0,0.0,0.0,0.0,0.0,0.0,0.0,0.0,0.0,0.0,0.0,0.0,0.0,0.0,0.0,0.0,0.0,0.0,0.0,2.2429,2.1861,2.1218,2.0613,1.9992,1.9231,1.9141,1.9777,2.0012,2.0748,2.1953,2.2541,2.2848,2.2837,2.2848,2.3265,2.3999,2.3923,2.4195,2.4695,2.4749,2.5099,2.5561,2.5633,2.5662,2.5703,2.5703,2.5703,2.5703,0.0,0.0,0.0,0.0,0.0,0.0,0.0,0.0,0.0,0.0,0.0,0.0,0.0,0.0,0.0,0.0,0.965,0.7222,0.4227,0.3784,0.1432,-0.3398,-0.5799,-0.65,-0.5453,-0.7594,-0.8837,-0.9119,-1.1875,-1.2461,-1.0981,-0.9421,-0.8635,-0.8472,-0.6722,-0.5603,-0.5044,-0.4837,-0.5018,-0.5503,-0.676,-0.7003,-0.6646,-0.7157,-0.6492,-0.4919,-0.2173,-0.0303,0.1597,0.606,0.8575,1.0176,1.1872,1.3593,0.0,0.0,0.0,1.3333,0.0,0.0,1.3088,1.4309,1.448,1.4396,0.0,0.0,0.0,0.0,0.0,0.0,0.0,0.0,0.0,0.0,0.0,0.0,0.0,0.0,0.0,0.0,0.0,0.0,0.0,0.0,0.0,0.0,0.0,2.1942,2.1552,2.1255,2.0902,2.0444,1.9838,1.9623,1.9806,1.9844,2.0289,2.1196,2.1856,2.2164,2.2158,2.2164,2.2308,2.2552,2.272,2.3446,2.449,2.4365,2.481,2.5605,2.5662,2.5703,2.5703,2.5703,2.5703,2.5703,0.0,0.0,0.0,0.0,0.0,0.0,0.0,0.0,0.0,0.0,0.0,0.0,1.1321,1.1298,1.0782,0.9478,0.8831,0.756,0.5338,0.42,0.1425,-0.3398,-0.5777,0.0,-0.689,-0.808,-0.9199,-1.0205,-1.2234,-1.3163,-1.2978,-1.005,-0.8504,-0.8057,-0.5931,-0.4575,-0.3881,-0.3867,-0.4369,-0.5209,-0.6442,-0.6788,-0.6724,-0.7796,-0.7004,-0.4945,-0.2195,0.0788,0.3601,0.4999,0.7042,0.9145,1.0222,1.2154,1.3929,0.0,0.0,0.0,0.0,1.4029,0.0,1.4459,1.5575,0.0,0.0,0.0,0.0,0.0,0.0,0.0,0.0,0.0,0.0,0.0,0.0,0.0,0.0,0.0,0.0,0.0,0.0,0.0,0.0,0.0,0.0,0.0,0.0,2.2045,2.1086,2.1253,2.0936,1.9964,1.9907,1.9935,2.0073,2.0219,2.0296,2.0369,2.0418,2.0437,2.0427,2.0424,2.0843,2.1628,2.2436,2.3774,2.5284,2.4593,2.481,2.5605,2.5662,2.5703,2.5703,2.5703,2.5703,2.5703,0.0,0.0,0.0,0.0,0.0,0.0,0.0,0.0,0.0,0.0,0.0,0.0,0.0,0.9913,0.9868,0.9669,0.967,0.8429,0.5487,0.1323,-0.1462,-0.2408,-0.4902,-0.6188,-0.5905,-0.775,-0.8878,-0.9279,-1.0176,-1.0502,-1.0272,-0.8472,-0.7551,-0.7349,-0.6117,-0.5213,-0.465,-0.4999,-0.5325,-0.5682,-0.6607,-0.6916,-0.6878,-0.692,-0.554,0.0,0.0,0.0,0.0,0.0,0.0,0.0,0.0,0.0,0.0,0.0,0.0,0.0,0.0,0.0,0.0,1.3694,1.4179,1.4485,0.0,0.0,0.0,0.0,0.0,0.0,0.0,0.0,0.0,0.0,0.0,0.0,0.0,0.0,0.0,0.0,0.0,0.0,0.0,0.0,0.0,0.0,0.0,0.0,2.0587,2.0646,2.0547,2.0224,2.0224,2.0218,2.0231,2.0284,2.0312,2.0312,2.0304,2.0304,2.0331,2.0824,2.1536,2.2359,2.2701,2.356,2.4666,2.4418,2.4846,2.5661,2.5683,2.5703,2.5703,2.5703,2.5703,2.5703,0.0,0.0,0.0,0.0,0.0,0.0,0.0,0.0,0.0,1.0214,0.0,0.0,0.0,0.0,0.9135,0.9135,0.8699,0.7137,0.4134,-0.0041,-0.2354,-0.2296,-0.463,-0.5701,-0.5308,-0.7412,-0.8504,-0.8504,-0.8464,-0.8131,-0.7536,-0.6622,-0.6495,-0.6967,-0.6315,-0.5704,-0.5199,-0.5694,-0.6061,-0.6337,-0.6861,-0.7111,-0.707,-0.6306,0.0,0.0,0.0,0.0,0.0,0.0,0.0,0.0,0.0,0.0,0.0,0.0,0.0,0.0,1.2364,0.0,0.0,0.0,0.0,1.3775,0.0,0.0,0.0,0.0,0.0,0.0,0.0,0.0,0.0,0.0,0.0,0.0,0.0,0.0,0.0,0.0,0.0,0.0,0.0,0.0,0.0,0.0,0.0,0.0,2.0341,2.0352,2.0398,2.0432,2.0383,2.0362,2.0288,2.0299,2.0312,2.0312,2.0312,2.0312,2.0331,2.1139,2.1985,2.2802,2.2844,2.3566,2.4681,2.4448,2.4864,2.5703,2.5703,2.5703,2.5703,2.5703,2.5703,2.5703,0.0,0.0,0.0,0.0,0.0,0.0,0.0,0.0,1.143,1.0487,0.0,0.0,0.0,0.0,0.0,0.7618,0.5774,0.3681,0.1409,0.042,-0.1033,-0.3198,-0.4937,-0.5696,-0.5308,-0.7113,-0.8024,-0.8049,-0.7265,-0.6319,-0.5265,-0.487,-0.5492,-0.6947,-0.6446,-0.5905,-0.5368,-0.5768,-0.6375,-0.7079,0.0,-0.7372,-0.7265,0.0,0.0,0.0,-0.0578,0.0621,0.0,0.0,0.0,0.0,0.0,0.0,0.0,0.0,0.0,0.0,0.0,0.0,0.0,0.0,0.0,0.0,0.0,0.0,0.0,0.0,0.0,0.0,0.0,0.0,0.0,0.0,0.0,0.0,0.0,0.0,0.0,0.0,0.0,0.0,0.0,0.0,0.0,0.0,0.0,2.0391,2.0395,2.0472,2.0508,2.0508,2.0366,2.0294,2.0307,2.0306,2.0292,2.0312,2.0312,2.0312,2.0331,2.1139,2.1985,2.2793,2.2802,2.3816,2.5401,2.4654,2.4857,2.5625,2.5644,2.5664,2.5664,2.5684,2.5703,2.5703,0.0,0.0,0.0,0.0,0.0,0.0,1.1238,1.1225,1.0082,0.0,0.0,0.0,0.6771,0.7594,0.7482,0.5989,0.4257,0.2445,0.05,-0.1266,-0.2571,-0.3276,-0.4274,-0.4966,-0.5303,-0.6174,-0.6692,-0.6736,-0.6909,-0.5964,-0.4068,-0.4341,-0.4963,-0.5815,-0.6393,-0.672,-0.684,-0.7208,0.0,-0.814,-0.7974,-0.7818,0.0,0.0,0.0,0.0,0.0,0.2049,0.2634,0.0,0.7149,0.9214,0.0,0.0,0.0,0.0,0.0,0.0,1.2575,0.0,0.0,0.0,0.0,0.0,0.0,0.0,0.0,0.0,0.0,0.0,0.0,0.0,0.0,0.0,0.0,0.0,0.0,0.0,0.0,0.0,0.0,0.0,0.0,0.0,0.0,0.0,2.0341,2.0399,2.0403,2.0505,2.0542,2.0508,2.0453,2.0406,2.0294,2.0308,2.0301,2.0312,2.0312,2.0312,2.0331,2.1139,2.1985,2.2802,2.2852,2.3502,2.4491,2.372,2.3552,2.3887,2.4512,2.4766,2.4844,2.5469,2.5703,2.5703,0.0,0.0,0.0,0.0,0.0,0.9803,1.0352,0.9912,0.8503,0.0,0.0,0.0,0.5633,0.5854,0.5163,0.3218,0.2841,0.1736,-0.0585,-0.2217,-0.3172,-0.3307,-0.4022,-0.4561,-0.4913,-0.5927,-0.602,-0.5066,-0.5403,-0.4721,-0.3123,-0.3326,-0.4132,-0.5397,-0.6096,-0.7163,-0.8416,0.0,0.0,0.0,-0.8529,0.0,0.0,-0.6314,-0.4993,0.0,0.0,0.0,0.2461,0.5242,0.802,0.0,0.0,0.0,0.0,0.0,0.0,0.0,1.2075,1.2224,0.0,0.0,0.0,0.0,1.3599,1.3997,0.0,0.0,0.0,0.0,0.0,0.0,0.0,0.0,0.0,0.0,0.0,0.0,0.0,0.0,0.0,0.0,0.0,0.0,0.0,1.9783,2.0212,2.0446,2.0446,2.0527,2.0543,2.054,2.047,2.0383,2.0337,2.0305,2.0302,2.0294,2.0334,2.0347,2.0366,2.1176,2.1818,2.23,2.2311,2.2636,2.3086,2.2254,2.2391,2.3184,2.3672,2.4082,2.4453,2.4961,2.5391,2.5703,0.0,0.0,0.8628,0.9045,0.8808,0.8767,0.9368,0.8399,0.6998,0.0,0.3673,0.332,0.4944,0.3913,0.2273,0.018,0.1205,0.0917,-0.1638,-0.2667,-0.3191,-0.3306,-0.3956,-0.4347,-0.4387,-0.5853,-0.5507,-0.3231,-0.3211,-0.2895,-0.233,-0.2117,-0.3255,-0.5436,-0.5805,-0.7319,-0.9623,0.0,0.0,-0.9558,-0.907,-0.8585,0.0,0.0,-0.3747,0.0,-0.0976,0.0404,0.1763,0.5151,0.8547,0.0,0.0,0.0,0.0,0.0,1.2971,1.2501,1.1529,1.1799,1.2275,0.0,0.0,0.0,1.2789,1.3302,0.0,0.0,0.0,0.0,0.0,0.0,0.0,0.0,0.0,0.0,0.0,0.0,0.0,0.0,0.0,0.0,0.0,1.814,1.871,1.9134,1.9994,2.0484,2.0484,2.0488,2.0504,2.0566,2.0416,2.0342,2.0398,2.0337,2.0305,2.0305,2.0357,2.0383,2.0426,2.1136,2.1507,2.1598,2.154,2.1585,2.1647,2.0862,2.1499,2.291,2.2949,2.3496,2.4277,2.4375,2.4941,2.5703,0.0,0.669,0.7482,0.841,0.8148,0.7716,0.7366,0.7508,0.6688,0.3904,0.3056,0.3008,0.384,0.2004,0.0493,0.0045,-0.1456,-0.2206,-0.1838,-0.2855,-0.3448,-0.3306,-0.358,-0.3965,-0.4387,-0.4324,-0.3416,-0.1666,-0.102,-0.1108,-0.1932,-0.1707,-0.2766,-0.4893,-0.5919,-0.7059,-0.8291,0.0,0.0,-1.0118,-0.9982,0.0,-0.7643,-0.5516,-0.4187,-0.3135,-0.088,0.068,0.2344,0.0,0.9142,1.091,0.0,0.0,0.0,0.0,0.0,0.0,0.0,0.0,0.0,0.0,0.0,0.0,1.3472,1.3864,1.3614,0.0,0.0,0.0,0.0,0.0,0.0,0.0,0.0,0.0,0.0,0.0,0.0,0.0,0.0,0.0,0.0,1.6642,1.7449,1.8844,1.988,2.0425,2.0425,2.0422,2.0399,2.0357,2.0426,2.0428,2.0324,2.0359,2.0374,2.0374,2.0332,2.0342,2.0406,2.0515,2.0946,2.1604,2.1585,2.1626,2.169,2.1561,2.1357,2.1172,2.1875,2.2676,2.3516,2.416,2.4941,2.5703,0.5122,0.5421,0.5845,0.6659,0.6578,0.6319,0.6048,0.6272,0.5319,0.2005,0.1421,0.1478,0.1791,0.0718,-0.0493,-0.1708,-0.2917,-0.336,-0.2732,-0.3255,-0.3559,-0.3466,-0.3537,-0.3707,-0.4008,-0.3759,-0.2901,-0.1505,0.0713,0.1505,0.0863,-0.1286,-0.3013,-0.4383,-0.5418,-0.6594,-0.7921,0.0,-1.0516,-1.0649,-1.035,0.0,-0.6402,-0.5463,-0.4537,-0.3514,-0.159,0.0624,0.3042,0.5645,0.8273,0.0,0.0,1.2641,1.3327,0.0,1.3707,1.3202,0.0,0.0,0.0,1.362,0.0,0.0,0.0,1.3878,1.3628,0.0,0.0,0.0,0.0,0.0,0.0,0.0,0.0,0.0,0.0,0.0,0.0,0.0,0.0,0.0,0.0,1.5855,1.6765,1.8241,1.8841,1.9336,1.973,1.9776,1.9987,2.0389,2.042,2.043,2.0391,2.0433,2.0444,2.0444,2.0444,2.0444,2.0444,2.0422,2.0609,2.0946,2.0958,2.0997,2.1048,2.1097,2.0902,2.0644,2.1074,2.1777,2.2656,2.3457,2.4297,2.5117,0.4424,0.4248,0.4318,0.4859,0.4533,0.4212,0.4288,0.4654,0.3604,-0.0211,-0.0701,-0.0672,-0.0673,-0.0492,-0.1029,-0.2744,-0.3337,-0.3602,-0.3585,-0.3585,-0.3581,-0.3581,-0.3581,-0.3585,-0.3585,-0.3595,-0.3004,-0.1786,0.1345,0.3017,0.3161,-0.0687,-0.2975,-0.3921,-0.4834,-0.6192,-0.7817,0.0,0.0,-1.1132,0.0,-0.8661,-0.5764,-0.5634,-0.5006,-0.3973,-0.2219,0.0553,0.3538,0.4722,0.0,1.0033,1.0694,1.1998,0.0,0.0,0.0,0.0,0.0,0.0,0.0,0.0,0.0,1.4063,0.0,0.0,0.0,1.4598,0.0,0.0,0.0,0.0,0.0,0.0,0.0,0.0,0.0,0.0,0.0,0.0,0.0,0.0,0.0,1.531,1.6251,1.7456,1.7617,1.7994,1.8808,1.8895,1.9328,2.0194,2.0186,2.0273,2.0485,2.0495,2.051,2.0515,2.0542,2.0541,2.0515,2.0484,2.0429,2.0351,2.0531,2.0521,2.0425,2.061,2.0644,2.0605,2.0605,2.123,2.2227,2.2871,2.3769,2.4746,0.3482,0.3276,0.3357,0.4035,0.2188,0.061,0.0617,0.2409,0.2125,-0.2588,-0.3191,-0.3197,-0.3191,-0.2237,-0.1295,-0.0492,0.0,0.0,-0.3595,0.0,-0.3592,-0.3581,-0.3592,-0.3595,-0.3595,-0.3605,-0.3013,-0.1786,-0.0313,0.0937,0.1949,0.0378,-0.1433,-0.3442,-0.4849,-0.6199,0.0,0.0,-1.0355,0.0,-1.1664,-1.011,0.0,-0.6878,-0.5874,-0.462,-0.1833,0.072,0.3289,0.0,0.7448,0.7856,0.0,1.2708,0.0,0.0,0.0,0.0,0.0,0.0,0.0,0.0,1.3578,0.0,0.0,0.0,1.4217,1.4192,0.0,1.3096,1.3229,0.0,0.0,0.0,0.0,0.0,0.0,0.0,0.0,0.0,0.0,0.0,0.0,0.0,1.5598,1.6566,1.6716,1.7093,1.7901,1.794,1.8357,1.9234,1.9313,1.9672,2.0396,2.0469,2.0537,2.0585,2.0477,2.048,2.0585,2.0472,2.0435,2.0516,2.1299,2.1204,2.0545,2.1383,2.1289,2.0605,2.0605,2.1602,2.3066,2.3144,2.4199,2.5566,0.3088,0.2867,0.2978,0.3396,0.24,0.1211,0.0168,0.0847,0.0279,-0.3129,-0.3599,-0.3642,0.0,0.0,0.0,0.0,0.0,-0.3588,0.0,0.0,-0.3497,-0.3578,-0.2907,-0.287,-0.3609,-0.3612,-0.2655,-0.0761,-0.0269,0.0269,0.076,0.0256,-0.1225,-0.348,-0.3915,0.0,-0.3377,0.0,-0.969,0.0,0.0,0.0,0.0,-0.7419,-0.6175,-0.4846,-0.1888,0.102,0.3621,0.0,0.6496,0.0,0.0,0.0,0.0,0.0,0.0,0.0,0.0,0.0,0.0,0.0,0.0,0.0,0.0,0.0,1.4017,0.0,0.0,0.0,0.0,0.0,0.0,0.0,0.0,0.0,0.0,0.0,0.0,0.0,0.0,0.0,0.0,0.0,0.0,0.0,1.4783,1.5454,1.6294,1.6784,1.7688,1.9063,1.9165,1.959,2.0447,2.0527,2.0565,2.0605,2.051,2.0472,2.0482,2.0472,2.0432,2.0418,2.0845,2.0839,2.0527,2.0928,2.0896,2.0644,2.1152,2.1797,2.25,2.2969,2.3885,2.4951,0.2996,0.2821,0.2816,0.2624,0.2803,0.2275,0.0307,-0.0698,-0.1703,-0.3039,0.0,0.0,-0.3976,-0.3946,0.0,0.0,-0.3664,-0.352,0.0,0.0,-0.3288,-0.3123,-0.1964,0.0,0.0,-0.2613,-0.1753,0.0,0.0,0.0,0.0,0.0,-0.0922,-0.2642,-0.3033,-0.2214,-0.0797,0.0,0.0,-1.0322,-1.0687,-1.007,-0.8815,-0.758,-0.633,-0.4846,-0.2284,0.0487,0.2904,0.3006,0.4789,0.0,1.2936,0.0,0.0,0.0,0.0,0.0,1.3573,0.0,0.0,0.0,0.0,0.0,0.0,0.0,0.0,0.0,0.0,0.0,0.0,0.0,1.0887,1.1285,0.0,1.0502,0.0,0.0,0.0,0.0,0.0,0.0,0.0,0.0,0.0,1.2927,1.3244,1.3973,1.5216,1.584,1.6977,1.8712,1.8812,1.939,2.0488,2.0564,2.0605,2.0605,2.0537,2.0482,2.0467,2.0482,2.0467,2.0398,2.0482,2.0536,2.0536,2.0536,2.0562,2.0684,2.1562,2.2031,2.2322,2.3123,2.3932,2.4723,0.3295,0.3199,0.0,0.0,0.0,0.0,0.0387,-0.2486,0.0,0.0,0.0,0.0,0.0,0.0,0.0,0.0,0.0,-0.3371,-0.3568,0.0,-0.3088,0.0,-0.0714,-0.009,0.0,0.0,-0.009,0.0,0.0,0.0,0.0,0.0,-0.0046,-0.0224,-0.2553,-0.2912,-0.1883,-0.4235,-0.7168,-1.0283,-1.0322,-0.923,-0.7538,0.0,-0.6408,-0.47,-0.3123,0.0,0.0,0.3089,0.2333,0.0,0.0,0.0,0.0,0.0,0.0,0.0,0.0,0.0,0.0,1.2452,0.0,0.0,0.0,0.0,1.2924,0.0,0.0,0.0,0.0,1.0864,1.0743,0.9404,1.004,0.0,0.0,0.0,0.0,0.0,0.0,0.0,0.0,0.0,0.0,1.3373,1.2609,1.2987,1.5091,1.5284,1.6134,1.7874,1.7933,1.8773,2.0488,2.0564,2.0605,2.0605,2.0537,2.0539,2.0586,2.0537,2.0539,2.0586,2.0586,2.0605,2.0605,2.0605,2.0605,2.0684,2.1562,2.2378,2.3159,2.3961,2.4778,2.5464,0.0,0.3595,0.0,0.0,0.0,0.0,0.0,-0.2968,0.0,0.0,0.0,0.0,0.0,0.0,-0.3828,0.0,0.0,-0.3649,-0.3585,-0.3475,0.0,0.0,0.0,-0.1191,0.0,0.0,0.0,-0.0,-0.1615,-0.2384,-0.2341,-0.0747,0.0519,0.1396,-0.0424,-0.1842,0.0,0.0,0.0,0.0,0.0,-0.885,-0.7395,0.0,0.0,-0.3847,-0.2973,-0.1526,0.0,0.1043,0.1513,0.21,0.4261,0.5826,0.7184,0.8859,1.1533,0.0,0.0,0.0,1.398,1.2493,0.0,0.0,0.0,0.0,0.0,0.0,0.0,0.0,0.0,0.9432,0.902,0.9198,0.9348,0.9424,0.0,0.0,0.0,0.0,0.0,0.0,0.0,0.0,0.0,1.1218,1.0274,0.9824,1.0144,1.3423,1.6075,1.778,1.7883,1.8748,2.0488,2.0564,2.0605,2.0605,2.1124,2.1079,2.0578,2.1704,2.1606,2.0597,2.1796,2.168,2.0644,2.1211,2.1465,2.1543,2.2376,2.3154,2.386,2.4186,2.4771,2.5415,0.3736,0.0,0.0,0.0,0.0,0.0,0.0,0.0,0.0,0.0,-0.3966,0.0,-0.3883,0.0,-0.3778,0.0,-0.3731,-0.3659,-0.3585,-0.34,0.0,-0.3396,-0.2649,0.0,0.0,0.0,0.0,-0.1299,-0.2424,-0.3194,-0.3567,-0.1994,-0.0048,0.219,0.1782,-0.0097,-0.2984,0.0,-0.6177,0.0,0.0,-0.8127,0.0,0.0,-0.5297,-0.3052,0.0,-0.0996,0.0,0.0,0.0748,0.1483,0.0354,0.1991,0.4623,0.6226,1.0295,1.4161,1.3582,1.4025,0.0,1.2788,1.3232,0.0,1.1763,0.0,0.0,0.0,0.0,0.0,0.0,0.0,0.8717,0.9331,0.9463,0.9475,0.0,1.01,0.0,0.0,0.0,0.0,0.0,0.0,1.0392,1.0987,0.9443,0.9007,0.0,0.0,1.6048,1.7773,1.7886,1.8752,2.0519,2.0585,2.0762,2.1074,2.1598,2.1692,2.1457,2.259,2.2492,2.1516,2.2676,2.2341,2.1072,2.1612,2.1824,2.1901,2.274,2.3517,2.4203,2.4564,2.4974,2.5354,0.0,0.0,0.0,0.0,-0.0813,0.0,0.0,0.0,-0.4423,0.0,-0.4066,-0.4016,-0.3999,-0.3748,-0.3636,-0.3768,-0.348,0.0,-0.3571,-0.3442,0.0,0.0,-0.3226,-0.322,-0.3571,0.0,0.0,0.0,-0.246,-0.246,-0.3605,-0.3617,-0.1579,0.2102,0.3791,0.0,-0.1944,-0.5376,-0.6881,-0.6919,-0.6939,-0.7131,-0.7395,-0.6982,-0.5159,-0.2565,-0.0676,0.0,0.0,0.0,0.0,0.0,0.0,0.0,0.0844,0.5112,0.9937,1.3927,1.4136,1.4332,1.4263,1.3256,0.0,0.0,0.0,0.0,1.1896,0.0,0.0,0.0,0.0,0.0,0.0,0.9721,1.0304,1.0531,0.9919,0.0,0.0,0.0,0.0,0.0,0.0,1.0033,1.0744,1.2522,1.0206,1.0624,0.0,0.0,1.6072,1.7841,1.7942,1.8806,2.0586,2.0605,2.1035,2.1894,2.1933,2.2363,2.3105,2.3183,2.3203,2.3183,2.3207,2.2689,2.1793,2.1769,2.1744,2.1783,2.2663,2.3473,2.4261,2.5089,2.5354,2.5303,0.2315,0.2971,0.372,0.0,0.0381,-0.3159,0.0,0.0,0.0,0.0,-0.4046,-0.3938,-0.3717,-0.3626,-0.3595,-0.3632,-0.3565,0.0,0.0,0.0,0.0,-0.337,-0.344,-0.3393,-0.3249,-0.2907,0.0,-0.3594,-0.3293,-0.3312,-0.3602,-0.3604,-0.234,0.0049,0.3141,0.2634,-0.0613,-0.3334,-0.4958,-0.576,-0.6168,-0.6331,0.0,0.0,-0.5007,-0.5352,-0.1414,0.0,0.0,0.0,0.0,0.0,0.0,0.0,0.0219,0.1383,0.732,1.3622,1.4028,1.4307,1.4286,1.3428,1.3568,1.3419,0.0,0.0,0.0,0.0,0.0,0.0,0.0,0.0,0.0,0.9832,1.078,1.1466,0.0,0.0,0.0,0.0,0.0,0.0,0.0,0.9216,0.9565,1.173,1.2776,1.3824,1.4995,0.0,0.0,1.7861,1.8536,1.9395,2.0516,2.0536,2.0935,2.1766,2.2457,2.2864,2.3069,2.4319,2.4202,2.3123,2.4347,2.3677,2.1769,2.2419,2.2278,2.1772,2.2608,2.3763,2.5023,2.5244,2.5313,2.5303,-0.0099,0.0,0.0,0.4392,0.0,0.0,-0.4069,0.0,0.0,-0.406,-0.4019,0.0,-0.3697,-0.3615,-0.3581,-0.3581,-0.3581,0.0,0.0,0.0,0.0,-0.3453,-0.3534,-0.35,-0.3327,-0.2971,0.0,-0.3595,0.0,-0.3585,-0.3595,-0.3605,-0.2735,-0.1123,0.1141,0.1208,-0.0511,-0.267,-0.4178,-0.5079,-0.5366,0.0,0.0,-0.4064,-0.4978,-0.6368,-0.169,0.0,0.0,0.0,0.0,0.0,0.0,0.0,0.0388,0.2345,0.5125,0.8476,1.2736,1.4175,1.4354,1.3721,1.373,1.3521,1.2089,1.2041,1.2084,0.0,0.0,0.0,0.0,0.0,0.0,1.0792,1.152,0.0,0.0,0.0,0.0,0.0,0.0,0.0,0.0,0.9589,1.0114,1.2761,1.3751,1.4475,0.0,0.0,0.0,1.7861,1.8726,1.96,2.0488,2.123,2.1811,2.2274,2.3159,2.3759,2.4117,2.471,2.4652,2.4117,2.468,2.3892,2.225,2.2726,2.2617,2.2301,2.3497,2.4493,2.5303,2.5303,2.5303,2.5303,0.0,0.0,0.0,0.0,0.0,0.0,0.0,-0.4284,0.0,-0.407,0.0,-0.3934,-0.3782,-0.3656,-0.3581,-0.3581,0.0,-0.3581,-0.3581,-0.3581,-0.3581,-0.3581,-0.3581,-0.3571,-0.3551,-0.3398,0.0,0.0,0.0,-0.3581,-0.3585,-0.3714,-0.3061,-0.1841,-0.1424,0.0,0.0,-0.2966,-0.3997,-0.4567,-0.4555,-0.4758,-0.4959,-0.3995,-0.4651,-0.5531,-0.1461,0.0,0.0,0.0,0.0,0.0,0.0,0.0,0.0759,0.4673,0.3885,0.3372,1.076,1.3547,1.4264,1.3886,1.3811,1.3616,1.2664,1.2523,1.2463,1.1958,1.1059,1.0614,0.0,0.0,0.0,0.0,0.0,0.0,0.0,0.0,0.0,0.0,0.0,0.0,0.0,0.0,1.1534,1.4317,1.3783,1.3819,0.0,0.0,0.0,1.7832,1.8785,1.9696,2.0631,0.0,2.2931,2.315,2.3849,2.4622,2.5413,2.4719,2.4694,2.5201,2.443,2.355,2.2661,2.2615,2.2669,2.291,2.4399,2.5081,2.5264,2.5264,2.5264,2.5264,0.0,0.0,0.0,0.0,0.0,-0.4158,-0.4357,-0.4165,-0.4063,-0.4134,-0.4017,-0.3835,-0.3636,-0.3602,-0.3595,-0.3595,-0.3585,0.0,0.0,0.0,0.0,-0.3581,-0.3581,-0.352,-0.335,-0.348,-0.3141,0.0,-0.3174,-0.3581,-0.3626,-0.4232,-0.4044,-0.3228,-0.3173,0.0,-0.3175,-0.3627,0.0,-0.3805,-0.378,-0.3823,-0.3884,-0.3688,-0.2608,-0.1116,-0.0294,0.0,0.0,0.0,0.0,0.0,0.0,0.0,0.0152,0.0945,0.586,1.0676,0.8876,1.0931,1.3528,1.3221,1.3422,1.3394,1.2411,1.2386,1.2514,1.2179,1.1373,1.0841,1.1301,0.0,0.0,0.0,0.0,0.0,0.0,0.0,0.0,0.0,0.0,0.0,0.0,0.0,0.0,1.3532,1.3532,1.3893,0.0,0.0,0.0,0.0,1.9298,0.0,0.0,0.0,2.2539,2.3921,2.406,2.445,2.5086,2.4933,2.4495,2.3845,2.3686,2.2775,2.1425,2.152,2.1943,2.259,2.3055,2.3976,2.5046,2.5046,2.5046,2.5077,0.0,0.0,0.0,0.0,0.0,0.0,0.0,-0.314,0.0,-0.3916,-0.388,-0.3875,-0.3753,-0.3083,-0.2684,-0.2684,-0.2682,-0.2948,-0.3578,-0.3581,-0.3581,-0.3581,-0.3581,0.0,-0.347,-0.3544,-0.3344,-0.2894,-0.3344,-0.3581,-0.3626,-0.3976,-0.4106,-0.3998,-0.3725,-0.3621,0.0,0.0,0.0,-0.1844,-0.308,-0.3606,-0.3472,-0.2207,-0.1007,0.0,0.0,0.0,0.0,0.0,0.0,0.0,0.0,0.0,0.0,0.0,0.6368,1.263,0.9087,1.0783,1.3517,1.3352,1.3459,1.3467,1.2997,1.2736,1.2572,1.2435,1.1687,1.1153,1.1454,1.2021,0.0,0.0,0.0,0.0,0.0,0.0,0.0,0.0,0.0,0.0,0.0,0.0,0.0,0.0,0.0,0.0,0.0,0.0,0.0,0.0,0.0,0.0,0.0,0.0,0.0,2.3283,2.4149,2.4689,2.4872,2.4435,2.4195,2.4144,2.3702,2.281,2.173,2.1795,2.1803,2.1905,2.3305,2.3998,2.4277,2.4733,2.4891,2.4904,0.0,-0.4522,0.0,0.0,-0.4511,0.0,-0.046,-0.1756,-0.3197,-0.3559,-0.3758,-0.3858,-0.3815,-0.237,-0.1429,-0.1429,-0.1429,-0.1832,-0.2773,-0.3084,-0.3353,-0.3578,-0.3581,-0.3581,-0.3581,-0.3581,-0.3581,0.0,-0.3581,-0.3581,-0.3581,-0.3711,-0.4008,-0.4443,0.0,0.0,0.0,0.0,-0.0237,-0.0187,-0.2088,-0.284,-0.263,-0.0726,0.0,0.0,0.0,0.0,0.0,0.0,0.0,0.0,0.0,0.0,0.0,0.0,0.6368,1.2888,1.05,1.1706,1.3632,1.3617,1.357,1.3539,1.3491,1.302,1.261,1.261,1.1999,1.1571,1.1828,1.2184,0.0,0.0,0.0,0.0,0.0,0.0,0.0,0.0,0.0,0.0,0.0,0.0,0.0,0.0,0.0,1.3941,1.595,1.6388,1.7243,0.0,0.0,2.028,2.048,0.0,2.3205,2.2718,2.4055,2.4701,2.4712,2.4038,2.3879,2.4124,2.362,2.2871,2.1977,2.1803,2.1557,2.15,2.3488,2.404,2.3804,2.4482,2.4731,2.4731,0.0,0.0,0.0,0.0,0.0,0.0,0.0,-0.0189,-0.1122,-0.3328,-0.3602,-0.3609,-0.3629,-0.1575,-0.018,-0.018,-0.018,-0.0225,-0.0314,-0.1341,-0.2455,-0.3534,-0.3581,-0.3581,-0.3581,-0.3581,-0.3581,0.0,0.0,-0.3581,-0.3626,-0.4092,-0.4439,-0.4622,0.0,0.0,0.0,-0.219,-0.099,-0.0,-0.0225,-0.0323,-0.0312,-0.0086,0.0,0.0,0.0,0.0,0.0,0.0,0.0,0.0,0.0,0.0,0.0,0.0,0.6368,1.3345,1.3057,1.3193,1.3462,1.357,1.3509,1.3363,1.3104,1.2834,1.261,1.261,1.2336,1.221,1.2459,1.2833,1.3314,0.0,0.0,0.0,0.0,0.0,0.0,0.0,0.0,0.0,0.0,1.0558,0.0,0.0,1.2923,1.3803,1.5808,1.6971,1.7857,1.8507,0.0,2.0225,2.1017,2.1251,2.2073,2.3415,2.358,2.3959,2.4528,2.4435,2.3555,2.2115,2.2777,2.2259,2.0886,2.0159,2.0667,2.1958,2.237,2.3299,2.4416,2.4491,2.4528,2.4512,0.0,0.0,0.0,0.0,0.0,0.0,0.0,0.0,-0.0359,-0.1298,-0.2687,-0.3595,-0.3602,-0.1436,0.0,0.0,0.0,0.0,0.0,-0.0448,-0.094,-0.1432,-0.2821,-0.3592,-0.3592,-0.3585,-0.3581,0.0,0.0,0.0,-0.3626,-0.384,-0.3968,0.0,0.0,-0.356,-0.3462,-0.1559,0.0168,0.1622,0.1609,0.0968,0.0,0.0,0.0,0.0,0.0,0.2561,0.5336,0.1343,0.0,0.0,0.0,0.0,0.0,0.0,0.4449,0.9963,1.2668,1.3396,1.3413,1.3462,1.3312,1.3138,1.3031,1.2797,1.261,1.261,1.2514,1.2475,1.2572,1.2717,1.3111,0.0,0.0,0.0,0.0,0.0,0.0,0.0,0.0,0.0,0.0,0.0,1.3551,0.0,0.0,1.4246,1.6853,1.7237,1.8161,1.983,0.0,2.0205,2.1016,2.1079,2.135,2.1887,2.237,2.2943,2.3601,2.3601,2.3472,2.3233,2.307,2.239,2.1368,2.1046,2.0994,2.1205,2.2298,2.3078,2.3656,2.4137,2.4321,2.4303,-0.3176,0.0,0.0,0.0,-0.1751,-0.2475,-0.0336,0.0,0.0,0.0,-0.1479,-0.2558,-0.2558,-0.1032,0.0,0.0,0.0,0.0,0.0,0.0,0.0,0.0,-0.1614,0.0,-0.3226,-0.3536,-0.367,-0.3581,-0.3622,0.0,0.0,0.0,0.0,0.0,-0.3541,-0.3173,-0.244,-0.0794,0.1071,0.2951,0.3066,0.2168,0.0823,0.1056,0.1611,0.216,0.1421,0.4305,0.7925,0.4388,0.2545,0.1535,0.0373,0.0805,0.1968,0.3127,0.5788,0.9038,1.2224,1.3122,1.3157,1.3157,1.3015,1.2869,1.2794,1.2684,1.263,1.2687,1.2722,1.2722,1.2722,1.2722,1.2959,1.3672,0.0,0.0,0.0,0.0,0.0,0.0,0.0,0.0,0.0,0.0,1.4845,0.0,0.0,1.5192,1.7559,1.7684,0.0,0.0,0.0,0.0,0.0,2.0452,2.0484,2.0512,2.1078,2.1893,2.2904,2.296,2.3437,2.4136,2.3087,2.2337,2.1793,2.1805,2.1441,2.1018,2.2447,2.3144,2.3419,2.3988,2.419,2.419,-0.0047,-0.0045,0.0,0.0,-0.0051,-0.0056,-0.0,0.0,0.0,0.0,-0.0045,-0.0045,-0.0045,-0.0,0.0,0.0,0.0,0.0,0.0,0.0,0.0,0.0,0.0,-0.0805,-0.2359,-0.3395,-0.378,-0.3581,0.0,0.0,-0.3788,0.0,-0.3714,-0.3581,-0.3615,-0.2273,-0.0045,-0.0299,0.1161,0.3619,0.3866,0.3463,0.2766,0.3543,0.541,0.7277,0.4764,0.4372,0.5639,0.9479,0.8568,0.5143,0.1237,0.2683,0.6589,1.0518,1.1923,1.2238,1.23,1.2475,1.261,1.261,1.261,1.2533,1.2271,1.2396,1.2684,1.2942,1.2995,1.2995,1.2995,1.2995,1.2995,1.3013,0.0,0.0,0.0,0.0,0.0,0.0,0.0,0.0,1.5391,0.0,0.0,0.0,0.0,1.6602,1.7651,0.0,0.0,1.9308,1.9305,0.0,1.9019,1.9019,1.9291,1.9814,1.9814,2.0811,2.2598,2.2881,2.3453,2.4116,2.2498,2.1803,2.1804,2.179,2.1788,2.1876,2.2685,2.3492,2.419,2.419,2.419,2.419,0.0,0.0,0.0,0.0,0.0,0.0,0.0,0.0,0.0,0.0,0.0,0.0,0.0,0.0,0.0,0.0,0.0,0.0,0.0,0.0,0.0,0.0,0.0,-0.0719,-0.2236,-0.3216,-0.3695,-0.3724,0.0,0.0,0.0,-0.3849,-0.3846,-0.3778,-0.3656,-0.3194,-0.2368,-0.0805,0.1074,0.3062,0.3916,0.4312,0.434,0.3826,0.5313,0.7588,0.6771,0.7076,0.8172,1.0204,1.0189,0.9157,0.8314,0.7049,0.6678,1.0638,1.203,1.23,1.23,1.2455,1.261,1.261,1.2455,1.2312,1.221,1.2412,1.2668,1.2942,1.3355,1.359,1.3326,1.3576,1.3746,1.3463,1.3693,0.0,0.0,0.0,0.0,0.0,0.0,0.0,0.0,1.4383,0.0,0.0,0.0,0.0,0.0,0.0,0.0,0.0,1.9112,0.0,1.9538,1.8983,1.8803,1.8976,1.9489,2.0611,2.2224,2.3315,2.371,2.3527,2.3472,2.3012,2.2278,2.2276,2.228,2.2289,2.2293,2.2965,2.3876,2.3876,2.3996,2.419,0.0,0.0,0.0,0.0,0.0,0.0,0.0,0.0,0.0,0.0,0.0,0.0,0.0,0.0,0.0,0.0,0.0,0.0,0.0,0.0,0.0,0.0,0.0,-0.0698,-0.2186,-0.336,0.0,-0.3877,-0.3788,-0.3761,-0.3792,-0.3852,-0.3604,-0.3105,-0.3433,-0.3108,-0.2144,-0.0633,0.1045,0.2777,0.3699,0.4558,0.5248,0.4808,0.5899,0.7695,0.7695,0.8269,0.9212,1.0171,1.0664,1.1015,1.1615,1.0114,0.8602,1.1087,1.1961,1.2113,1.2113,1.2195,1.2296,1.2296,1.2154,1.2081,1.2185,1.2332,1.2553,1.2924,1.3322,1.3578,1.343,1.3666,1.3819,1.3578,1.3663,1.3798,1.3798,0.0,0.0,0.0,0.0,0.0,0.0,1.4469,1.491,0.0,0.0,0.0,0.0,0.0,0.0,1.914,1.8663,0.0,1.9193,1.8698,1.8391,1.8307,1.9458,2.064,2.189,2.3207,2.3587,2.3232,2.3628,2.3262,2.2333,2.2643,2.2574,2.233,2.2412,2.2963,2.3692,2.3692,2.3917,2.419,0.0,0.0,0.0,0.0,0.0,0.0,0.0,0.0,0.0,0.0,0.0,0.0,0.0,0.0,0.0,0.0,0.0,0.0,0.0,0.0,0.0,0.0,0.0,-0.0762,-0.2317,-0.377,-0.4347,-0.4019,-0.4019,-0.3944,-0.3809,-0.3859,-0.3176,-0.1894,-0.2887,-0.2113,0.0,0.0169,0.1193,0.276,0.3356,0.4347,0.554,0.623,0.7008,0.7695,0.7695,0.8166,0.8915,0.9549,1.0269,1.0991,1.1571,1.1768,1.1805,1.1768,1.1768,1.1805,1.1762,1.1783,1.179,1.1768,1.1768,1.1869,1.2123,1.2205,1.2332,1.285,1.2992,1.3099,1.3329,1.3413,1.3447,1.3413,1.3542,1.3632,1.36,0.0,0.0,0.0,0.0,0.0,0.0,1.5746,1.6022,0.0,0.0,0.0,0.0,0.0,1.8477,1.8021,1.8025,1.8059,1.8146,1.8166,1.8108,1.798,1.9688,2.0917,2.169,2.2729,2.3169,2.3151,2.3171,2.2754,2.2104,2.2855,2.273,2.2124,2.2855,2.3346,2.3667,2.3671,2.3896,2.419,0.0,0.0,0.0,0.0,0.0,0.0,0.0,0.0,0.0,0.0,0.0,0.0,0.0,0.0,0.0,0.0,0.0,0.0,0.0,0.0,0.0,0.0,0.0,-0.1228,-0.3919,-0.4313,-0.4355,-0.4019,-0.4019,-0.4002,-0.3965,-0.3965,-0.3295,-0.2047,-0.1235,-0.0539,0.0135,0.1949,0.2736,0.2786,0.3962,0.4757,0.5357,0.6176,0.7008,0.7695,0.7695,0.8166,0.886,0.9271,1.0083,1.0968,1.131,1.1579,1.1747,1.149,1.1601,1.1703,1.1233,1.1437,1.1725,1.149,1.1615,1.1826,1.1891,1.2045,1.2246,1.2352,1.2963,1.3371,1.3148,1.3592,1.392,1.361,1.3709,1.3783,1.3615,1.3766,0.0,0.0,1.3616,1.3583,1.3176,1.3844,1.4443,0.0,0.0,0.0,0.0,1.725,1.754,1.7109,1.7358,1.7499,1.7516,1.7755,1.8415,1.9478,2.0164,2.1066,2.216,2.287,2.2961,2.2539,2.2994,2.2941,2.2557,2.274,2.2718,2.2519,2.2504,2.2834,2.3312,2.333,2.3692,2.419,0.0,0.0,0.0,0.0,0.0,0.0,0.0,0.0,0.0,0.0,0.0,0.0,0.0,0.0,0.0,0.0,0.0,0.0,0.0,0.0,0.0494,0.1614,0.0488,-0.097,-0.2564,-0.3156,-0.3646,-0.4073,-0.3985,-0.3917,-0.3969,-0.3882,-0.3457,-0.277,-0.0864,0.0,0.018,0.2565,0.3423,0.3204,0.4476,0.4917,0.4966,0.6214,0.7007,0.7442,0.7627,0.808,0.8679,0.9312,1.002,1.0777,1.171,1.1896,1.1784,1.1771,1.1792,1.1703,1.1196,1.1423,1.1762,1.1557,1.1681,1.1805,1.1805,1.1897,1.2137,1.2571,1.3056,1.3431,1.3443,1.3809,1.3976,1.358,1.3605,1.3588,1.3362,1.341,0.0,1.3293,1.3106,1.3118,1.3483,1.3731,1.4169,1.4876,1.5801,0.0,1.6095,1.6445,1.6645,1.657,1.6747,1.6926,1.7076,1.7392,1.8308,1.9788,2.0118,2.0986,2.231,2.2651,2.2624,2.2338,2.2652,2.2686,2.2502,2.2504,2.252,2.2502,2.2508,2.279,2.3235,2.3371,2.3774,2.419,0.0,0.0,0.0,0.0,0.0,0.0,0.0,0.0,0.0,0.0,0.0,0.0,0.0,0.0,0.0,0.0,0.0392,0.0671,0.0671,0.07,0.1581,0.3632,0.1452,0.0047,-0.0311,-0.1793,-0.3061,-0.4164,-0.3941,-0.3856,-0.3903,-0.3712,-0.3605,-0.3478,-0.1078,0.0,0.0135,0.2384,0.3417,0.3693,0.4695,0.495,0.4811,0.6236,0.6901,0.7118,0.7539,0.7918,0.8354,0.9327,0.9944,1.0559,1.2047,1.2223,1.1926,1.2183,1.2109,1.1836,1.1468,1.1709,1.2045,1.2082,1.2104,1.2104,1.2104,1.2104,1.2291,1.3007,1.3166,1.3312,1.3662,1.3762,1.3716,1.3477,1.3362,1.3242,1.3108,0.0,1.3173,1.3361,1.2975,1.3129,1.4223,1.4217,1.4412,1.5088,1.5548,1.5799,1.5799,1.5799,1.5926,1.6219,1.6274,1.6448,1.6789,1.7076,1.7905,1.9246,1.966,2.0595,2.1955,2.213,2.218,2.2209,2.2282,2.231,2.231,2.231,2.231,2.2321,2.2608,2.289,2.3247,2.3598,2.3915,2.419,0.0,0.0,0.0,0.0,0.0,0.0,0.0,0.0,0.0,0.0,0.0,0.0,0.0,0.0,0.0,0.0,0.2343,0.379,0.379,0.3827,0.3946,0.4328,0.3462,0.2022,-0.0,-0.2717,-0.4075,-0.3966,-0.3944,-0.3955,-0.3903,-0.3673,-0.3612,-0.3478,-0.1078,0.0,0.009,0.1477,0.2684,0.3619,0.409,0.4957,0.593,0.6144,0.6507,0.6999,0.751,0.7754,0.7918,0.8695,0.9572,1.0394,1.1003,1.1641,1.2158,1.2195,1.2305,1.2291,1.1908,1.2413,1.3136,1.3406,1.3496,1.3496,1.3496,1.3496,1.3361,1.2953,1.3031,1.3062,1.2557,1.2669,1.297,1.3489,1.3093,1.2915,1.3432,0.0,1.325,1.251,1.2826,1.3111,1.3076,1.3549,1.4156,1.4818,1.5452,1.5799,1.5799,1.5799,1.5827,1.5885,1.6136,1.6448,1.6789,1.6841,1.7319,1.8178,1.8776,1.9515,2.0386,2.1289,2.1718,2.1718,2.2135,2.231,2.231,2.231,2.231,2.2327,2.2603,2.2919,2.3256,2.3595,2.3907,2.419,0.0,0.0,0.0,0.0,0.0,0.0,0.0,0.0,0.0,0.0,0.0,0.0,0.0,0.0,0.0,0.0,0.2732,0.4519,0.4519,0.4519,0.4519,0.4519,0.4254,0.2794,0.0054,-0.137,-0.2385,-0.3007,-0.351,-0.3751,-0.3728,-0.3634,-0.2884,-0.1618,-0.0494,0.0718,0.1932,0.1834,0.2849,0.453,0.4448,0.5206,0.6372,0.6409,0.661,0.6964,0.7497,0.7695,0.7831,0.8755,0.9377,0.9995,1.1253,1.1665,1.1837,1.2538,1.2484,1.2289,1.2534,1.2781,1.3127,1.3668,1.354,1.3361,1.3735,1.3104,1.2648,1.3355,1.3376,1.3181,1.2938,1.3212,1.3498,1.3584,1.3339,0.0,0.0,1.3392,1.3211,1.279,1.2877,1.3253,1.3967,1.4216,1.4618,1.5304,1.5634,1.5799,1.5799,1.5799,1.5799,1.5799,1.5955,1.6108,1.6274,1.6448,1.709,1.8174,1.8677,1.9484,2.0558,2.1283,2.1582,2.1628,2.2106,2.231,2.231,2.231,2.231,2.2344,2.2796,2.3049,2.3249,2.3771,2.4071,2.419,0.0,0.0,0.0,0.0,0.0,0.0,0.0,0.0,0.0,0.0,0.0,0.0,0.0,0.0,0.028,0.1006,0.3178,0.4519,0.4519,0.5117,0.5222,0.4515,0.4519,0.3067,0.0056,0.0,-0.0573,-0.168,-0.2422,-0.3069,-0.3595,-0.3032,-0.1753,0.0045,0.0584,0.1887,0.3523,0.2598,0.3422,0.528,0.5053,0.5589,0.6528,0.6917,0.7005,0.6996,0.7638,0.7783,0.7831,0.8755,0.9165,0.9595,1.1228,1.1678,1.1822,1.2803,1.2772,1.2542,1.3011,1.3151,1.3291,1.3953,1.3608,1.3238,1.3797,1.2966,1.2443,1.3541,1.372,1.3604,1.3454,1.3675,1.3814,1.3669,0.0,0.0,0.0,1.3168,1.3145,1.2989,1.2947,1.3449,1.473,1.4744,1.4954,1.5754,1.5799,1.5799,1.5799,1.5799,1.5801,1.5862,1.5832,1.5906,1.5994,1.6289,1.7043,1.8254,1.8654,1.942,2.0494,2.1163,2.146,2.1491,2.2077,2.231,2.231,2.231,2.2341,2.2461,2.2986,2.3256,2.3398,2.3987,2.4318,2.4483,0.0,0.0,0.0,0.0,0.0,0.0,0.0,0.0,0.0,0.0,0.0,0.0,0.0,0.0,0.1118,0.3901,0.4349,0.4519,0.4519,0.7009,0.7283,0.4625,0.4519,0.3067,0.0056,0.0,-0.0054,-0.0152,-0.0246,-0.14,-0.3548,-0.1329,-0.018,0.009,0.2339,0.343,0.3612,0.3499,0.416,0.5325,0.5663,0.6079,0.6632,0.7735,0.7645,0.7028,0.7997,0.8066,0.7783,0.8223,0.8794,0.9377,0.983,1.1189,1.2609,1.2706,1.3225,1.365,1.3143,1.3676,1.4457,1.49,1.4501,1.4054,1.4224,1.4401,1.421,1.3053,1.3807,1.4379,1.3402,1.3035,1.3094,1.368,0.0,0.0,1.2734,1.3029,1.2974,1.2342,1.2983,1.3653,1.4141,1.417,1.4601,1.5725,1.5799,1.5799,1.5799,1.5799,1.5861,1.5984,1.5998,1.6203,1.6637,1.6786,1.7155,1.7762,1.841,1.8774,1.8929,2.0382,2.1023,2.1086,2.1945,2.231,2.231,2.231,2.2457,2.272,2.305,2.3386,2.371,2.406,2.4667,2.5311,0.0,0.0,0.0,0.0,0.0,0.0632,0.2491,0.2788,0.2788,0.2788,0.1174,0.0,0.0,0.0,0.1229,0.4236,0.4519,0.4519,0.4519,0.7176,0.7503,0.4625,0.4519,0.3067,0.0056,0.0,0.0,0.0,0.0,-0.0446,-0.1331,-0.0417,0.0808,0.2294,0.3203,0.3605,0.3592,0.3585,0.4064,0.4806,0.5604,0.6085,0.6448,0.7805,0.7859,0.7298,0.8111,0.8096,0.7754,0.8176,0.8595,0.9081,0.9638,1.0703,1.1911,1.2604,1.3329,1.3782,1.3277,1.3631,1.4278,1.4937,1.4601,1.4183,1.4534,1.4034,1.3431,1.3231,1.3699,1.397,1.3473,1.3745,1.3974,1.384,0.0,1.3041,1.2551,1.3003,1.3052,1.2184,1.2906,1.3712,1.4284,1.4567,1.5023,1.5755,1.5551,1.5359,1.5359,1.5432,1.5524,1.5552,1.5989,1.6231,1.631,1.6721,1.7208,1.7821,1.8431,1.8912,1.9351,2.0172,2.0715,2.1023,2.1598,2.2032,2.231,2.231,2.2363,2.2489,2.2782,2.3084,2.3428,2.378,2.4519,2.5362,0.0,0.0,0.0,0.0,0.0765,0.212,0.4181,0.4519,0.4519,0.4519,0.2676,0.1396,0.1396,0.1396,0.2232,0.4294,0.4519,0.4519,0.4519,0.7176,0.7503,0.4625,0.4519,0.3511,0.1452,0.0504,0.0,0.0,0.0,0.0407,0.1108,0.1119,0.1796,0.306,0.3423,0.3595,0.3581,0.3581,0.4012,0.4735,0.5427,0.5996,0.6573,0.7741,0.7923,0.7662,0.8282,0.8325,0.8156,0.842,0.8664,0.895,0.9722,1.079,1.1953,1.2922,1.3519,1.3802,1.3323,1.3459,1.3868,1.4721,1.4238,1.3784,1.4462,1.3709,1.2955,1.3288,1.3651,1.391,1.3819,1.4141,1.4319,1.4132,1.3832,1.3345,1.2675,1.2997,1.3065,1.2341,1.2949,1.3641,1.4237,1.4564,1.4907,1.5359,1.5195,1.519,1.5377,1.5211,1.527,1.56,1.593,1.6166,1.6201,1.69,1.7598,1.8208,1.8741,1.9241,1.9711,2.0124,2.055,2.1023,2.143,2.1869,2.231,2.231,2.2344,2.2439,2.2635,2.3048,2.3565,2.379,2.4697,2.5774,0.0,0.0,0.0045,0.0045,0.2488,0.4512,0.4519,0.4519,0.4519,0.4519,0.4519,0.4519,0.4519,0.4519,0.4519,0.4519,0.4519,0.4519,0.4515,0.723,0.7503,0.468,0.4519,0.4519,0.4519,0.1563,0.0056,0.0056,0.0054,0.1242,0.3598,0.3615,0.2965,0.1875,0.3084,0.3581,0.3581,0.3581,0.4272,0.5303,0.5303,0.599,0.7063,0.7663,0.7943,0.8054,0.8622,0.8883,0.9004,0.9004,0.8973,0.9077,1.0012,1.1533,1.3107,1.3716,1.3901,1.3802,1.3323,1.3198,1.3425,1.4278,1.3487,1.283,1.4012,1.3736,1.3177,1.3021,1.3812,1.4501,1.4501,1.3943,1.378,1.4646,1.35,1.2678,1.3141,1.3013,1.2886,1.2886,1.3081,1.3391,1.3835,1.3901,1.4065,1.447,1.489,1.5346,1.5977,1.5176,1.5194,1.6258,1.5924,1.5969,1.6509,1.7544,1.838,1.8893,1.9442,1.969,1.9711,2.0124,2.055,2.1023,2.143,2.1853,2.231,2.231,2.2457,2.27,2.27,2.3342,2.4292,2.4296,2.5323,2.671,0.0314,0.1343,0.2504,0.2504,0.3259,0.4031,0.4453,0.4519,0.4519,0.4519,0.4519,0.4519,0.4519,0.4519,0.4519,0.4519,0.4519,0.5332,0.7391,0.8315,0.8427,0.7557,0.5601,0.4519,0.4519,0.3624,0.3183,0.314,0.2735,0.2878,0.3605,0.3619,0.3411,0.3084,0.3445,0.3581,0.3581,0.3581,0.3796,0.4188,0.4961,0.5518,0.5947,0.7356,0.7943,0.8054,0.8622,0.8883,0.9004,0.9004,0.9184,0.9626,1.0896,1.185,1.2634,1.3246,1.3648,1.3802,1.3323,1.3198,1.3323,1.3934,1.3797,1.3605,1.407,1.3919,1.3618,1.3405,1.3731,1.4084,1.4084,1.4142,1.4118,1.3909,1.3676,1.3235,1.245,1.2797,1.2964,1.257,1.2927,1.3391,1.3835,1.4238,1.446,1.4497,1.4705,1.5094,1.5747,1.5527,1.554,1.5871,1.6153,1.6358,1.6522,1.7544,1.8185,1.8341,1.9244,1.969,1.9711,1.9803,2.0311,2.1007,2.1118,2.1615,2.231,2.231,2.2344,2.2423,2.2423,2.3062,2.4024,2.4012,2.5172,2.6682,0.17,0.2593,0.3581,0.3581,0.3581,0.3746,0.411,0.4364,0.4897,0.6036,0.6199,0.6199,0.6199,0.6199,0.5764,0.4625,0.4519,0.5714,0.8593,0.8804,0.8804,0.8804,0.7122,0.5655,0.4515,0.4519,0.4525,0.4484,0.3872,0.3595,0.3604,0.3595,0.3588,0.3581,0.3581,0.3581,0.3581,0.3581,0.384,0.4316,0.5005,0.5561,0.6076,0.7147,0.7695,0.8039,0.8579,0.8964,0.9213,0.944,0.9778,1.0281,1.0967,1.1741,1.2442,1.281,1.3242,1.3547,1.3301,1.3198,1.3267,1.3547,1.3697,1.3835,1.4174,1.3984,1.374,1.3682,1.3835,1.3976,1.3908,1.4153,1.4245,1.3922,1.3728,1.3356,1.2556,1.2867,1.3004,1.25,1.3104,1.3687,1.3951,1.4456,1.4817,1.4877,1.48,1.5112,1.59,1.5772,1.5793,1.6019,1.6346,1.6522,1.6522,1.7353,1.7787,1.7787,1.8855,1.9369,1.9406,1.9603,2.007,2.0715,2.0926,2.1381,2.204,2.2215,2.231,2.2344,2.262,2.3321,2.4139,2.4137,2.5217,2.6606,0.3581,0.3581,0.3581,0.3581,0.3581,0.3581,0.3581,0.4332,0.5819,0.848,0.8804,0.8804,0.8804,0.8804,0.7664,0.4736,0.4736,0.5982,0.8639,0.8804,0.8804,0.8804,0.8533,0.7176,0.4574,0.4519,0.4519,0.4519,0.3926,0.3655,0.3665,0.3651,0.3598,0.3598,0.3585,0.3581,0.3581,0.3581,0.4184,0.5178,0.526,0.5947,0.6894,0.6979,0.7405,0.8036,0.8521,0.9079,0.9637,1.0118,1.0572,1.087,1.0572,1.1369,1.2437,1.2508,1.2826,1.3198,1.3198,1.3198,1.3198,1.3198,1.3415,1.3741,1.4328,1.395,1.3564,1.3847,1.3998,1.4065,1.3939,1.4015,1.4195,1.4409,1.3708,1.3151,1.3182,1.321,1.3076,1.2746,1.3593,1.416,1.416,1.4614,1.5095,1.5629,1.5223,1.5414,1.6349,1.6,1.6007,1.6497,1.6466,1.6436,1.6522,1.6951,1.7175,1.7312,1.838,1.8893,1.893,1.9442,1.9909,2.0314,2.0797,2.1222,2.163,2.2119,2.231,2.235,2.3047,2.3761,2.4424,2.4483,2.541,2.6572,0.3581,0.3581,0.3581,0.3581,0.3581,0.3581,0.3581,0.6022,0.8096,0.8699,0.8804,0.8804,0.8804,0.8804,0.7664,0.4736,0.6578,0.815,0.8752,0.8804,0.8804,0.8804,0.6632,0.5117,0.4519,0.4519,0.4519,0.4519,0.4341,0.422,0.4046,0.386,0.3744,0.3741,0.3629,0.3581,0.3581,0.3581,0.3755,0.4056,0.4918,0.5647,0.6204,0.6761,0.7641,0.8561,0.8675,0.9319,1.0118,1.0244,1.0361,1.0485,1.0791,1.138,1.2029,1.2401,1.2826,1.3198,1.3198,1.3198,1.3198,1.3198,1.3826,1.4365,1.4099,1.3644,1.3406,1.3809,1.3998,1.4083,1.4065,1.4069,1.412,1.4159,1.3307,1.2937,1.3785,1.3521,1.3532,1.4299,1.4588,1.4727,1.4727,1.484,1.5452,1.6796,1.6068,1.5987,1.7019,1.6616,1.6396,1.6522,1.6051,1.6008,1.6522,1.6126,1.6403,1.7312,1.838,1.8893,1.893,1.9442,1.9909,2.0314,2.0797,2.1243,2.1635,2.2118,2.231,2.2327,2.2468,2.2992,2.3701,2.4275,2.5266,2.6364,0.3581,0.3581,0.3581,0.3581,0.3581,0.3581,0.3581,0.6078,0.7956,0.7956,0.7956,0.7956,0.7956,0.8464,0.8209,0.6686,0.6686,0.674,0.674,0.674,0.7337,0.8752,0.6036,0.4519,0.4519,0.4237,0.423,0.4519,0.4321,0.4219,0.4206,0.3839,0.369,0.3687,0.3612,0.3581,0.3622,0.3972,0.4232,0.4487,0.5351,0.5996,0.6459,0.6852,0.7565,0.8357,0.8602,0.9399,1.0283,1.0283,1.0283,1.0361,1.0572,1.1019,1.1505,1.2029,1.2354,1.2579,1.2803,1.2873,1.2934,1.3191,1.3858,1.4343,1.4046,1.4153,1.431,1.4346,1.4624,1.4714,1.4186,1.4513,1.4702,1.4173,1.3828,1.3642,1.3679,1.3881,1.4067,1.4098,1.4814,1.5367,1.563,1.5655,1.6005,1.687,1.6414,1.6334,1.6896,1.6637,1.6522,1.6522,1.6182,1.6194,1.6522,1.6194,1.6312,1.6909,1.7747,1.8263,1.8535,1.908,1.9573,2.0035,2.0499,2.091,2.1354,2.1784,2.2082,2.2327,2.2683,2.3162,2.369,2.4082,2.4672,2.5391,0.3581,0.3581,0.3581,0.3581,0.3581,0.3581,0.3581,0.5221,0.655,0.6937,0.6979,0.6979,0.6979,0.7909,0.8344,0.7928,0.5729,0.4364,0.4364,0.4364,0.5413,0.7825,0.5624,0.4364,0.4364,0.3876,0.3918,0.4519,0.4148,0.407,0.4258,0.3852,0.3629,0.3653,0.3602,0.3581,0.367,0.4408,0.4966,0.5432,0.6002,0.652,0.6979,0.6979,0.7447,0.8077,0.8561,0.9399,1.0283,1.0196,1.0205,1.0283,1.0196,1.0534,1.1094,1.1542,1.183,1.2155,1.2531,1.277,1.3023,1.3456,1.3988,1.4362,1.4362,1.4889,1.5297,1.498,1.5316,1.5417,1.4538,1.5117,1.5392,1.4513,1.4511,1.4329,1.3591,1.4132,1.4289,1.3549,1.4779,1.5923,1.6429,1.6522,1.6522,1.6522,1.6522,1.6522,1.6522,1.6522,1.6522,1.6522,1.638,1.638,1.6522,1.638,1.638,1.6522,1.6951,1.7504,1.8145,1.865,1.9207,1.9711,2.0124,2.055,2.1039,2.1432,2.1936,2.2553,2.3022,2.3527,2.4,2.4069,2.4182,2.4418,0.3581,0.3581,0.3581,0.3581,0.3581,0.3581,0.3581,0.3884,0.4748,0.6725,0.6979,0.6979,0.6979,0.7168,0.6466,0.4463,0.3925,0.37,0.37,0.37,0.388,0.4286,0.3925,0.37,0.37,0.3622,0.3918,0.4519,0.4083,0.4077,0.4467,0.3968,0.3832,0.3948,0.3693,0.3581,0.367,0.4408,0.5135,0.5862,0.6087,0.652,0.6979,0.6979,0.7641,0.8602,0.8675,0.9399,1.0244,0.9765,0.9922,1.0205,0.9755,1.0254,1.1008,1.1094,1.2065,1.3099,1.3174,1.385,1.4587,1.4662,1.5076,1.5467,1.5467,1.5232,1.498,1.4916,1.5316,1.5643,1.5492,1.5593,1.5643,1.5492,1.4332,1.3707,1.4463,1.3858,1.3619,1.4406,1.518,1.5835,1.6466,1.6522,1.6522,1.6522,1.6522,1.6522,1.6522,1.6522,1.6522,1.6522,1.6008,1.5952,1.6466,1.5964,1.5996,1.6522,1.6552,1.7105,1.8145,1.865,1.9207,1.9711,2.0124,2.055,2.1039,2.1424,2.2254,2.3187,2.2666,2.3249,2.4448,2.4817,2.4668,2.4515,0.3581,0.3581,0.3581,0.3581,0.3581,0.3581,0.3581,0.3581,0.3968,0.4961,0.6204,0.6979,0.6979,0.5862,0.4705,0.3667,0.3581,0.3581,0.3581,0.3581,0.3581,0.3581,0.3598,0.3609,0.3609,0.3602,0.3735,0.3997,0.3973,0.4046,0.4209,0.3843,0.3795,0.4009,0.371,0.3843,0.4232,0.4792,0.5437,0.6087,0.6471,0.6768,0.6979,0.6979,0.7724,0.8731,0.9071,0.9497,0.9847,0.9298,0.9647,1.0205,0.9686,1.0021,1.07,1.1256,1.1662,1.2074,1.2586,1.3334,1.4033,1.4381,1.5086,1.5781,1.6082,1.5969,1.5793,1.5793,1.5982,1.6057,1.5756,1.5944,1.6057,1.5743,1.5043,1.4595,1.4706,1.4328,1.4316,1.5118,1.5454,1.582,1.6423,1.6522,1.6522,1.6522,1.6522,1.6522,1.6522,1.6522,1.6522,1.6522,1.6238,1.6238,1.6522,1.6238,1.6238,1.6522,1.6522,1.7076,1.8106,1.8341,1.8893,1.9726,1.9874,2.0364,2.1023,2.1176,2.2128,2.3323,2.2601,2.3362,2.4883,2.5015,2.5002,2.4994]}]]